[[{"header":{"parameterUnit":"m.s-1","parameterCategory":1,"la1":30.6,"la2":28.766,"lo1":-90.7593,"lo2":-88.6598,"dy":0.0162,"dx":0.0183,"nx":116,"ny":114,"refTime":"2023-07-21T12:00:00:Z","depth":0,"parameterNumber":2,"parameterNumberName":"U-component_of_WINDS"},"data":[0.0,0.0,0.0,0.0,0.0,0.0,0.0,0.0,0.0,0.0,0.0,0.0,0.0,0.0,0.0,0.0,0.0,0.0,0.0,0.0,0.0,0.0,0.0,0.0,0.0,0.0,0.0,0.0,0.0,0.0,0.0,0.0,0.0,0.0,0.0,0.0,0.0,0.0,0.0,0.0,0.0,0.0,0.0,0.0,0.0,0.0,0.0,0.0,0.0,0.0,0.0,0.0,0.0,0.0,0.0,0.0,0.0,0.0,0.0,0.0,0.0,0.0,0.0,0.0,0.0,0.0,0.0,0.0,0.0,0.0,0.0,0.0,0.0,0.0,0.0,0.0,0.0,0.0,0.0,0.0,0.0,0.0,0.0,0.0,0.0,0.0,0.0,0.0,0.0,0.0,0.0,0.0,0.0,0.0,0.0,0.0,0.0,0.0,0.0,0.0,0.0,0.0,0.0,0.0,0.0,0.0,0.0,0.0,0.0,0.0,0.0,0.0,0.0,0.0,0.0,0.0,0.0,0.0,0.0,0.0,0.0,0.0,0.0,0.0,0.0,0.0,0.0,0.0,0.0,0.0,0.0,0.0,0.0,0.0,0.0,0.0,0.0,0.0,0.0,0.0,0.0,0.0,0.0,0.0,0.0,0.0,0.0,0.0,0.0,0.0,0.0,0.0,0.0,0.0,0.0,0.0,0.0,0.0,0.0,0.0,0.0,0.0,0.0,0.0,0.0,0.0,0.0,0.0,0.0,0.0,0.0,0.0,0.0,0.0,0.0,0.0,0.0,0.0,0.0,0.0,0.0,0.0,0.0,0.0,0.0,0.0,0.0,0.0,0.0,0.0,0.0,0.0,0.0,0.0,0.0,0.0,0.0,0.0,0.0,0.0,0.0,0.0,0.0,0.0,0.0,0.0,0.0,0.0,0.0,0.0,0.0,0.0,0.0,0.0,0.0,0.0,0.0,0.0,0.0,0.0,0.0,0.0,0.0,0.0,0.0,0.0,0.0,0.0,0.0,0.0,0.0,0.0,0.0,0.0,0.0,0.0,0.0,0.0,0.0,0.0,0.0,0.0,0.0,0.0,0.0,0.0,0.0,0.0,0.0,0.0,0.0,0.0,0.0,0.0,0.0,0.0,0.0,0.0,0.0,0.0,0.0,0.0,0.0,0.0,0.0,0.0,0.0,0.0,0.0,0.0,0.0,0.0,0.0,0.0,0.0,0.0,0.0,0.0,0.0,0.0,0.0,0.0,0.0,0.0,0.0,0.0,0.0,0.0,0.0,0.0,0.0,0.0,0.0,0.0,0.0,0.0,0.0,0.0,0.0,0.0,0.0,0.0,0.0,0.0,0.0,0.0,0.0,0.0,0.0,0.0,0.0,0.0,0.0,0.0,0.0,0.0,0.0,0.0,0.0,0.0,0.0,0.0,0.0,0.0,0.0,0.0,0.0,0.0,0.0,0.0,0.0,0.0,0.0,0.0,0.0,0.0,0.0,0.0,0.0,0.0,0.0,0.0,0.0,0.0,0.0,0.0,0.0,0.0,0.0,0.0,0.0,0.0,0.0,0.0,0.0,0.0,0.0,0.0,0.0,0.0,0.0,0.0,0.0,0.0,0.0,0.0,0.0,0.0,0.0,0.0,0.0,0.0,0.0,0.0,0.0,0.0,0.0,0.0,0.0,0.0,0.0,0.0,0.0,0.0,0.0,0.0,0.0,0.0,0.0,0.0,0.0,0.0,0.0,0.0,0.0,0.0,0.0,0.0,0.0,0.0,0.0,0.0,0.0,0.0,0.0,0.0,0.0,0.0,0.0,0.0,0.0,0.0,0.0,0.0,0.0,0.0,0.0,0.0,0.0,0.0,0.0,0.0,0.0,0.0,0.0,0.0,0.0,0.0,0.0,0.0,0.0,0.0,0.0,0.0,0.0,0.0,0.0,0.0,0.0,0.0,0.0,0.0,0.0,0.0,0.0,0.0,0.0,0.0,0.0,0.0,0.0,0.0,0.0,0.0,0.0,0.0,0.0,0.0,0.0,0.0,0.0,0.0,0.0,0.0,0.0,0.0,0.0,0.0,0.0,0.0,0.0,0.0,0.0,0.0,0.0,0.0,0.0,0.0,0.0,0.0,0.0,0.0,0.0,0.0,0.0,0.0,0.0,0.0,0.0,0.0,0.0,0.0,0.0,0.0,0.0,0.0,0.0,0.0,0.0,0.0,0.0,0.0,0.0,0.0,0.0,0.0,0.0,0.0,0.0,0.0,0.0,0.0,0.0,0.0,0.0,0.0,0.0,0.0,0.0,0.0,0.0,0.0,0.0,0.0,0.0,0.0,0.0,0.0,0.0,0.0,0.0,0.0,0.0,0.0,0.0,0.0,0.0,0.0,0.0,0.0,0.0,0.0,0.0,0.0,0.0,0.0,0.0,0.0,0.0,0.0,0.0,0.0,0.0,0.0,0.0,0.0,0.0,0.0,0.0,0.0,0.0,0.0,0.0,0.0,0.0,0.0,0.0,0.0,0.0,0.0,0.0,0.0,0.0,0.0,0.0,0.0,0.0,0.0,0.0,0.0,0.0,0.0,0.0,0.0,0.0,0.0,0.0,0.0,0.0,0.0,0.0,0.0,0.0,0.0,0.0,0.0,0.0,0.0,0.0,0.0,0.0,0.0,0.0,0.0,0.0,0.0,0.0,0.0,0.0,0.0,0.0,0.0,0.0,0.0,0.0,0.0,0.0,0.0,0.0,0.0,0.0,0.0,0.0,0.0,0.0,0.0,0.0,0.0,0.0,0.0,0.0,0.0,0.0,0.0,0.0,0.0,0.0,0.0,0.0,0.0,0.0,0.0,0.0,0.0,0.0,0.0,0.0,0.0,0.0,0.0,0.0,0.0,0.0,0.0,0.0,0.0,0.0,0.0,0.0,0.0,0.0,0.0,0.0,0.0,0.0,0.0,0.0,0.0,0.0,0.0,0.0,0.0,0.0,0.0,0.0,0.0,0.0,0.0,0.0,0.0,0.0,0.0,0.0,0.0,0.0,0.0,0.0,0.0,0.0,0.0,0.0,0.0,0.0,0.0,0.0,0.0,0.0,0.0,0.0,0.0,0.0,0.0,0.0,0.0,0.0,0.0,0.0,0.0,0.0,0.0,0.0,0.0,0.0,0.0,0.0,0.0,0.0,0.0,0.0,0.0,0.0,0.0,0.0,0.0,0.0,0.0,0.0,0.0,0.0,0.0,0.0,0.0,0.0,0.0,0.0,0.0,0.0,0.0,0.0,0.0,0.0,0.0,0.0,0.0,0.0,0.0,0.0,0.0,0.0,0.0,0.0,0.0,0.0,0.0,0.0,0.0,0.0,0.0,0.0,0.0,0.0,0.0,0.0,0.0,0.0,0.0,0.0,0.0,0.0,0.0,0.0,0.0,0.0,0.0,0.0,0.0,0.0,0.0,0.0,0.0,0.0,0.0,0.0,0.0,0.0,0.0,0.0,0.0,0.0,0.0,0.0,0.0,0.0,0.0,0.0,0.0,0.0,0.0,0.0,0.0,0.0,0.0,0.0,0.0,0.0,0.0,0.0,0.0,0.0,0.0,0.0,0.0,0.0,0.0,0.0,0.0,0.0,0.0,0.0,0.0,0.0,0.0,0.0,0.0,0.0,0.0,0.0,0.0,0.0,0.0,0.0,0.0,0.0,0.0,0.0,0.0,0.0,0.0,0.0,0.0,0.0,0.0,0.0,0.0,0.0,0.0,0.0,0.0,0.0,0.0,0.0,0.0,0.0,0.0,0.0,0.0,0.0,0.0,0.0,0.0,0.0,0.0,0.0,0.0,0.0,0.0,0.0,0.0,0.0,0.0,0.0,0.0,0.0,0.0,0.0,0.0,0.0,0.0,0.0,0.0,0.0,0.0,0.0,0.0,0.0,0.0,0.0,0.0,0.0,0.0,0.0,0.0,0.0,0.0,0.0,0.0,0.0,0.0,0.0,0.0,0.0,0.0,0.0,0.0,0.0,0.0,0.0,0.0,0.0,0.0,0.0,0.0,0.0,0.0,0.0,0.0,0.0,0.0,0.0,0.0,0.0,0.0,0.0,0.0,0.0,0.0,0.0,0.0,0.0,0.0,0.0,0.0,0.0,0.0,0.0,0.0,0.0,0.0,0.0,0.0,0.0,0.0,0.0,0.0,0.0,0.0,0.0,0.0,0.0,0.0,0.0,0.0,0.0,0.0,0.0,0.0,0.0,0.0,0.0,0.0,0.0,0.0,0.0,0.0,0.0,0.0,0.0,0.0,0.0,0.0,0.0,0.0,0.0,0.0,0.0,0.0,0.0,0.0,0.0,0.0,0.0,0.0,0.0,0.0,0.0,0.0,0.0,0.0,0.0,0.0,0.0,0.0,0.0,0.0,0.0,0.0,0.0,0.0,0.0,0.0,0.0,0.0,0.0,0.0,0.0,0.0,0.0,0.0,0.0,0.0,0.0,0.0,0.0,0.0,0.0,0.0,0.0,0.0,0.0,0.0,0.0,0.0,0.0,0.0,0.0,0.0,0.0,0.0,0.0,0.0,0.0,0.0,0.0,0.0,0.0,0.0,0.0,0.0,0.0,0.0,0.0,0.0,0.0,0.0,0.0,0.0,0.0,0.0,0.0,0.0,0.0,0.0,0.0,0.0,0.0,0.0,0.0,0.0,0.0,0.0,0.0,0.0,0.0,0.0,0.0,0.0,0.0,0.0,0.0,0.0,0.0,0.0,0.0,0.0,0.0,0.0,0.0,0.0,0.0,0.0,0.0,0.0,0.0,0.0,0.0,0.0,0.0,0.0,0.0,0.0,0.0,0.0,0.0,0.0,0.0,0.0,0.0,0.0,0.0,0.0,0.0,0.0,0.0,0.0,0.0,0.0,0.0,0.0,0.0,0.0,0.0,0.0,0.0,0.0,0.0,0.0,0.0,0.0,0.0,0.0,0.0,0.0,0.0,0.0,0.0,0.0,0.0,0.0,0.0,0.0,0.0,0.0,0.0,0.0,0.0,0.0,0.0,0.0,0.0,0.0,0.0,0.0,0.0,0.0,0.0,0.0,0.0,0.0,0.0,0.0,0.0,0.0,0.0,0.0,0.0,0.0,0.0,0.0,0.0,0.0,0.0,0.0,0.0,0.0,0.0,0.0,0.0,0.0,0.0,0.0,0.0,0.0,0.0,0.0,0.0,0.0,0.0,0.0,0.0,0.0,0.0,0.0,0.0,0.0,0.0,0.0,0.0,0.0,0.0,0.0,0.0,0.0,0.0,0.0,0.0,0.0,0.0,0.0,0.0,0.0,0.0,0.0,0.0,0.0,0.0,0.0,0.0,0.0,0.0,0.0,0.0,0.0,0.0,0.0,0.0,0.0,0.0,0.0,0.0,0.0,0.0,0.0,0.0,0.0,0.0,0.0,0.0,0.0,0.0,0.0,0.0,0.0,0.0,0.0,0.0,0.0,0.0,0.0,0.0,0.0,0.0,0.0,0.0,0.0,0.0,0.0,0.0,0.0,0.0,0.0,0.0,0.0,0.0,0.0,0.0,0.0,0.0,0.0,0.0,0.0,0.0,0.0,0.0,0.0,0.0,0.0,0.0,0.0,0.0,0.0,0.0,0.0,0.0,0.0,0.0,0.0,0.0,0.0,0.0,0.0,0.0,0.0,0.0,0.0,0.0,0.0,0.0,0.0,0.0,0.0,0.0,0.0,0.0,0.0,0.0,0.0,0.0,0.0,0.0,0.0,0.0,0.0,0.0,0.0,0.0,0.0,0.0,0.0,0.0,0.0,0.0,0.0,0.0,0.0,0.0,0.0,0.0,0.0,0.0,0.0,0.0,0.0,0.0,0.0,0.0,0.0,0.0,0.0,0.0,0.0,0.0,0.0,0.0,0.0,0.0,0.0,0.0,0.0,0.0,0.0,0.0,0.0,0.0,0.0,0.0,0.0,0.0,0.0,0.0,0.0,0.0,0.0,0.0,0.0,0.0,0.0,0.0,0.0,0.0,0.0,0.0,0.0,0.0,0.0,0.0,0.0,0.0,0.0,0.0,0.0,0.0,0.0,0.0,0.0,0.0,0.0,0.0,0.0,0.0,0.0,-1.786,0.0,0.0,0.0,0.0,0.0,0.0,0.0,0.0,0.0,0.0,0.0,0.0,0.0,0.0,0.0,0.0,0.0,0.0,0.0,0.0,0.0,0.0,0.0,0.0,0.0,0.0,0.0,0.0,0.0,0.0,0.0,0.0,0.0,0.0,0.0,0.0,0.0,0.0,0.0,0.0,0.0,0.0,0.0,0.0,0.0,0.0,0.0,0.0,0.0,0.0,0.0,0.0,0.0,0.0,0.0,0.0,0.0,0.0,0.0,0.0,0.0,0.0,0.0,0.0,0.0,0.0,0.0,0.0,0.0,0.0,0.0,0.0,0.0,0.0,0.0,0.0,0.0,0.0,0.0,0.0,0.0,0.0,0.0,0.0,0.0,0.0,0.0,0.0,0.0,0.0,0.0,0.0,0.0,0.0,0.0,0.0,0.0,0.0,0.0,0.0,0.0,0.0,0.0,0.0,0.0,0.0,0.0,0.0,0.0,0.0,0.0,0.0,0.0,0.0,0.0,0.0,-1.8168,0.0,0.0,0.0,0.0,0.0,0.0,0.0,0.0,0.0,0.0,0.0,0.0,0.0,0.0,0.0,0.0,0.0,0.0,0.0,0.0,0.0,0.0,0.0,0.0,0.0,0.0,0.0,0.0,0.0,0.0,0.0,0.0,0.0,0.0,0.0,0.0,0.0,0.0,0.0,0.0,0.0,0.0,0.0,0.0,0.0,0.0,0.0,0.0,0.0,0.0,0.0,0.0,0.0,0.0,0.0,0.0,0.0,0.0,0.0,0.0,0.0,0.0,0.0,0.0,0.0,0.0,0.0,0.0,0.0,0.0,0.0,0.0,0.0,0.0,0.0,0.0,0.0,0.0,0.0,0.0,0.0,0.0,0.0,0.0,0.0,0.0,0.0,0.0,0.0,0.0,0.0,0.0,0.0,0.0,0.0,0.0,0.0,0.0,0.0,0.0,0.0,0.0,0.0,0.0,0.0,0.0,0.0,0.0,-1.8881,-1.8827,-1.8815,-1.8473,-1.8181,-1.8005,-1.8118,-1.7994,-1.7726,-1.8157,0.0,0.0,0.0,0.0,0.0,0.0,0.0,0.0,0.0,0.0,0.0,0.0,0.0,0.0,0.0,0.0,0.0,0.0,0.0,0.0,0.0,0.0,0.0,0.0,0.0,0.0,0.0,0.0,0.0,0.0,0.0,0.0,0.0,0.0,0.0,0.0,0.0,0.0,0.0,-2.2045,-2.1024,-1.9559,0.0,0.0,0.0,0.0,0.0,0.0,0.0,0.0,0.0,0.0,0.0,0.0,0.0,0.0,0.0,0.0,0.0,0.0,0.0,0.0,0.0,0.0,0.0,0.0,0.0,0.0,0.0,0.0,0.0,0.0,0.0,0.0,0.0,0.0,0.0,0.0,0.0,0.0,0.0,0.0,0.0,0.0,0.0,0.0,-0.8801,-0.8858,0.0,0.0,0.0,0.0,0.0,0.0,0.0,0.0,0.0,0.0,0.0,0.0,0.0,-1.7094,-1.8309,-1.8236,-1.841,-1.8798,-1.841,-1.8193,-1.817,-1.7769,-1.7721,-1.8017,-1.826,0.0,-1.8425,-1.7852,0.0,0.0,0.0,0.0,0.0,0.0,0.0,0.0,0.0,0.0,0.0,0.0,0.0,0.0,0.0,0.0,0.0,0.0,0.0,0.0,0.0,0.0,0.0,0.0,0.0,0.0,0.0,0.0,0.0,0.0,0.0,0.0,0.0,0.0,0.0,0.0,0.0,0.0,0.0,0.0,0.0,-1.9209,-1.7357,-1.5466,-1.3451,-1.0698,0.0,0.0,0.0,0.0,0.0,0.0,0.0,0.0,0.0,0.0,0.0,0.0,0.0,0.0,0.0,0.0,0.0,0.0,0.0,0.0,0.0,0.0,0.0,0.0,0.0,0.0,0.0,0.0,0.0,0.0,0.0,0.0,0.0,0.0,0.0,0.0,0.0,0.0,0.0,-0.8676,-0.8985,-0.9086,-1.0584,-1.2011,0.0,0.0,0.0,0.0,0.0,0.0,0.0,0.0,0.0,-1.5254,-1.5728,-1.6328,-1.7122,-1.7047,-1.7133,-1.7341,-1.7133,-1.7029,-1.7017,-1.6957,-1.7058,-1.7249,-1.7798,-1.8093,-1.8154,-1.8467,-1.8883,-1.9419,0.0,0.0,0.0,0.0,-2.006,-1.9426,0.0,0.0,0.0,0.0,0.0,0.0,0.0,0.0,0.0,0.0,0.0,0.0,0.0,0.0,0.0,0.0,0.0,0.0,0.0,0.0,0.0,0.0,0.0,0.0,0.0,0.0,0.0,0.0,0.0,0.0,0.0,0.0,0.0,0.0,0.0,0.0,0.0,-1.1093,-0.9533,0.0,0.0,0.0,0.0,0.0,0.0,0.0,0.0,0.0,0.0,0.0,0.0,0.0,0.0,0.0,0.0,0.0,0.0,0.0,0.0,0.0,0.0,0.0,0.0,0.0,0.0,0.0,0.0,0.0,0.0,0.0,0.0,0.0,0.0,0.0,0.0,0.0,0.0,-0.8625,-0.8888,-0.9099,-1.0124,-1.12,0.0,0.0,0.0,0.0,0.0,0.0,-1.4324,-1.4043,-1.4265,-1.5043,-1.5395,-1.5801,-1.62,-1.6287,-1.6272,-1.6272,-1.6272,-1.6272,-1.6322,-1.6398,-1.644,-1.644,-1.7255,-1.7515,-1.7498,-1.8604,-1.8728,-1.8248,-1.8822,-1.8894,-1.874,-1.9404,-1.8921,-1.7976,0.0,0.0,0.0,0.0,0.0,0.0,0.0,0.0,0.0,0.0,0.0,0.0,0.0,0.0,0.0,0.0,0.0,0.0,0.0,0.0,0.0,0.0,0.0,0.0,0.0,0.0,0.0,0.0,0.0,0.0,0.0,0.0,0.0,0.0,0.0,0.0,0.0,0.0,0.0,0.0,0.0,0.0,0.0,0.0,0.0,0.0,0.0,0.0,0.0,0.0,0.0,0.0,0.0,0.0,0.0,0.0,0.0,0.0,0.0,0.0,0.0,0.0,0.0,0.0,0.0,0.0,0.0,0.0,0.0,0.0,0.0,0.0,0.0,0.0,0.0,0.0,0.0,0.0,0.0,-0.8372,-0.9569,0.0,0.0,0.0,0.0,-1.2983,-1.2688,-1.2681,-1.3067,-1.3416,-1.3858,-1.4324,-1.4956,-1.5588,-1.6204,-1.6434,-1.6573,-1.6573,-1.6573,-1.6573,-1.6562,-1.6153,-1.5946,-1.5982,-1.6735,-1.6774,-1.6367,-1.7643,-1.8336,-1.8615,-1.8085,-1.8135,-1.8475,-1.8057,-1.7882,-1.776,0.0,0.0,0.0,0.0,0.0,0.0,0.0,0.0,0.0,0.0,0.0,0.0,0.0,0.0,0.0,0.0,0.0,0.0,0.0,0.0,0.0,0.0,0.0,0.0,0.0,0.0,0.0,0.0,0.0,0.0,0.0,0.0,0.0,0.0,0.0,0.0,0.0,0.0,0.0,0.0,0.0,0.0,0.0,0.0,0.0,0.0,0.0,0.0,0.0,0.0,0.0,0.0,0.0,0.0,0.0,0.0,0.0,0.0,0.0,0.0,0.0,0.0,0.0,0.0,0.0,0.0,0.0,0.0,0.0,0.0,0.0,0.0,0.0,0.0,0.0,0.0,0.0,0.0,0.0,-0.8831,-0.9329,0.0,-1.0653,-1.0889,-1.1353,-1.2126,-1.204,-1.2182,-1.2635,-1.28,-1.3299,-1.4198,-1.4461,-1.4874,-1.5483,-1.557,-1.5647,-1.5647,-1.5647,-1.5647,-1.5647,-1.5475,-1.5395,-1.5395,-1.5875,-1.6126,-1.6256,-1.6908,-1.7414,-1.7765,-1.7909,-1.7862,-1.7733,-1.8312,-1.8041,-1.7459,0.0,0.0,0.0,0.0,0.0,0.0,0.0,0.0,0.0,0.0,0.0,0.0,0.0,0.0,0.0,0.0,0.0,0.0,0.0,0.0,0.0,0.0,0.0,0.0,0.0,0.0,0.0,0.0,0.0,0.0,0.0,0.0,0.0,0.0,0.0,0.0,0.0,0.0,0.0,0.0,0.0,0.0,-0.5332,0.0,0.0,0.0,0.0,0.0,0.0,0.0,0.0,0.0,0.0,0.0,0.0,0.0,0.0,0.0,0.0,0.0,0.0,0.0,0.0,0.0,0.0,0.0,0.0,0.0,0.0,0.0,0.0,0.0,0.0,0.0,0.0,0.0,0.0,0.0,-0.8955,-0.9155,-0.9126,-0.9362,-1.0316,-1.0561,-1.0973,-1.174,-1.1965,-1.2341,-1.2896,-1.2787,-1.3155,-1.4218,-1.4178,-1.4417,-1.4953,-1.504,-1.5085,-1.5108,-1.5108,-1.5108,-1.5108,-1.5108,-1.5108,-1.5108,-1.5457,-1.5736,-1.6013,-1.6392,-1.665,-1.6969,-1.7778,-1.7852,-1.7591,-1.8349,-1.8022,-1.7251,0.0,0.0,0.0,0.0,0.0,0.0,0.0,0.0,0.0,0.0,0.0,0.0,0.0,0.0,0.0,0.0,0.0,0.0,0.0,0.0,0.0,0.0,0.0,0.0,0.0,0.0,0.0,0.0,0.0,0.0,0.0,0.0,0.0,0.0,0.0,0.0,0.0,0.0,0.0,0.0,0.0,0.0,-0.6392,0.0,0.0,0.0,0.0,0.0,0.0,0.0,0.0,0.0,0.0,0.0,0.0,0.0,0.0,0.0,0.0,0.0,0.0,0.0,0.0,0.0,0.0,0.0,0.0,0.0,0.0,0.0,0.0,0.0,0.0,0.0,0.0,0.0,-0.9247,-0.9105,-0.9035,-0.9136,-0.8914,-0.8907,-0.9542,-1.0097,-1.0825,-1.1847,-1.2508,-1.3128,-1.3666,-1.3331,-1.3461,-1.4289,-1.4119,-1.421,-1.4718,-1.4887,-1.5045,-1.5085,-1.5085,-1.5074,-1.5062,-1.5108,-1.5108,-1.5108,-1.5457,-1.5591,-1.5635,-1.6013,-1.6212,-1.6361,-1.7547,-1.8074,-1.8074,-1.8074,-1.7695,-1.7199,0.0,0.0,0.0,0.0,0.0,0.0,0.0,0.0,0.0,0.0,0.0,0.0,0.0,0.0,0.0,0.0,0.0,0.0,0.0,0.0,0.0,0.0,0.0,0.0,0.0,0.0,0.0,0.0,0.0,0.0,0.0,0.0,0.0,0.0,0.0,0.0,0.0,0.0,0.0,0.0,0.0,0.0,-0.5521,0.0,0.0,0.0,0.0,0.0,0.0,0.0,0.0,0.0,0.0,0.0,0.0,0.0,0.0,0.0,0.0,0.0,0.0,0.0,0.0,0.0,0.0,0.0,0.0,0.0,0.0,0.0,0.0,0.0,0.0,0.0,0.0,-0.833,-0.8514,-0.8335,-0.8294,-0.8502,-0.859,-0.8896,-0.9647,-1.0553,-1.132,-1.1975,-1.2784,-1.3168,-1.3212,-1.3113,-1.3104,-1.3267,-1.3631,-1.4149,-1.4707,-1.4811,-1.4935,-1.5115,-1.5067,-1.489,-1.4605,-1.4926,-1.5108,-1.5108,-1.5198,-1.5367,-1.5591,-1.5724,-1.6175,-1.6774,-1.6729,-1.6891,-1.7081,-1.7081,-1.7118,-1.7199,0.0,0.0,0.0,0.0,0.0,0.0,0.0,0.0,0.0,0.0,0.0,0.0,0.0,0.0,0.0,0.0,0.0,0.0,0.0,0.0,0.0,0.0,0.0,0.0,0.0,0.0,0.0,0.0,0.0,0.0,0.0,0.0,0.0,0.0,0.0,0.0,0.0,0.0,0.0,0.0,0.0,0.0,-0.6034,-0.6595,-0.6936,-0.7324,-0.9018,-1.0015,-1.0759,-1.2777,0.0,0.0,0.0,0.0,0.0,0.0,0.0,0.0,0.0,0.0,0.0,0.0,0.0,0.0,0.0,0.0,0.0,0.0,0.0,0.0,0.0,0.0,0.0,0.0,-0.9239,-0.8456,-0.8416,-0.8433,-0.8462,-0.8561,-0.878,-0.9143,-0.9722,-1.0551,-1.1178,-1.16,-1.2613,-1.3068,-1.2781,-1.3014,-1.3088,-1.2975,-1.3405,-1.3817,-1.4174,-1.4314,-1.4358,-1.4382,-1.4633,-1.4635,-1.443,-1.488,-1.5108,-1.5108,-1.5108,-1.5198,-1.5367,-1.5367,-1.5723,0.0,0.0,0.0,0.0,0.0,-1.6808,-1.7018,0.0,0.0,0.0,0.0,0.0,0.0,0.0,0.0,0.0,0.0,0.0,0.0,0.0,0.0,0.0,0.0,0.0,0.0,0.0,0.0,0.0,0.0,0.0,0.0,0.0,0.0,0.0,0.0,0.0,0.0,0.0,0.0,0.0,0.0,0.0,0.0,0.0,0.0,0.0,0.0,0.0,0.0,-0.6921,-0.7283,-0.7698,-0.8324,-0.9907,-1.0829,-1.1596,-1.3917,0.0,0.0,0.0,0.0,0.0,0.0,0.0,0.0,0.0,0.0,0.0,0.0,0.0,0.0,0.0,0.0,0.0,0.0,0.0,0.0,0.0,0.0,0.0,0.0,-0.9342,-0.8741,-0.8807,-0.8986,-0.9138,-0.9048,-0.9228,-0.9456,-0.9691,-1.0269,-1.0723,-1.0996,-1.2197,-1.274,-1.2463,0.0,0.0,0.0,0.0,-1.3417,-1.344,-1.3638,-1.3597,-1.3395,-1.3979,-1.424,-1.4233,-1.4686,-1.4971,-1.5017,-1.5017,-1.5062,-1.5108,-1.5108,-1.5108,-1.5245,-1.6408,-1.6864,-1.6893,-1.6771,-1.671,-1.6808,0.0,0.0,0.0,0.0,0.0,0.0,0.0,0.0,0.0,0.0,0.0,0.0,0.0,0.0,0.0,0.0,0.0,0.0,0.0,0.0,0.0,0.0,0.0,0.0,0.0,0.0,0.0,0.0,0.0,0.0,0.0,0.0,0.0,0.0,0.0,0.0,0.0,0.0,0.0,0.0,0.0,0.0,-0.5456,-0.6863,-0.7711,-0.8504,-1.0938,-1.2302,-1.3299,-1.563,-1.678,-1.7476,-1.8771,0.0,0.0,0.0,0.0,0.0,0.0,0.0,0.0,0.0,0.0,0.0,0.0,0.0,0.0,0.0,0.0,0.0,0.0,0.0,0.0,-1.0457,-0.9697,-0.9142,-0.958,-0.9502,-0.9367,-0.9083,-0.9278,-0.9525,-0.9768,-1.0448,-1.0947,-1.101,-1.1757,-1.2358,-1.272,-1.2849,-1.2965,-1.3046,-1.3154,-1.3352,-1.3575,-1.3214,-1.319,-1.341,0.0,0.0,-1.3112,-1.3647,-1.414,-1.4558,-1.4558,-1.4743,-1.5108,-1.5108,-1.5108,-1.5165,-1.5652,-1.6058,-1.6367,-1.659,-1.6892,-1.7115,0.0,0.0,0.0,0.0,0.0,0.0,0.0,0.0,0.0,0.0,0.0,0.0,0.0,0.0,0.0,0.0,0.0,0.0,0.0,0.0,0.0,0.0,0.0,0.0,0.0,0.0,0.0,0.0,0.0,0.0,0.0,0.0,0.0,0.0,0.0,0.0,0.0,0.0,0.0,0.0,0.0,0.0,-0.5268,-0.7589,-0.8354,-0.8651,-1.1609,-1.3125,-1.4061,-1.6376,-1.7461,-1.8022,-1.903,-1.8781,-1.8167,0.0,0.0,0.0,0.0,0.0,0.0,0.0,0.0,0.0,0.0,0.0,0.0,0.0,0.0,-1.1831,0.0,0.0,-1.0023,-0.9904,-0.9064,-0.8636,-0.922,-0.8783,-0.8709,-0.9355,-0.9525,-0.9643,-0.9792,-1.0168,-1.0345,-1.0281,-1.0843,-1.12,-1.1189,-1.1931,-1.2271,-1.2025,-1.253,-1.277,-1.269,-1.2547,-1.2457,-1.2462,-1.2755,-1.283,-1.2716,-1.3314,-1.3905,-1.4373,-1.4373,-1.4651,-1.5108,-1.5108,-1.5108,-1.5108,-1.5277,-1.5603,-1.5957,-1.6306,-1.665,-1.6976,0.0,0.0,0.0,0.0,0.0,0.0,0.0,0.0,0.0,0.0,0.0,0.0,0.0,0.0,0.0,0.0,0.0,0.0,0.0,0.0,0.0,0.0,0.0,0.0,0.0,0.0,0.0,0.0,0.0,0.0,0.0,0.0,0.0,0.0,0.0,0.0,0.0,0.0,0.0,0.0,0.0,0.0,-0.1909,-0.541,-0.7946,-1.0105,-1.3039,-1.4326,-1.4944,-1.6877,-1.7629,-1.7887,-1.8683,-1.7841,-1.6768,-1.7822,-1.7056,0.0,0.0,0.0,0.0,0.0,0.0,0.0,0.0,0.0,-1.2211,-1.1489,-1.1731,-1.1813,-1.0929,-1.043,-0.9962,-0.933,-0.8472,-0.8093,-0.8441,-0.7849,-0.7907,-0.9408,-0.9542,-0.9606,-0.974,-0.974,-0.9676,-0.9484,-0.9983,-1.0155,-0.9807,-1.0953,-1.143,-1.0919,-1.1603,-1.1827,-1.152,-1.1625,-1.1627,-1.1528,-1.2089,-1.2374,-1.2423,-1.2977,-1.3515,-1.4082,-1.428,-1.4605,-1.4971,-1.5062,-1.5108,-1.5108,-1.5108,-1.5277,-1.5635,-1.6057,-1.6392,-1.6765,0.0,0.0,0.0,0.0,0.0,0.0,0.0,0.0,0.0,0.0,0.0,0.0,0.0,0.0,0.0,0.0,0.0,0.0,0.0,0.0,0.0,0.0,0.0,0.0,0.0,0.0,0.0,0.0,0.0,0.0,0.0,0.0,0.0,0.0,0.0,0.0,0.0,0.0,0.0,0.0,0.0,0.0,1.0661,0.5252,-0.4282,-1.5008,-1.6677,-1.7125,-1.7044,-1.7788,-1.7338,-1.648,-1.6489,-1.5655,-1.4817,-1.5235,0.0,-1.435,-1.4765,-1.4154,-1.3587,-1.4123,-1.3333,-1.2589,0.0,0.0,-1.2162,-1.1041,-1.1033,-1.1089,-1.0445,-1.0303,-1.0119,-0.9702,-0.9136,-0.8565,-0.7957,-0.7584,-0.7712,-0.8554,-0.8619,-0.8882,-0.9484,-0.9548,-0.9548,-0.9484,-0.9548,-0.9831,-1.0392,-1.0343,-1.0415,-1.0657,-1.0494,-1.047,-1.0569,-1.0561,-1.0904,-1.1528,-1.1569,-1.1669,-1.1819,-1.1868,-1.2246,-1.2851,-1.3931,-1.4419,-1.4512,-1.4926,-1.5108,-1.5108,-1.5108,-1.5277,-1.5635,-1.6057,-1.6392,-1.6765,0.0,0.0,0.0,0.0,0.0,0.0,0.0,0.0,0.0,0.0,0.0,0.0,0.0,0.0,0.0,0.0,0.0,0.0,0.0,0.0,0.0,0.0,0.0,0.0,0.0,0.0,0.0,0.0,0.0,0.0,0.0,0.0,0.0,0.0,0.0,0.0,0.0,0.0,0.0,0.0,0.0,0.0,1.2153,0.7585,0.1044,-0.6001,-0.8221,-1.0902,0.0,0.0,-1.2584,-1.3409,-1.2903,-1.257,-1.2496,-1.2964,-1.2669,0.0,-1.2496,-1.2357,-1.2174,0.0,-1.2023,-1.1864,-1.1852,-1.1814,-1.1522,-1.0639,-1.0822,-1.0849,-0.9967,-0.959,-0.9132,0.0,-0.7708,-0.7172,-0.725,-0.6654,-0.6671,-0.7712,-0.7555,-0.7778,-0.8835,-0.8888,-0.8888,-0.8888,-0.928,-0.9539,-0.9681,-0.9766,-0.9829,-0.9764,-0.9825,-0.9903,-0.9932,-0.9925,-1.0079,-1.0387,-1.049,-1.0694,-1.1057,-1.1158,-1.1642,-1.2511,-1.3351,-1.3752,-1.3847,-1.4025,-1.4176,-1.4269,-1.4558,-1.4789,-1.496,-1.5635,-1.6088,-1.6436,0.0,0.0,0.0,0.0,0.0,0.0,0.0,0.0,0.0,0.0,0.0,0.0,0.0,0.0,0.0,0.0,0.0,0.0,0.0,0.0,0.0,0.0,0.0,0.0,0.0,0.0,0.0,0.0,0.0,0.0,0.0,0.0,0.0,0.0,0.0,0.0,0.0,0.0,0.0,0.0,0.0,0.0,1.6737,1.2875,0.9244,0.5464,-0.007,-0.4592,0.0,0.0,-0.7051,-0.8751,-0.8133,-0.8328,-0.892,-0.9734,-1.0034,-1.0077,-1.0084,-1.0339,0.0,-1.0447,-1.0557,-1.0707,-1.0659,-1.0694,-1.0586,-1.0052,-1.0285,-1.0304,-0.9469,-0.897,-0.8456,-0.7567,-0.6702,-0.6215,-0.6529,-0.5723,-0.5502,-0.6726,-0.6177,-0.6218,-0.7545,-0.8022,-0.8229,-0.8172,-0.8624,-0.8809,-0.8618,-0.8914,-0.8997,-0.8796,-0.9032,-0.9197,-0.9406,-0.9406,-0.9458,-0.9614,-0.971,-0.9976,-1.0344,-1.0438,-1.1141,-1.2178,-1.257,-1.2909,-1.316,-1.3266,-1.342,-1.3563,-1.4035,-1.4222,-1.4316,-1.5006,-1.5546,-1.5957,0.0,0.0,0.0,0.0,0.0,0.0,0.0,0.0,0.0,0.0,0.0,0.0,0.0,0.0,0.0,0.0,0.0,0.0,0.0,0.0,0.0,0.0,0.0,0.0,0.0,0.0,0.0,0.0,0.0,0.0,0.0,0.0,0.0,0.0,0.0,0.0,0.0,0.0,0.0,0.0,0.0,0.0,2.9214,2.5105,2.1347,1.6635,0.4134,0.0,0.0,0.0,-0.1591,-0.2246,-0.2089,-0.2493,0.0,-0.4919,-0.6566,-0.7894,-0.7728,0.0,-0.8659,-0.949,-0.9228,-0.9042,-1.0065,-0.991,-0.947,-0.9178,-0.9144,-0.9091,-0.8803,-0.8699,-0.8406,-0.7389,-0.7054,-0.6667,-0.5752,-0.4913,-0.4593,-0.5391,-0.4245,-0.4012,0.0,-0.6952,-0.7659,-0.7466,-0.7451,-0.7447,-0.7442,-0.767,-0.7731,-0.7725,-0.7888,-0.8209,-0.8823,-0.883,-0.9086,-0.9614,-0.9614,-0.9614,-0.9614,-0.9762,-1.0438,-1.1519,-1.1633,-1.1963,-1.2463,-1.3016,-1.3218,-1.3266,-1.3684,-1.3815,-1.3873,-1.4269,-1.4823,-1.5355,0.0,0.0,0.0,0.0,0.0,0.0,0.0,0.0,0.0,0.0,0.0,0.0,0.0,0.0,0.0,0.0,0.0,0.0,0.0,0.0,0.0,0.0,0.0,0.0,0.0,0.0,0.0,0.0,0.0,0.0,0.0,0.0,0.0,0.0,0.0,0.0,0.0,0.0,0.0,0.0,0.0,0.0,3.0383,2.771,2.5497,2.3127,0.0,0.0,0.0,0.0,0.537,0.2463,0.2995,0.1407,-0.0902,-0.2209,-0.3663,-0.4866,-0.4807,0.0,-0.6371,-0.6721,-0.6852,-0.6958,-0.7413,-0.7787,-0.7918,-0.7301,-0.7588,-0.7643,-0.6375,-0.6214,-0.5901,-0.5041,-0.4787,-0.4581,-0.4262,-0.3897,-0.3756,-0.3994,-0.3638,0.0,0.0,0.0,0.0,-0.6852,-0.7202,-0.7386,-0.7386,-0.7183,-0.7131,-0.7131,-0.7277,-0.7461,-0.7664,-0.7664,-0.7937,-0.8474,-0.8883,-0.9093,-0.9086,-0.951,-0.9873,-1.0233,-1.0269,-1.0415,-1.0669,-1.0864,-1.1225,-1.1642,-1.2159,-1.255,-1.2899,-1.3198,-1.3484,-1.3758,0.0,0.0,0.0,0.0,0.0,0.0,0.0,0.0,0.0,0.0,0.0,0.0,0.0,0.0,0.0,0.0,0.0,0.0,0.0,0.0,0.0,0.0,0.0,0.0,0.0,0.0,0.0,0.0,0.0,0.0,0.0,0.0,0.0,0.0,0.0,0.0,0.0,0.0,0.0,0.0,0.0,0.0,3.0377,2.8693,2.7571,0.0,0.0,0.0,0.0,0.0,1.1783,0.8514,0.8224,0.5832,0.29,0.1821,0.0327,-0.112,-0.1721,-0.2676,-0.3617,-0.4009,-0.4259,-0.4586,-0.4855,-0.5369,-0.565,-0.5372,-0.5751,-0.5751,-0.4675,-0.4477,-0.4281,-0.3766,-0.3573,-0.3409,-0.3235,-0.3056,-0.2802,-0.2677,-0.2654,-0.2835,0.0,0.0,0.0,-0.537,-0.5981,-0.6289,-0.6289,-0.6409,-0.648,-0.6469,-0.6729,-0.6838,-0.6756,-0.6972,-0.7354,-0.7901,-0.8096,-0.8408,-0.883,-0.8942,-0.9197,-0.9614,-0.9406,-0.9562,-1.0028,-1.0028,-1.0387,-1.1006,-1.1543,-1.199,-1.2482,-1.2764,-1.3102,-1.3399,0.0,0.0,0.0,0.0,0.0,0.0,0.0,0.0,0.0,0.0,0.0,0.0,0.0,0.0,0.0,0.0,0.0,0.0,0.0,0.0,0.0,0.0,0.0,0.0,0.0,0.0,0.0,0.0,0.0,0.0,0.0,0.0,0.0,0.0,0.0,0.0,0.0,0.0,0.0,0.0,0.0,0.0,2.9915,2.8682,0.0,0.0,0.0,0.0,0.0,0.0,0.0,1.5263,1.3245,1.0451,0.7761,0.6943,0.5192,0.3171,0.1465,0.034,-0.0489,-0.1287,-0.1616,-0.1961,-0.247,-0.2642,-0.2858,-0.34,-0.3531,-0.3505,0.0,0.0,-0.3462,-0.3471,-0.3398,-0.3095,-0.2491,-0.222,-0.1856,0.0,0.0,0.0,0.0,0.0,0.0,-0.2996,0.0,-0.4258,-0.4258,-0.5284,-0.5802,-0.5687,-0.6043,-0.6196,-0.61,-0.6756,-0.73,-0.7735,-0.73,-0.761,-0.8672,-0.8049,-0.8362,-0.9399,-0.8817,-0.9183,-1.019,-1.019,-1.0549,-1.1217,-1.1669,-1.2076,-1.2471,-1.2832,-1.3552,-1.414,0.0,0.0,0.0,0.0,0.0,0.0,0.0,0.0,0.0,0.0,0.0,0.0,0.0,0.0,0.0,0.0,0.0,0.0,0.0,0.0,0.0,0.0,0.0,0.0,0.0,0.0,0.0,0.0,0.0,0.0,0.0,0.0,0.0,0.0,0.0,0.0,0.0,0.0,0.0,0.0,0.0,0.0,3.1768,0.0,0.0,0.0,0.0,0.0,0.0,0.0,0.0,0.0,0.0,1.1691,0.9844,0.9099,0.7035,0.4894,0.4309,0.3117,0.1935,0.1639,0.1059,0.0583,0.0504,-0.0438,-0.1183,-0.0735,-0.1156,-0.1359,0.0,0.0,0.0,-0.0386,-0.0382,0.0,-0.0158,-0.0077,0.0,0.0078,0.0,0.0,-0.0233,-0.0625,0.0,0.0,-0.222,-0.3561,-0.3561,-0.3711,-0.3738,-0.3686,-0.4098,-0.4478,-0.4827,-0.5928,-0.6263,-0.5987,-0.6263,-0.6804,-0.7503,-0.646,-0.6342,-0.6988,-0.5946,-0.6161,-0.725,-0.725,-0.8106,-0.9503,-1.032,-1.0931,-1.1484,-1.2304,-1.2754,-1.2958,0.0,0.0,0.0,0.0,0.0,0.0,0.0,0.0,0.0,0.0,0.0,0.0,0.0,0.0,0.0,0.0,0.0,0.0,0.0,0.0,0.0,0.0,0.0,0.0,0.0,0.0,0.0,0.0,0.0,0.0,0.0,0.0,0.0,0.0,0.0,0.0,0.0,0.0,0.0,0.0,0.0,0.0,0.0,0.0,0.0,0.0,0.0,0.0,0.0,0.0,0.0,1.6394,1.5673,1.3992,1.2135,1.1078,0.0,0.7752,0.6355,0.5369,0.4484,0.3808,0.3342,0.2917,0.2696,0.1935,0.1228,0.1074,0.0635,0.0,0.0562,0.0574,0.0,0.0,0.0,0.0,0.1036,0.086,0.0776,0.0,0.0711,0.0,0.0703,0.0388,0.0537,0.0,-0.0872,-0.2057,-0.1559,-0.2089,-0.2389,-0.2318,-0.2855,-0.3326,-0.3831,-0.4216,-0.4546,-0.471,-0.4816,-0.5144,-0.5742,-0.5027,-0.4914,-0.5241,0.0,-0.5508,-0.6436,-0.694,-0.7966,-0.9295,-0.9814,-1.0423,-1.1124,-1.2404,-1.3082,-1.3406,0.0,0.0,0.0,0.0,0.0,0.0,0.0,0.0,0.0,0.0,0.0,0.0,0.0,0.0,0.0,0.0,0.0,0.0,0.0,0.0,0.0,0.0,0.0,0.0,0.0,0.0,0.0,0.0,0.0,0.0,0.0,0.0,0.0,0.0,0.0,0.0,0.0,0.0,0.0,0.0,0.0,0.0,0.0,0.0,0.0,0.0,0.0,0.0,0.0,0.0,2.0435,1.7634,1.7895,1.6502,1.4538,1.3042,1.2035,1.0899,0.8291,0.7437,0.7003,0.5766,0.5398,0.5152,0.4553,0.4293,0.3838,0.2505,0.0,0.1929,0.1218,0.1123,0.1162,0.1174,0.0,0.1174,0.1809,0.1258,0.1107,0.1692,0.1271,0.1104,0.1518,0.139,0.1505,0.1869,0.0584,0.0,0.0793,-0.0481,-0.1119,-0.1018,-0.1728,-0.23,-0.2722,-0.2169,-0.2498,-0.3646,-0.2989,-0.2987,-0.3641,-0.3536,-0.3591,-0.3698,-0.4627,-0.5496,-0.6357,-0.7368,-0.8501,-0.9503,-0.9651,-1.0261,-1.1266,-1.2725,-1.3932,-1.4812,0.0,0.0,0.0,0.0,0.0,0.0,0.0,0.0,0.0,0.0,0.0,0.0,0.0,0.0,0.0,0.0,0.0,0.0,0.0,0.0,0.0,0.0,0.0,0.0,0.0,0.0,0.0,0.0,0.0,0.0,0.0,0.0,0.0,0.0,0.0,0.0,0.0,0.0,0.0,0.0,0.0,0.0,0.0,0.0,0.0,0.0,0.0,0.0,0.0,0.0,2.1929,1.9412,1.8339,1.728,1.6162,1.4967,1.3726,1.2505,1.136,1.0341,0.9412,0.8511,0.7802,0.7213,0.6527,0.5926,0.0,0.0,0.4308,0.4198,0.3929,0.3904,0.3942,0.4049,0.3444,0.3083,0.3365,0.2697,0.2512,0.0,0.3294,0.3469,0.0,0.0,0.0,0.0,0.0,0.2455,0.1476,0.1159,0.1046,0.099,0.0292,-0.0338,-0.0837,-0.0443,-0.0719,-0.1778,-0.0829,-0.0882,-0.1762,-0.1276,-0.1276,-0.1767,-0.1446,0.0,-0.4477,-0.47,-0.6013,-0.799,-0.8744,-1.0109,-1.1798,-1.2837,-1.4314,-1.5823,0.0,0.0,0.0,0.0,0.0,0.0,0.0,0.0,0.0,0.0,2.9382,0.0,0.0,0.0,0.0,0.0,0.0,0.0,0.0,0.0,0.0,0.0,0.0,0.0,0.0,0.0,0.0,0.0,0.0,0.0,0.0,0.0,0.0,0.0,0.0,0.0,0.0,0.0,0.0,0.0,0.0,0.0,0.0,0.0,0.0,0.0,0.0,0.0,0.0,0.0,2.2688,2.0803,1.9616,1.8416,1.7131,1.5681,1.4819,1.4005,1.2594,1.1792,1.1224,1.0468,1.0014,0.9629,0.8948,0.0,0.0,0.0,0.6052,0.5749,0.4895,0.476,0.0,0.4837,0.4556,0.4334,0.4585,0.4217,0.0,0.4681,0.4704,0.4828,0.0,0.0,0.0,0.0,0.0,0.4327,0.3138,0.2817,0.2631,0.2514,0.2046,0.1695,0.1445,0.1387,0.1166,0.0668,0.0612,0.0776,0.1046,0.0223,0.0555,0.1807,0.0606,0.0,-0.0379,-0.0973,-0.1181,-0.1222,-0.1631,-0.4046,-0.7369,-0.857,-1.2097,-1.6218,0.0,0.0,0.0,0.0,0.0,0.0,0.0,3.014,3.0151,3.0303,3.0079,2.9769,2.9354,2.885,0.0,0.0,0.0,0.0,0.0,0.0,0.0,0.0,0.0,0.0,0.0,0.0,0.0,0.0,0.0,0.0,0.0,0.0,0.0,0.0,0.0,0.0,0.0,0.0,0.0,0.0,0.0,0.0,0.0,0.0,0.0,0.0,0.0,0.0,0.0,0.0,2.3245,2.2076,2.1054,1.9653,1.8024,1.6492,1.5906,1.5381,1.3675,1.3078,1.2777,1.2081,1.1951,1.1774,1.11,1.0795,0.0,0.0,0.7802,0.7228,0.5796,0.0,0.5528,0.0,0.5269,0.5279,0.5554,0.543,0.5428,0.0,0.5819,0.0,0.0,0.0,0.0,0.0,0.0,0.0,0.4837,0.4454,0.4137,0.3975,0.3882,0.3806,0.3652,0.355,0.3387,0.3166,0.2559,0.2885,0.392,0.2052,0.2597,0.4873,0.2509,0.0,0.0,0.2895,0.3794,0.5605,0.5075,0.2092,-0.2043,-0.3807,-0.8417,-1.3789,0.0,0.0,0.0,0.0,0.0,0.0,0.0,3.0489,3.0606,3.1263,3.056,3.0217,3.082,2.9983,0.0,0.0,0.0,0.0,0.0,0.0,0.0,0.0,0.0,0.0,0.0,0.0,0.0,0.0,0.0,0.0,0.0,0.0,0.0,0.0,0.0,0.0,0.0,0.0,0.0,0.0,0.0,0.0,0.0,0.0,0.0,0.0,0.0,0.0,0.0,0.0,0.0,2.3274,2.2268,2.0747,1.9213,1.8428,0.0,0.0,1.5867,1.5018,1.4163,1.3494,1.3312,1.3122,1.2472,0.0,1.119,1.0355,0.9742,0.9,0.8032,0.7922,0.0,0.0,0.0,0.5987,0.6342,0.5796,0.5632,0.6689,0.0,0.0,0.0,0.0,0.0,0.0,0.0,0.0,0.5833,0.59,0.5936,0.592,0.614,0.6023,0.5487,0.6377,0.6377,0.5433,0.6318,0.6553,0.6284,0.5496,0.5321,0.5591,0.4761,0.0,0.0,0.6632,0.7456,0.865,0.6201,0.3881,0.1578,-0.1126,-0.3631,-0.5706,0.0,0.0,0.0,0.0,0.0,0.0,0.0,3.1102,3.1475,3.1763,3.1428,3.1234,3.1487,3.0663,0.0,0.0,0.0,0.0,0.0,0.0,0.0,0.0,0.0,0.0,0.0,0.0,0.0,0.0,0.0,0.0,0.0,0.0,0.0,0.0,0.0,0.0,0.0,0.0,0.0,0.0,0.0,0.0,0.0,0.0,0.0,0.0,0.0,0.0,0.0,0.0,0.0,0.0,2.2948,2.1532,0.0,0.0,1.8147,1.7542,1.6895,1.6425,1.5991,1.5379,1.5233,1.4954,1.3987,0.0,1.2862,1.1432,1.0885,1.0325,0.9192,0.8683,0.8262,0.0,0.0,0.0,0.744,0.7212,0.7198,0.7914,0.0,0.0,0.0,0.0,0.0,0.0,0.0,0.0,0.9237,0.78,0.7192,0.788,0.7864,0.8063,0.8462,0.8631,0.8745,0.8816,0.8592,0.917,1.0279,0.8686,0.9197,1.1311,1.0613,0.0,0.0,1.3276,1.4538,1.6056,1.4997,1.2116,0.8463,0.7335,0.3344,-0.1538,0.0,0.0,0.0,0.0,0.0,0.0,3.0799,3.1286,3.1816,3.2327,3.1879,3.1728,3.218,3.1187,3.0488,3.0466,0.0,0.0,0.0,0.0,0.0,0.0,0.0,0.0,0.0,0.0,0.0,0.0,0.0,0.0,0.0,0.0,3.0305,3.0318,0.0,0.0,0.0,0.0,0.0,0.0,0.0,0.0,0.0,0.0,0.0,0.0,0.0,0.0,0.0,0.0,0.0,0.0,0.0,0.0,0.0,0.0,1.878,1.8004,1.7465,1.7148,1.6852,1.6515,1.6252,1.5884,0.0,0.0,1.4034,1.2443,1.195,1.1392,1.0028,0.9262,0.8748,0.0,0.0,0.7623,0.7962,0.8031,0.824,0.0,0.0,0.0,0.0,0.0,0.0,0.0,0.0,0.0,1.2033,1.0172,0.9285,0.9743,0.9715,1.0179,1.1167,1.093,1.1247,1.2119,1.1462,1.2086,1.374,1.2333,1.3187,1.5698,1.5154,0.0,0.0,1.8413,1.987,2.1543,2.083,1.8041,1.4349,1.3511,0.9406,0.4245,0.0,0.0,0.0,0.0,0.0,0.0,0.0,3.081,3.1406,3.3074,3.1783,3.1332,3.2997,3.159,3.0849,3.171,0.0,0.0,0.0,0.0,0.0,0.0,0.0,0.0,0.0,0.0,0.0,0.0,0.0,0.0,0.0,0.0,0.0,0.0,0.0,0.0,0.0,0.0,0.0,0.0,0.0,0.0,0.0,0.0,0.0,0.0,0.0,0.0,0.0,0.0,0.0,0.0,0.0,0.0,0.0,0.0,1.9619,1.8163,1.763,1.6957,1.6385,1.6374,1.5954,1.5642,0.0,0.0,1.4291,1.3631,1.2948,1.2081,1.073,0.997,0.9262,0.8619,0.0,0.0,0.7754,0.7957,0.0,0.0,0.0,0.0,0.0,0.0,0.0,0.0,0.0,0.0,1.3495,1.311,1.2494,1.1519,1.1928,1.2516,1.3176,1.3498,1.4075,1.4962,1.5344,1.5732,1.6062,1.6601,1.6983,1.7289,0.0,0.0,0.0,2.0954,2.2128,2.3538,2.1138,1.9531,1.8194,1.5404,1.3826,1.3036,0.0,0.0,0.0,0.0,0.0,0.0,0.0,3.11,3.1757,3.2336,3.1972,3.1841,3.2322,3.1343,3.0943,3.1729,0.0,0.0,0.0,0.0,0.0,0.0,0.0,0.0,0.0,0.0,0.0,0.0,0.0,0.0,0.0,0.0,0.0,0.0,0.0,0.0,0.0,0.0,0.0,0.0,0.0,0.0,0.0,0.0,0.0,0.0,0.0,0.0,0.0,0.0,0.0,0.0,0.0,0.0,0.0,0.0,0.0,0.0,1.8823,1.8618,1.826,1.7543,1.7174,1.683,1.6219,1.5766,1.5128,1.4034,1.3666,1.3122,1.167,1.0471,0.9582,0.9262,0.8231,0.0,0.0,0.0,0.0,0.0,0.0,0.0,0.0,0.0,0.0,0.0,0.0,0.0,1.6147,1.5638,1.4914,1.4178,1.4287,1.5317,1.7291,1.7393,1.7925,1.8917,1.9017,1.9436,2.0151,2.0312,2.071,0.0,0.0,0.0,0.0,2.3313,2.3457,2.3317,2.254,2.1599,2.0608,1.9733,1.8498,1.7277,0.0,0.0,0.0,0.0,0.0,0.0,0.0,3.0808,3.1488,3.187,3.1708,3.1656,3.197,3.1223,3.1149,3.2271,0.0,0.0,0.0,0.0,0.0,0.0,0.0,0.0,0.0,0.0,0.0,0.0,0.0,0.0,0.0,0.0,0.0,0.0,0.0,0.0,0.0,0.0,0.0,0.0,0.0,0.0,2.8865,0.0,0.0,0.0,0.0,0.0,0.0,0.0,0.0,0.0,0.0,0.0,0.0,0.0,1.9619,1.8992,0.0,1.8686,1.8289,1.7647,1.7123,0.0,0.0,1.5655,1.5013,1.3929,1.369,1.3252,1.2112,1.085,0.9996,0.998,0.8814,0.0,0.0,0.0,0.0,0.0,0.0,0.0,0.0,0.0,0.0,0.0,0.0,0.0,1.8546,1.8124,1.7906,1.8177,1.7314,1.7812,1.9816,2.0204,2.0725,2.1352,2.1873,2.2304,2.2656,2.2959,2.336,0.0,0.0,0.0,0.0,2.4324,2.3912,2.2987,2.261,2.1864,2.0927,2.0473,1.9459,1.8349,0.0,0.0,0.0,0.0,0.0,0.0,0.0,0.0,0.0,0.0,3.1022,3.0925,3.1792,3.1171,3.1382,0.0,0.0,0.0,0.0,0.0,0.0,0.0,0.0,0.0,0.0,0.0,0.0,3.1208,3.2222,3.2278,3.1432,0.0,0.0,0.0,0.0,0.0,0.0,0.0,0.0,0.0,0.0,0.0,0.0,0.0,0.0,0.0,0.0,0.0,0.0,0.0,0.0,0.0,0.0,0.0,0.0,0.0,0.0,0.0,0.0,1.7474,1.6972,1.6886,0.0,0.0,0.0,0.0,0.0,1.3446,1.3101,1.2765,1.2151,1.1038,1.0399,1.0613,0.9479,0.0,0.0,0.0,0.0,0.0,0.0,0.0,0.0,0.0,0.0,0.0,0.0,0.0,2.065,2.0475,2.1144,2.2983,2.0921,2.021,2.1223,2.214,2.2639,2.2673,2.3992,2.4321,2.3817,2.4568,2.4944,0.0,0.0,0.0,0.0,2.4129,2.3601,2.259,2.1719,2.0781,1.976,1.8668,1.7733,1.7073,0.0,0.0,0.0,0.0,0.0,0.0,0.0,0.0,0.0,0.0,0.0,3.062,3.0839,3.0758,0.0,0.0,0.0,0.0,0.0,0.0,0.0,0.0,0.0,0.0,0.0,0.0,0.0,3.232,3.273,3.2468,3.1626,3.1669,0.0,0.0,0.0,0.0,0.0,0.0,0.0,0.0,0.0,0.0,0.0,0.0,0.0,0.0,2.5855,2.5243,0.0,0.0,0.0,0.0,0.0,0.0,0.0,0.0,1.8156,1.7319,1.7247,0.0,1.7614,1.6815,1.6688,1.647,0.0,0.0,0.0,0.0,0.0,1.2501,1.1466,1.0688,1.0161,1.0104,0.957,0.9508,1.0777,0.0,0.0,0.0,0.0,0.0,0.0,0.0,0.0,0.0,0.0,1.9235,2.2111,2.1725,2.2709,2.5523,2.4634,2.423,2.4413,2.4649,2.4908,2.5159,2.55,2.5315,2.4705,2.4898,2.5008,0.0,0.0,0.0,2.4023,2.3569,2.2979,2.2385,2.2152,2.1648,2.0975,2.0701,1.9893,1.8948,0.0,0.0,0.0,0.0,0.0,0.0,0.0,0.0,0.0,0.0,0.0,0.0,0.0,0.0,0.0,0.0,0.0,0.0,0.0,0.0,0.0,0.0,0.0,0.0,0.0,0.0,0.0,0.0,0.0,3.243,0.0,0.0,0.0,0.0,0.0,0.0,0.0,0.0,0.0,0.0,2.856,0.0,0.0,0.0,0.0,0.0,2.5291,2.4617,0.0,2.3275,2.2342,2.1452,0.0,0.0,0.0,0.0,1.7166,1.6313,1.6039,1.6589,1.7103,1.6754,1.6479,1.6095,1.5083,0.0,0.0,0.0,0.0,1.1834,1.126,1.1262,1.1174,1.0716,1.1332,0.0,0.0,0.0,0.0,0.0,0.0,0.0,0.0,0.0,0.0,0.0,0.0,2.1055,2.3612,2.3728,2.4657,2.6706,2.6585,2.6454,2.6378,2.6713,2.6637,2.6191,2.6485,2.6042,2.4956,2.486,2.4786,0.0,0.0,0.0,2.3562,2.3194,2.2781,2.2286,2.1553,2.1098,2.0718,1.9963,1.9141,1.8401,0.0,0.0,0.0,0.0,0.0,0.0,0.0,0.0,0.0,0.0,0.0,0.0,0.0,0.0,0.0,0.0,0.0,0.0,0.0,0.0,0.0,0.0,0.0,0.0,0.0,0.0,0.0,0.0,0.0,0.0,0.0,0.0,3.0852,0.0,0.0,0.0,0.0,0.0,0.0,0.0,2.8428,0.0,0.0,0.0,0.0,0.0,0.0,0.0,0.0,2.286,2.1988,2.097,2.0348,0.0,0.0,0.0,0.0,0.0,1.4914,1.5319,1.5932,1.6322,1.5894,1.529,1.4766,0.0,0.0,0.0,0.0,0.0,0.0,1.1949,0.0,0.0,0.0,0.0,0.0,0.0,0.0,0.0,0.0,0.0,0.0,0.0,0.0,0.0,0.0,2.3378,2.5275,2.5933,2.6623,2.7466,2.7769,2.7816,2.7592,2.8073,2.7717,2.6553,2.6966,2.6329,2.4795,2.4619,2.4402,2.4131,0.0,0.0,2.2923,2.2873,2.2574,2.2085,2.0767,2.0195,1.9924,1.8478,1.7626,1.7271,0.0,0.0,0.0,0.0,0.0,0.0,0.0,0.0,0.0,0.0,0.0,0.0,0.0,0.0,0.0,0.0,0.0,0.0,0.0,0.0,0.0,0.0,0.0,0.0,0.0,0.0,0.0,0.0,0.0,0.0,3.1706,3.0868,3.0343,0.0,0.0,0.0,2.9608,2.9451,2.9075,2.8485,2.8021,0.0,0.0,0.0,0.0,0.0,0.0,0.0,0.0,2.2035,2.1237,2.0515,1.9577,0.0,0.0,0.0,0.0,0.0,1.4665,1.4712,1.4783,1.4586,1.4936,1.4975,1.3469,0.0,0.0,0.0,0.0,0.0,0.0,0.0,0.0,0.0,0.0,0.0,0.0,0.0,0.0,0.0,0.0,0.0,0.0,0.0,0.0,0.0,0.0,2.4902,2.7401,2.7782,2.8348,2.919,2.9639,2.9426,2.8508,2.7771,2.7342,2.724,2.6427,2.5464,2.4398,2.4347,2.3988,2.3356,0.0,2.282,2.2538,2.2275,2.1832,2.1274,2.0991,2.055,2.0019,1.9236,1.8754,1.8338,0.0,0.0,0.0,0.0,0.0,0.0,0.0,0.0,0.0,0.0,0.0,0.0,0.0,0.0,0.0,0.0,0.0,0.0,0.0,0.0,0.0,0.0,0.0,0.0,0.0,0.0,0.0,0.0,0.0,3.1675,3.1939,3.0937,3.0246,2.981,0.0,0.0,2.9297,2.906,2.8676,2.8139,0.0,0.0,0.0,0.0,0.0,0.0,0.0,0.0,0.0,0.0,2.0584,1.9991,1.8883,0.0,0.0,0.0,0.0,0.0,1.3198,1.3385,1.3521,1.2868,1.4025,1.5002,1.4055,0.0,0.0,0.0,0.0,0.0,0.0,0.0,0.0,0.0,0.0,0.0,0.0,0.0,0.0,0.0,0.0,0.0,0.0,0.0,0.0,0.0,0.0,0.0,2.7262,2.8554,2.9289,2.9328,2.9431,2.9192,2.8602,2.7015,2.6339,2.6529,2.5927,2.4974,2.3694,2.3428,2.3012,2.2461,0.0,2.1703,2.15,2.121,2.0669,2.0035,1.9823,1.9432,1.8858,1.8048,1.7759,1.7639,0.0,0.0,0.0,0.0,0.0,0.0,0.0,0.0,0.0,0.0,0.0,0.0,0.0,0.0,0.0,0.0,0.0,0.0,0.0,0.0,0.0,0.0,0.0,0.0,0.0,0.0,3.1674,3.2031,3.2359,3.2293,3.1826,3.0764,2.9958,0.0,0.0,0.0,2.88,2.8591,2.8147,2.7572,0.0,0.0,0.0,0.0,0.0,0.0,0.0,0.0,0.0,0.0,0.0,0.0,0.0,0.0,0.0,1.4935,1.3834,1.2783,1.1931,1.2175,1.25,1.1866,0.0,1.4469,1.4159,0.0,0.0,0.0,0.0,0.0,0.0,0.0,0.0,0.0,0.0,0.0,0.0,0.0,0.0,0.0,0.0,0.0,0.0,0.0,0.0,0.0,0.0,0.0,2.7761,2.9418,3.0047,2.9283,2.9301,2.8987,2.8291,2.6686,2.5819,2.5668,2.5114,2.4194,2.2995,2.2556,2.2096,2.1573,2.1116,2.0717,2.0338,2.0135,1.9617,1.8912,1.8617,1.8154,1.7505,1.6744,1.6471,1.633,0.0,0.0,0.0,0.0,0.0,0.0,0.0,0.0,0.0,0.0,0.0,0.0,0.0,0.0,0.0,0.0,0.0,0.0,0.0,0.0,0.0,0.0,0.0,0.0,0.0,3.1777,3.2466,3.3903,3.3217,3.2278,3.114,2.9889,2.918,2.8931,0.0,2.8156,2.7986,2.7986,2.7455,2.6707,2.6673,0.0,0.0,0.0,0.0,0.0,0.0,0.0,0.0,0.0,0.0,0.0,0.0,0.0,1.5564,1.3603,1.2714,1.2153,1.1678,1.1747,1.2066,1.234,1.2533,0.0,1.224,1.2129,0.0,0.0,0.0,0.0,0.0,0.0,0.0,0.0,0.0,0.0,0.0,0.0,0.0,0.0,0.0,0.0,0.0,0.0,0.0,0.0,0.0,0.0,3.08,3.109,3.0763,2.9776,3.0453,2.9817,2.7695,2.7453,2.6667,2.5319,2.3674,2.2737,2.2468,2.2107,2.1513,2.0766,2.0733,2.0187,1.9316,1.9279,1.8823,1.8074,1.7997,1.7341,1.6429,1.6355,1.5688,1.4835,0.0,0.0,0.0,0.0,0.0,0.0,0.0,0.0,0.0,0.0,0.0,0.0,0.0,0.0,0.0,0.0,0.0,0.0,0.0,0.0,0.0,0.0,0.0,3.0617,3.1934,3.211,3.2971,3.4604,3.3881,3.2617,3.0895,2.9741,0.0,0.0,2.7794,2.7455,2.7335,2.6602,2.6314,2.6307,2.5796,2.5633,0.0,0.0,0.0,0.0,0.0,0.0,0.0,0.0,1.8578,0.0,0.0,0.0,1.4337,1.3546,1.2398,1.1276,1.0701,1.0825,1.1115,1.0957,0.0,0.0,0.0,0.0,0.0,0.0,0.0,0.0,0.0,0.0,0.0,0.0,0.0,0.0,0.0,0.0,0.0,0.0,0.0,0.0,0.0,0.0,0.0,0.0,0.0,0.0,2.9009,2.9741,2.9658,2.8534,2.809,2.7474,2.6614,2.5904,2.5052,2.4056,2.3624,2.2879,2.1811,2.1231,2.0423,1.9462,1.9295,1.8821,1.8207,1.8025,1.7599,1.7037,1.6672,1.6083,1.5433,1.5231,1.4732,1.4097,0.0,0.0,0.0,0.0,0.0,0.0,0.0,0.0,0.0,0.0,0.0,0.0,0.0,0.0,0.0,0.0,0.0,0.0,0.0,0.0,0.0,0.0,0.0,2.9192,3.179,3.1206,3.2035,3.4346,3.344,3.211,3.0459,0.0,0.0,0.0,0.0,2.6957,2.6399,2.5573,2.4988,2.4554,2.4148,2.3905,0.0,0.0,0.0,0.0,0.0,0.0,0.0,0.0,0.0,0.0,0.0,0.0,0.0,0.0,1.2044,1.1079,1.0501,1.0676,1.0957,0.0,0.0,0.0,0.0,0.0,0.0,0.0,0.0,0.0,0.0,0.0,0.0,0.0,0.0,0.0,0.0,0.0,0.0,0.0,0.0,0.0,0.0,0.0,0.0,0.0,0.0,0.0,0.0,2.879,2.854,2.7689,2.6695,2.5957,2.5578,2.4663,2.3733,2.2832,2.2801,2.2185,2.1082,2.0257,1.9405,1.8549,1.8198,1.776,1.7229,1.7047,1.6595,1.5932,1.5424,1.496,1.4525,1.4376,1.3946,1.3484,0.0,0.0,0.0,0.0,0.0,0.0,0.0,0.0,0.0,0.0,0.0,0.0,0.0,0.0,0.0,0.0,0.0,0.0,0.0,0.0,0.0,0.0,0.0,2.6383,3.117,2.8736,2.9302,3.3103,3.1671,3.0515,2.9717,2.873,0.0,0.0,0.0,2.6596,2.4954,2.4954,2.3407,2.1077,2.1551,2.1368,2.0836,0.0,0.0,0.0,0.0,0.0,0.0,0.0,1.7135,0.0,0.0,0.0,0.0,0.0,1.1452,1.1771,1.1239,1.1431,1.1783,0.0,0.0,0.0,0.0,0.0,0.0,0.0,0.0,0.0,0.0,0.0,0.0,0.0,0.0,0.0,0.0,0.0,0.0,0.0,0.0,0.0,0.0,0.0,0.0,0.0,0.0,0.0,0.0,2.8677,2.764,2.7548,2.6844,2.5883,2.4694,2.4091,2.3113,2.1756,2.084,2.0348,2.0246,1.9163,1.8549,1.8266,1.7801,1.7146,1.6479,1.6466,1.5844,1.4858,1.4362,1.4025,1.3768,1.3779,1.3389,1.2812,0.0,0.0,0.0,0.0,0.0,0.0,0.0,0.0,0.0,0.0,0.0,0.0,0.0,0.0,0.0,0.0,0.0,0.0,0.0,0.0,0.0,0.0,0.0,0.0,0.0,0.0,1.8233,2.687,2.6732,2.6092,0.0,0.0,0.0,2.4101,0.0,0.0,0.0,0.0,1.8481,1.6462,1.6636,1.6755,1.6853,0.0,0.0,0.0,0.0,0.0,0.0,0.0,0.0,0.0,0.0,0.0,0.0,1.1663,1.1052,1.0586,1.0431,1.0572,0.0,0.0,0.0,0.0,0.0,0.0,0.0,0.0,0.0,0.0,0.0,0.0,0.0,0.0,0.0,0.0,0.0,0.0,0.0,0.0,0.0,0.0,0.0,0.0,0.0,0.0,0.0,0.0,0.0,2.5984,2.5532,2.4659,2.4115,2.3787,2.3633,2.2466,2.1456,2.0585,1.9092,1.867,1.9208,1.8444,1.7612,1.6744,1.6617,1.6256,1.5768,1.5389,1.4835,1.4258,1.4014,1.3637,1.3256,1.315,1.2959,1.2688,0.0,0.0,0.0,0.0,0.0,0.0,0.0,0.0,0.0,0.0,0.0,0.0,0.0,0.0,0.0,0.0,0.0,0.0,0.0,0.0,0.0,0.0,0.0,0.0,0.0,0.4507,0.7075,0.0,0.0,0.0,0.0,0.0,0.0,1.608,0.0,1.3257,0.0,0.0,0.7531,0.5975,0.6185,0.6216,0.6129,0.0,0.0,0.0,0.0,0.0,0.0,0.0,0.0,0.0,0.0,0.0,0.0,1.1598,1.1439,1.132,1.159,0.0,0.0,0.0,0.0,0.0,0.0,0.0,0.0,0.0,0.0,0.0,0.0,0.0,0.0,0.0,0.0,0.0,0.0,0.0,0.0,0.0,0.0,0.0,0.0,0.0,0.0,0.0,0.0,0.0,0.0,2.4628,2.4078,2.3355,2.2897,2.2396,2.1917,2.0859,1.9865,1.8943,1.7693,1.7115,1.7174,1.6961,1.6549,1.6071,1.572,1.5287,1.4858,1.434,1.3909,1.3589,1.3304,1.2977,1.2657,1.2721,1.2594,1.2364,0.0,0.0,0.0,0.0,0.0,0.0,0.0,0.0,0.0,0.0,0.0,0.0,0.0,0.0,0.0,0.0,0.0,0.0,0.0,0.0,0.0,0.0,0.0,0.0,0.0,0.0,0.0,0.0,0.0,0.0,0.0,0.0,0.9721,0.5182,0.0,0.1274,0.0,-0.5389,-0.618,-0.7507,-0.6987,-0.7234,-0.7893,-0.7552,0.0,0.0,0.0,0.0,0.0,0.0,0.0,0.0,0.0,0.0,1.0952,1.1295,1.2102,1.3061,1.3672,0.0,0.0,0.0,0.0,0.0,0.0,0.0,0.0,0.0,0.0,0.0,0.0,0.0,0.0,0.0,0.0,0.0,0.0,0.0,0.0,0.0,0.0,0.0,0.0,0.0,0.0,0.0,0.0,0.0,0.0,2.3875,2.2908,2.2878,2.2446,2.1472,1.9902,1.9245,1.8312,1.7087,1.652,1.5676,1.4612,1.5142,1.5623,1.5896,1.5005,1.434,1.3826,1.3351,1.3064,1.2871,1.2461,1.2252,1.2227,1.2534,1.2437,1.2085,0.0,0.0,0.0,0.0,0.0,0.0,0.0,0.0,0.0,0.0,0.0,0.0,0.0,0.0,0.0,0.0,0.0,0.0,0.0,0.0,0.0,0.0,0.0,0.0,0.0,0.0,0.0,0.0,0.0,0.0,0.0,0.0,0.0,-0.4769,0.0,-0.5854,-0.9179,-0.8275,-0.9354,-1.1562,-1.073,-1.0439,-1.0501,-1.0581,-1.0391,0.0,0.0,0.0,0.0,0.0,0.0,0.0,0.51,0.799,1.0181,0.9879,1.0915,1.2311,0.0,1.283,0.0,0.0,0.0,0.0,0.0,0.0,0.0,0.0,0.0,0.0,0.0,0.0,0.0,0.0,0.0,0.0,0.0,0.0,0.0,0.0,0.0,0.0,0.0,0.0,0.0,0.0,0.0,0.0,2.125,2.0988,2.0718,2.044,1.9839,1.9494,1.9569,1.8358,1.7254,0.0,1.5569,1.4784,1.3851,1.4957,1.5208,1.472,1.4118,1.3542,1.3054,1.2909,1.2638,1.2264,1.2175,1.2319,1.2553,1.2489,1.2806,1.3166,0.0,0.0,0.0,0.0,0.0,0.0,0.0,0.0,0.0,0.0,0.0,0.0,0.0,0.0,0.0,0.0,0.0,0.0,0.0,0.0,0.0,0.0,0.0,0.0,0.0,0.0,0.0,0.0,0.0,0.0,0.0,0.0,0.0,-1.5382,0.0,-1.6578,-2.0382,-1.9445,-1.9653,-2.0565,-2.0083,-1.9848,-1.9768,-1.9684,-1.9453,-1.9238,-1.974,0.0,0.0,0.0,0.0,0.0,0.0,0.0,0.5027,0.7355,0.9248,1.0793,0.0,0.0,0.0,0.0,0.0,0.0,0.0,0.0,0.0,0.0,0.0,0.0,0.0,0.0,0.0,0.0,0.0,0.0,0.0,0.0,0.0,0.0,0.0,0.0,0.0,0.0,0.0,0.0,0.0,2.1262,2.0002,1.9623,1.9083,1.8272,1.7898,1.7465,1.6983,1.6611,1.5865,1.4881,1.4891,1.4385,1.354,1.428,1.4249,1.3637,1.3362,1.2929,1.2442,1.2442,1.2304,1.2076,1.2076,1.2365,1.269,1.268,1.2896,1.3188,0.0,0.0,0.0,0.0,0.0,0.0,0.0,0.0,0.0,0.0,0.0,0.0,0.0,0.0,0.0,0.0,0.0,0.0,0.0,0.0,0.0,0.0,0.0,0.0,0.0,0.0,0.0,0.0,0.0,0.0,0.0,0.0,0.0,-2.4742,0.0,0.0,-3.0943,-3.0206,-2.9481,-2.8847,-2.8767,-2.8725,-2.8648,-2.8173,-2.7979,-2.7954,-2.7651,-2.4649,-2.0699,-1.9752,0.0,0.0,0.0,0.0,-0.1817,0.2572,0.5574,0.7925,0.0,0.0,0.0,0.0,0.0,0.0,0.0,0.0,0.0,0.0,0.0,0.0,0.0,0.0,0.0,0.0,0.0,0.0,0.0,0.0,0.0,0.0,0.0,0.0,0.0,0.0,0.0,0.0,0.0,2.063,1.9458,1.8413,1.7433,1.6486,1.6252,1.5538,1.435,1.4974,1.4792,1.3818,1.4248,1.4053,1.3263,1.3234,1.3016,1.2667,1.257,1.2344,1.1977,1.2076,1.2076,1.2076,1.2076,1.2314,1.2709,1.2851,1.2875,1.2888,0.0,0.0,0.0,0.0,0.0,0.0,0.0,0.0,0.0,0.0,0.0,0.0,0.0,0.0,0.0,0.0,0.0,0.0,-1.7668,0.0,0.0,-2.1796,-2.2529,0.0,0.0,0.0,0.0,0.0,0.0,0.0,0.0,0.0,0.0,-2.9465,0.0,0.0,0.0,-2.8558,-2.8247,-2.8276,-2.7808,-2.7571,-2.7444,-2.6625,-2.6516,-2.6736,-2.6544,-2.6021,-2.4874,-2.1224,-1.877,0.0,0.0,0.0,-0.8159,-0.772,-0.313,0.189,0.0,0.0,0.0,0.0,0.0,0.0,0.0,0.0,0.0,0.0,0.0,0.0,0.0,0.0,0.0,0.0,0.0,0.0,0.0,0.0,0.0,0.0,0.0,0.0,0.0,0.0,0.0,0.0,1.767,1.5813,1.6757,1.5611,1.5139,1.5486,1.4427,1.4013,1.4359,1.4974,1.4792,1.3809,1.3247,1.2921,1.2757,1.1948,1.1801,1.2061,1.1701,1.1469,1.1427,1.1927,1.2076,1.2076,1.1977,1.2163,1.2552,1.2634,1.2884,1.3185,0.0,0.0,0.0,0.0,0.0,0.0,0.0,0.0,0.0,0.0,0.0,0.0,0.0,0.0,0.0,-1.6768,-1.7346,-1.8036,-1.8881,-2.0459,-2.1566,-2.2101,-2.2725,-2.3207,0.0,0.0,0.0,0.0,0.0,0.0,0.0,-2.9267,-2.9898,0.0,0.0,0.0,0.0,0.0,-2.694,-2.6999,-2.6783,-2.6521,-2.6253,-2.5387,-2.5013,-2.4894,-2.4328,-2.4349,-2.4394,-2.2568,-2.1806,-2.0947,-1.713,0.0,0.0,0.0,-0.8653,0.0,-0.0445,0.0,0.0,0.0,0.0,0.0,0.0,0.0,0.0,0.0,0.0,0.0,0.0,0.0,0.0,0.0,0.0,0.0,0.0,0.0,0.0,0.0,0.0,0.0,0.0,0.0,0.0,0.0,1.7046,1.6616,1.6291,1.5061,1.4346,1.4218,1.333,1.2793,1.2663,1.333,1.3277,1.2698,1.2333,1.1968,1.1601,1.092,1.0939,1.1592,1.104,1.0998,1.1326,1.1569,1.1778,1.1977,1.1927,1.2121,1.2395,1.2289,1.2541,1.2898,0.0,0.0,0.0,0.0,0.0,0.0,0.0,0.0,0.0,0.0,0.0,0.0,0.0,0.0,0.0,0.0,-1.8588,-1.9104,-2.0264,-2.1608,-2.2372,-2.2433,-2.2884,-2.3365,-2.3956,0.0,0.0,0.0,0.0,0.0,-2.778,-2.778,-2.8512,0.0,-2.8354,0.0,0.0,0.0,0.0,0.0,0.0,-2.5309,0.0,-2.3849,-2.3299,-2.2952,-2.202,-2.203,-2.244,-2.244,-2.2784,-2.2794,-2.0157,-1.8992,0.0,0.0,0.0,0.0,0.0,0.0,0.0,0.0,0.0,0.0,0.0,0.0,0.0,0.0,0.0,0.0,0.0,0.0,0.0,0.0,0.0,0.0,0.0,0.0,0.0,0.0,0.0,0.0,0.0,0.0,0.0,0.0,1.7312,1.7686,1.6358,1.5235,1.4278,1.3631,1.2976,1.2266,1.149,1.2151,1.2341,1.2022,1.186,1.1447,1.0804,1.0072,1.0131,1.0753,1.0277,1.0431,1.0956,1.1116,1.1418,1.1828,1.1819,1.1915,1.2087,1.1974,1.2066,1.2197,0.0,0.0,0.0,0.0,0.0,0.0,0.0,0.0,0.0,0.0,0.0,0.0,0.0,-1.7655,-1.7875,-1.8471,-1.9462,-2.0779,-2.2324,-2.2811,-2.3138,-2.333,-2.3198,0.0,-2.3628,-2.4073,0.0,0.0,0.0,0.0,-2.7452,-2.7452,-2.766,-2.7984,-2.6672,-2.6109,-2.6036,0.0,0.0,0.0,0.0,0.0,0.0,0.0,0.0,0.0,0.0,-1.9763,-1.9788,-1.9788,-2.0064,-2.0381,-2.0202,-2.1083,-2.2329,0.0,0.0,0.0,0.0,0.0,0.0,0.0,0.0,0.0,0.0,0.0,0.0,0.0,0.0,0.0,0.0,0.0,0.0,0.0,0.0,0.0,0.0,0.0,0.0,0.0,0.0,0.0,0.0,0.0,0.0,0.0,1.8193,1.6968,1.6301,1.5641,1.4934,1.4168,1.3511,1.2801,1.1981,1.2642,1.2882,1.2721,1.2219,1.156,1.0753,0.9725,0.9263,0.9316,0.9256,0.9562,1.0123,1.0643,1.1158,1.1728,1.1569,1.1536,1.1547,1.1756,1.1522,1.115,0.0,0.0,0.0,0.0,0.0,0.0,0.0,0.0,0.0,0.0,0.0,0.0,0.0,-1.875,-1.9174,-1.985,-2.0853,-2.1784,-2.2687,-2.3132,-2.3437,-2.3509,-2.345,-2.3509,-2.3628,-2.3734,0.0,0.0,0.0,-2.5851,-2.6592,-2.6989,-2.7196,-2.7261,-2.6389,-2.6045,-2.5973,-2.4733,0.0,0.0,0.0,0.0,0.0,0.0,0.0,0.0,0.0,0.0,0.0,-1.7822,-1.7823,-1.807,-1.8622,-1.8994,-1.96,0.0,0.0,0.0,0.0,0.0,0.0,0.0,0.0,0.0,0.0,0.0,0.0,0.0,0.0,0.0,0.0,0.0,0.0,0.0,0.0,0.0,0.0,0.0,0.0,0.0,0.0,0.0,0.0,0.0,0.0,0.0,0.0,1.728,1.7106,1.5263,1.4355,1.4464,1.3588,1.2879,1.2528,1.2862,1.2431,1.1367,1.1359,1.0723,0.9503,0.9093,0.8935,0.8935,0.8935,0.9347,1.0064,1.0651,1.1116,1.1578,1.1528,1.1427,1.1335,1.1011,1.0793,1.0653,0.0,0.0,0.0,0.0,0.0,0.0,0.0,0.0,0.0,0.0,0.0,0.0,0.0,0.0,-2.022,-2.1262,-2.1836,-2.2369,-2.3141,-2.3423,-2.3628,-2.3688,-2.3628,-2.3628,-2.3747,-2.391,0.0,0.0,0.0,0.0,0.0,-2.6272,-2.6438,-2.6402,-2.5741,-2.5631,0.0,0.0,0.0,-2.4098,0.0,0.0,-2.2684,0.0,0.0,0.0,0.0,0.0,0.0,0.0,0.0,0.0,0.0,0.0,0.0,0.0,0.0,0.0,-1.6821,0.0,0.0,0.0,0.0,0.0,0.0,0.0,0.0,0.0,0.0,0.0,0.0,0.0,0.0,0.0,0.0,0.0,0.0,0.0,0.0,0.0,0.0,0.0,0.0,0.0,0.0,0.0,0.0,0.0,1.8002,1.6361,1.5244,1.4904,1.3906,1.326,1.3017,1.3033,1.2315,1.0929,1.0966,1.0295,0.9093,0.9093,0.9093,0.9093,0.9249,0.9658,1.0182,1.0557,1.1023,1.1418,1.1418,1.1267,1.0964,1.0557,1.019,0.9873,0.0,0.0,0.0,0.0,0.0,0.0,0.0,0.0,0.0,0.0,0.0,0.0,0.0,0.0,0.0,-2.2484,-2.2359,-2.2674,-2.3813,-2.376,-2.3688,-2.3891,-2.3688,-2.3747,-2.4054,-2.4465,0.0,0.0,0.0,0.0,0.0,0.0,-2.5338,-2.5274,-2.4633,-2.4791,-2.5401,0.0,-2.3598,-2.4233,0.0,-2.2566,-2.2882,0.0,0.0,0.0,-1.7275,-1.6332,0.0,-1.505,0.0,0.0,0.0,0.0,0.0,0.0,0.0,0.0,0.0,0.0,0.0,0.0,0.0,0.0,0.0,0.0,0.0,0.0,0.0,0.0,0.0,0.0,0.0,0.0,0.0,0.0,0.0,0.0,0.0,0.0,0.0,0.0,0.0,0.0,0.0,0.0,2.1733,2.0301,1.8953,1.8839,1.7739,1.5478,1.4597,1.4001,1.3511,1.3168,1.2571,1.1624,1.1216,1.0539,0.9643,0.9629,0.9629,0.9681,1.019,1.0403,1.0454,1.0454,1.0761,1.1267,1.1267,1.0913,1.0352,1.0352,0.9718,0.8876,0.0,0.0,0.0,0.0,0.0,0.0,0.0,0.0,0.0,0.0,0.0,0.0,0.0,0.0,-2.2445,-2.3336,-2.3334,-2.3527,-2.415,-2.4131,-2.4086,-2.4067,-2.3543,-2.328,-2.3339,-2.3505,0.0,0.0,0.0,0.0,0.0,0.0,0.0,0.0,-2.39,-2.3581,-2.3712,-2.3914,0.0,0.0,-2.2839,-2.2119,0.0,0.0,0.0,0.0,0.0,-1.506,-1.4153,0.0,-1.3598,-1.3573,0.0,0.0,0.0,0.0,0.0,0.0,-1.7562,0.0,0.0,0.0,0.0,0.0,0.0,0.0,0.0,0.0,0.0,0.0,0.0,0.0,0.0,0.0,0.0,0.0,0.0,0.0,0.0,0.0,0.0,0.0,0.0,0.0,0.0,0.0,2.1033,1.9893,1.9213,1.7524,1.611,1.5069,1.4478,1.413,1.4001,1.3596,1.2873,1.1977,1.1872,1.13,1.0405,1.0169,1.0226,1.0592,1.0454,1.0659,1.1065,1.1065,1.0913,1.0659,1.0659,1.0293,0.9769,0.9406,0.9302,0.9406,0.0,0.0,0.0,0.0,0.0,0.0,0.0,0.0,0.0,0.0,0.0,0.0,0.0,0.0,0.0,-2.374,-2.3752,-2.3811,-2.4092,-2.4073,-2.3956,-2.3688,-2.3305,-2.31,-2.31,-2.2967,-2.2907,0.0,0.0,0.0,0.0,0.0,0.0,0.0,0.0,0.0,0.0,0.0,0.0,0.0,-2.3159,0.0,0.0,-1.9515,-1.8076,0.0,0.0,0.0,-1.4045,-1.3308,-1.2991,0.0,0.0,0.0,0.0,0.0,0.0,0.0,0.0,0.0,0.0,0.0,0.0,0.0,-1.1253,-0.6204,-0.0271,0.0,0.0,0.0,0.0,0.0,0.0,0.0,0.0,0.0,0.0,0.0,0.0,0.0,0.0,0.0,0.0,2.467,2.3995,2.3125,2.1776,2.0499,1.9559,1.744,1.5909,1.5254,1.4775,1.4428,1.4189,1.3604,1.2873,1.2113,1.22,1.1792,1.1076,1.095,1.1016,1.1321,1.0916,1.0812,1.0913,1.0913,1.071,1.0403,1.0138,0.988,0.9562,0.8988,0.9138,0.9629,0.0,0.0,0.0,0.0,0.0,0.0,0.0,0.0,0.0,0.0,0.0,0.0,0.0,0.0,0.0,0.0,-2.3861,-2.3834,-2.393,-2.3852,-2.3616,-2.3198,-2.3078,-2.3005,-2.3005,-2.2677,-2.2531,0.0,0.0,0.0,0.0,0.0,0.0,0.0,0.0,0.0,0.0,0.0,0.0,-2.3371,-2.3379,-2.3027,0.0,0.0,-1.8569,-1.7397,-1.6158,-1.5279,-1.4515,-1.3283,-1.261,0.0,0.0,0.0,0.0,0.0,-1.3142,0.0,0.0,0.0,0.0,0.0,0.0,0.0,-1.0405,-0.8137,-0.5532,-0.0026,0.0,0.0,0.0,0.0,0.0,0.0,0.0,0.0,0.0,0.0,0.0,0.0,0.0,0.0,2.5522,2.4187,2.3618,2.4047,2.2905,2.1439,1.9757,1.7954,1.6624,1.5878,1.5274,1.4775,1.4369,1.3556,1.2848,1.2346,1.2436,1.2276,1.1785,1.1856,1.1831,1.1771,1.1388,1.0913,1.0403,1.0241,1.0241,1.019,0.9769,0.9584,0.9508,0.9088,0.9341,0.9917,-1.5147,0.0,0.0,0.0,0.0,0.0,0.0,0.0,0.0,0.0,0.0,0.0,0.0,0.0,0.0,0.0,-2.4502,-2.4714,-2.4593,-2.4247,-2.3956,-2.3675,-2.2798,-2.2298,-2.2298,-2.2237,-2.2224,-2.2224,0.0,0.0,0.0,0.0,0.0,0.0,0.0,0.0,0.0,0.0,0.0,-2.1886,-2.2291,0.0,-2.0872,-1.8916,-1.7386,-1.6158,-1.5352,-1.4181,-1.2841,-1.2134,-1.1598,-1.1404,0.0,0.0,0.0,0.0,0.0,0.0,0.0,0.0,0.0,0.0,0.0,0.0,-1.1504,-1.1062,-0.9583,0.0,0.0,0.0,0.0,0.0,0.0,0.0,0.0,0.0,0.0,0.0,0.0,0.0,0.0,0.0,2.4058,2.3521,2.3072,2.2592,2.1473,2.0166,1.8754,1.7603,1.6946,1.6734,1.5968,1.5498,1.5381,1.4473,1.3895,1.3767,1.345,1.3084,1.2736,1.2402,1.2124,1.1771,1.0916,1.0506,1.0352,0.9458,0.9086,0.9145,0.9458,0.9503,0.9405,0.9778,1.065,1.1605,-1.5584,0.0,0.0,0.0,0.0,0.0,0.0,0.0,0.0,0.0,0.0,0.0,0.0,0.0,0.0,0.0,0.0,0.0,0.0,0.0,-2.3365,-2.303,-2.2457,-2.2149,-2.2149,-2.2013,-2.1877,-2.1877,0.0,0.0,0.0,0.0,0.0,0.0,0.0,0.0,0.0,0.0,-2.2574,-2.2446,-2.2313,0.0,-1.9994,-1.8019,-1.6702,-1.5816,-1.5001,-1.3857,-1.2617,-1.1912,-1.1591,0.0,0.0,-1.1654,-1.2158,0.0,-1.1397,-1.162,0.0,0.0,0.0,-1.0616,0.0,0.0,0.0,-0.9905,-0.9018,-0.6849,-0.5516,-0.3026,0.0,0.0,0.0,0.0,0.0,0.0,0.0,0.0,0.0,0.0,0.0,0.0,2.2542,2.1992,2.1495,2.1101,2.0556,1.9879,1.8956,1.7925,1.7224,1.6987,1.6135,1.5672,1.5672,1.4961,1.4428,1.4189,1.3941,1.3665,1.3228,1.2851,1.2586,1.2334,1.1339,1.0748,1.0431,0.9549,0.9218,0.9254,0.9058,0.9302,0.9797,1.0116,1.1241,1.2489,-1.6036,0.0,0.0,0.0,0.0,0.0,0.0,0.0,0.0,0.0,0.0,0.0,0.0,0.0,0.0,0.0,0.0,0.0,0.0,0.0,0.0,-2.2371,-2.2259,-2.2197,-2.2197,-2.1788,-2.1588,-2.1588,0.0,0.0,0.0,0.0,0.0,0.0,0.0,0.0,0.0,0.0,0.0,-2.2549,0.0,-2.0867,-1.9506,-1.7391,-1.6372,-1.5816,-1.4606,-1.3523,-1.2503,-1.1811,-1.1667,-1.1587,-1.0654,-1.0918,0.0,0.0,0.0,0.0,0.0,0.0,0.0,0.0,0.0,-0.9143,0.0,0.0,0.0,-0.6683,-0.5337,0.0,0.0,0.0,0.0,0.0,0.0,0.0,0.0,0.0,0.0,0.0,0.0,0.0,2.125,2.0677,2.0291,2.0291,2.042,2.0242,1.978,1.8685,1.7909,1.7529,1.6516,1.6009,1.6009,1.5245,1.4715,1.4309,1.4121,1.3846,1.3399,1.3108,1.2879,1.2604,1.1591,1.088,1.0265,0.969,0.9411,0.9381,0.8934,0.954,1.0707,1.0842,1.2001,1.3382,-1.5788,-1.6606,0.0,0.0,0.0,0.0,0.0,0.0,0.0,0.0,0.0,0.0,0.0,0.0,0.0,0.0,0.0,0.0,-2.2917,0.0,0.0,0.0,-2.2432,-2.2197,-2.2197,-2.1526,-2.1187,-2.1187,0.0,0.0,0.0,0.0,0.0,0.0,-1.9377,0.0,0.0,0.0,-2.0106,0.0,-1.9295,-1.9474,0.0,-1.7553,-1.6509,-1.5816,-1.3855,-1.2367,-1.1297,0.0,-1.1074,-1.1215,0.0,-1.0695,-1.0363,-1.0426,0.0,0.0,0.0,0.0,0.0,0.0,-0.9199,0.0,0.0,0.0,-0.6976,-0.5988,0.0,0.0,0.0,0.0,0.0,0.0,0.0,0.0,0.0,0.0,0.0,0.0,0.0,0.0,0.0,2.0794,2.0996,2.0996,2.1553,2.1581,2.0917,1.9954,1.9349,1.9292,1.7853,1.7034,1.7034,1.5623,1.4893,1.4834,1.3992,1.3408,1.304,1.2997,1.2488,1.1519,1.0722,0.9983,0.9321,0.9045,0.8712,0.8577,0.9868,1.1173,1.249,1.2987,1.3895,1.4923,-1.5856,-1.6467,0.0,0.0,0.0,0.0,0.0,0.0,0.0,0.0,0.0,0.0,0.0,0.0,0.0,0.0,0.0,-2.3638,0.0,0.0,0.0,0.0,0.0,0.0,-2.1526,-2.088,-2.0658,0.0,-2.0815,0.0,0.0,0.0,0.0,0.0,-1.8501,0.0,-1.8401,0.0,-1.9981,0.0,0.0,0.0,0.0,-1.6967,-1.5652,-1.4706,-1.3139,-1.2428,-1.2087,0.0,-1.1632,0.0,0.0,0.0,0.0,0.0,0.0,0.0,0.0,0.0,0.0,0.0,0.0,0.0,-0.7517,0.0,-0.6286,0.0,0.0,0.0,0.0,0.0,0.0,0.0,0.6085,0.0,0.0,0.0,0.0,0.0,0.0,0.0,0.0,0.0,0.0,0.0,2.059,2.0985,2.106,2.0435,2.0044,2.0044,1.8538,1.7742,1.7742,1.6178,1.5196,1.4893,1.424,1.3673,1.3288,1.3288,1.283,1.1992,1.1125,1.0406,0.9914,0.9666,0.9764,1.0279,1.1309,1.1843,1.2212,1.3251,1.4287,1.5197,-1.6029,0.0,0.0,0.0,0.0,0.0,0.0,0.0,0.0,0.0,0.0,0.0,-2.2713,-2.257,0.0,0.0,-2.3256,-2.3065,0.0,0.0,-2.2116,0.0,0.0,0.0,0.0,0.0,-2.002,0.0,0.0,0.0,0.0,0.0,0.0,0.0,0.0,-1.7516,-1.7348,0.0,-1.9408,-1.982,-1.8697,-1.7952,-1.7429,-1.6035,-1.4706,-1.345,-1.2658,-1.2488,-1.2617,-1.1985,-1.2005,0.0,-1.0833,0.0,0.0,0.0,0.0,0.0,-0.9103,0.0,0.0,0.0,0.0,0.0,0.0,0.0,0.0,0.0,0.0,0.0,0.0,0.0,0.0,0.0,0.0,0.6659,0.0,0.0,0.0,0.0,0.0,0.0,0.0,0.0,0.0,1.9497,1.99,2.0467,2.106,2.0641,2.0366,2.0366,1.8851,1.806,1.806,1.6338,1.5313,1.4893,1.43,1.3821,1.3511,1.339,1.2956,1.212,1.13,1.0573,0.997,0.9851,1.0194,1.0891,1.1882,1.1997,1.1743,1.337,1.4497,1.5146,-1.6374,-1.6694,0.0,0.0,0.0,0.0,0.0,0.0,0.0,0.0,0.0,0.0,0.0,0.0,0.0,0.0,0.0,-2.1333,-2.0799,0.0,-2.1616,0.0,0.0,-2.0551,0.0,0.0,0.0,0.0,0.0,0.0,0.0,0.0,0.0,0.0,0.0,-1.7711,-1.8566,-1.7945,-1.7698,-1.7637,-1.6882,-1.5629,-1.4212,0.0,-1.3957,-1.2573,-1.2512,0.0,0.0,-1.1848,-1.1655,0.0,0.0,0.0,0.0,0.0,0.0,0.0,0.0,0.0,0.0,-0.7347,0.0,0.0,0.0,0.0,-0.6002,0.0,0.0,0.0,0.0,0.0,0.0,0.0,0.0,0.0,0.0,0.0,0.0,0.0,0.0,0.0,0.0,0.0,1.9009,1.9998,2.029,2.0607,2.1101,2.0591,2.0316,2.0316,1.8733,1.7933,1.7933,1.5909,1.4893,1.4893,1.3992,1.3502,1.3511,1.3155,1.2413,1.1315,1.0702,0.9736,0.8701,0.902,0.9075,0.9144,1.1003,1.145,1.139,1.3794,1.4906,1.5078,0.0,0.0,0.0,0.0,0.0,0.0,0.0,-2.0949,0.0,0.0,0.0,0.0,0.0,-2.3425,-2.3502,0.0,0.0,-2.2731,-2.0246,-2.1134,0.0,0.0,0.0,-1.9757,0.0,0.0,0.0,0.0,0.0,0.0,0.0,0.0,0.0,0.0,0.0,-1.6668,0.0,0.0,0.0,0.0,0.0,-1.5205,-1.397,0.0,0.0,-1.2451,-1.2035,-1.2089,0.0,-1.1681,-1.1663,-1.164,-1.0683,-1.0109,-0.9737,-0.9301,-0.8732,0.0,0.0,0.0,-0.7266,-0.7543,0.0,0.0,0.0,0.0,0.0,0.0,0.0,0.0,0.0,0.0,0.0,0.0,0.0,0.0,0.0,0.0,0.0,0.0,0.0,0.0,0.0,0.0,0.0,1.8472,1.8689,1.9326,2.0595,2.0458,2.0527,2.0797,1.9594,1.8731,1.8403,1.6136,1.4916,1.4588,1.339,1.285,1.285,1.2405,1.1779,1.094,1.0214,0.947,0.8874,0.9278,0.9566,0.9944,1.0993,1.1432,1.1531,1.31,1.36,1.3431,-1.6249,0.0,0.0,0.0,0.0,0.0,0.0,0.0,0.0,0.0,-2.2243,0.0,-2.2673,0.0,-2.3431,0.0,-2.3437,-2.302,-2.0003,-1.975,0.0,-2.1894,-2.0235,0.0,0.0,0.0,0.0,0.0,0.0,-1.7784,0.0,0.0,0.0,0.0,0.0,-1.5847,-1.5807,0.0,-1.6156,0.0,0.0,-1.4396,0.0,0.0,-1.2375,-1.2451,0.0,-1.1776,-1.1969,-1.1485,-1.1307,-1.1111,-1.0218,-0.9734,-0.9538,-0.9104,-0.8851,-0.865,-0.8576,-0.7888,0.0,-0.7491,-0.7257,0.0,-0.7689,0.0,0.0,0.0,0.0,0.0,0.0,0.0,0.0,0.0,0.0,0.0,0.0,0.5974,0.0,0.0,0.0,0.0,0.0,0.0,1.6124,1.736,1.7554,1.8093,0.0,0.0,1.9896,2.0344,1.9499,1.8773,1.8301,1.6179,1.4854,1.4401,1.3086,1.2482,1.2482,1.1911,1.1281,1.0634,0.9831,0.9241,0.8818,0.9092,0.943,0.9837,1.0521,1.0703,1.08,1.221,1.241,1.1854,0.0,0.0,0.0,0.0,-1.8698,0.0,0.0,0.0,-2.0732,0.0,-2.1272,-2.1439,-2.1848,-2.1888,-2.2151,-2.2904,-2.2821,-2.1855,-1.9747,-1.7813,0.0,0.0,-2.0092,-1.8634,-1.7327,0.0,0.0,0.0,0.0,0.0,0.0,0.0,0.0,0.0,-1.5269,0.0,-1.4976,-1.5504,-1.5682,-1.5545,-1.4226,-1.3222,-1.2511,-1.2116,-1.2172,-1.2436,-1.1784,-1.1479,-1.123,-1.123,-1.0605,-0.9922,-0.9841,-0.9311,-0.8627,-0.8627,-0.8623,-0.858,-0.8393,-0.8032,-0.7584,-0.7261,0.0,0.0,0.0,0.0,-0.6163,0.0,0.0,0.0,0.0,0.0,0.0,0.0,0.0,0.0,0.0,0.0,0.0,0.0,0.0,0.0,0.0,1.4445,1.5255,1.6618,1.6703,1.6967,0.0,0.0,1.8509,1.9065,1.864,1.8132,1.7481,1.5909,1.4812,1.4145,1.3017,1.2482,1.2421,1.1615,1.0975,1.0458,0.9582,0.8958,0.8517,0.8517,0.8641,0.8835,0.9524,0.946,0.9239,1.1245,1.1362,1.0514,-1.6921,-1.7561,-1.8144,0.0,-1.9655,-2.0653,0.0,0.0,0.0,0.0,-2.1136,-2.0682,-2.0778,-2.0523,-2.0463,-2.0616,-1.908,0.0,0.0,0.0,0.0,-1.9776,-1.9454,-1.8516,-1.6906,-1.733,0.0,-1.7085,0.0,0.0,-1.5443,0.0,0.0,0.0,0.0,0.0,-1.5133,-1.4949,-1.4783,-1.4442,-1.3677,-1.3577,0.0,0.0,-1.184,-1.2285,-1.1584,-1.1149,-1.0682,-1.011,-0.9889,-0.9771,-0.916,-0.8546,-0.8012,-0.8012,-0.7706,-0.7314,-0.7271,-0.6831,-0.6468,-0.6885,-0.6524,-0.6247,0.0,0.0,0.0,0.0,0.0,0.0,0.0,0.0,0.0,0.0,0.0,0.0,0.0,0.0,0.0,0.6752,0.0,0.0,1.1441,1.2773,1.3834,1.4525,1.5061,0.0,0.0,0.0,0.0,1.8462,1.8362,1.7921,1.7139,1.5869,1.4648,1.3502,1.2351,1.1809,1.1809,1.0787,1.0275,1.0078,0.9145,0.8641,0.8517,0.8517,0.8641,0.8835,0.8958,0.9022,0.9045,0.9688,0.9716,0.9455,-1.7466,0.0,0.0,-1.9879,0.0,0.0,-2.1155,0.0,0.0,-2.1818,-2.1108,0.0,-2.0176,-1.9703,-1.9264,-1.8839,-1.7597,0.0,-1.6393,0.0,0.0,-1.8176,-1.7588,-1.6936,-1.6158,-1.6528,0.0,-1.5964,0.0,0.0,-1.4522,0.0,0.0,0.0,0.0,-1.4096,-1.4112,-1.3945,-1.3885,-1.3813,-1.306,0.0,0.0,-1.2019,-1.1457,-1.1248,-1.1037,-1.0539,-0.9991,-0.9561,-0.9421,-0.9236,-0.8546,-0.8089,-0.7783,-0.7476,-0.7169,-0.6865,-0.6865,-0.6402,-0.6015,-0.6402,-0.6018,-0.5709,-0.6325,-0.622,-0.5953,0.0,0.0,0.0,0.0,0.0,0.0,0.0,0.0,0.0,0.0,0.0,0.0,0.0,0.6757,0.0,0.8903,1.0893,1.2416,1.3357,1.3827,0.0,0.0,0.0,0.0,1.7404,1.7706,1.7435,1.6563,1.5514,1.423,1.2826,1.1794,1.1115,1.0856,1.0091,0.9709,0.9646,0.8829,0.8517,0.8517,0.8517,0.8582,0.8641,0.8641,0.8705,0.8781,0.8854,0.8904,0.897,-1.7905,0.0,0.0,0.0,0.0,0.0,0.0,-2.0933,0.0,-2.1335,0.0,-2.0058,-1.9539,-1.8931,-1.825,-1.7434,0.0,-1.7086,-1.6362,-1.5162,-1.5115,-1.6542,-1.5283,-1.4882,-1.5403,-1.5469,-1.5143,0.0,0.0,0.0,0.0,0.0,0.0,0.0,0.0,0.0,0.0,-1.2981,-1.3157,-1.3329,-1.2531,-1.2465,-1.2643,-1.1989,-1.105,-1.0143,-1.0364,-1.0005,-0.939,-0.9317,-0.9001,-0.8546,-0.8012,-0.7706,-0.7476,-0.6938,-0.6788,-0.671,-0.671,-0.6325,-0.5864,-0.586,-0.5401,-0.5171,-0.5631,-0.5483,-0.5325,-0.5808,-0.558,-0.527,0.0,0.0,0.0,0.0,0.0,0.0,0.0,0.0,0.0,0.0,0.0,0.0,0.6853,0.9026,1.0978,1.2368,0.0,0.0,0.0,0.0,0.0,1.6053,1.6636,1.6573,1.5818,0.0,1.3542,1.2212,1.1185,1.0478,0.9958,0.9524,0.9274,0.9274,0.8705,0.8517,0.8517,0.8517,0.8517,0.8517,0.8549,0.8544,0.8517,0.8549,0.8668,0.8705,0.0,0.0,0.0,0.0,0.0,-2.0139,-2.0101,-2.0149,-2.0144,-2.0206,-1.8945,-1.7959,-1.7745,-1.7305,-1.6938,-1.6761,-1.6818,0.0,0.0,0.0,0.0,-1.4924,-1.4706,-1.4862,-1.5284,-1.4615,-1.4462,0.0,0.0,0.0,0.0,0.0,0.0,0.0,0.0,0.0,-1.284,-1.305,0.0,-1.265,-1.2576,-1.2549,-1.2524,-1.1556,-1.1113,-1.0822,-1.0201,-0.9744,-0.9261,-0.8954,-0.8666,-0.8385,-0.7936,-0.7165,-0.6472,-0.6318,-0.6093,-0.5789,-0.5789,-0.5712,-0.5634,-0.5476,-0.5321,-0.5246,-0.5171,-0.511,-0.5048,-0.5204,-0.5206,-0.525,-0.5069,0.0,0.0,0.0,0.0,0.0,0.0,0.0,0.0,0.0,0.0,0.6156,0.0,0.8036,0.0,0.0,0.0,0.0,0.0,0.0,0.0,0.0,1.4633,0.0,0.0,0.0,1.2417,1.1883,1.0712,1.0085,0.9958,0.9524,0.9274,0.9274,0.8705,0.8517,0.8517,0.8517,0.8517,0.8533,0.8727,0.8684,0.8538,0.8732,0.8678,0.8576,0.0,0.0,0.0,0.0,0.0,0.0,0.0,-1.8793,0.0,-1.9643,-1.8773,-1.806,-1.7955,-1.6958,-1.6285,-1.6218,-1.6114,-1.5884,-1.5507,-1.4847,-1.4483,-1.4515,-1.4368,0.0,-1.3947,-1.3714,-1.3596,-1.376,0.0,0.0,0.0,0.0,0.0,0.0,0.0,-1.222,0.0,0.0,0.0,-1.2438,-1.2155,-1.2164,-1.2157,-1.0962,-1.0363,-1.0051,-0.9226,-0.8851,-0.8699,-0.8703,-0.8394,-0.7855,-0.7322,-0.6788,-0.6325,-0.6015,-0.5789,-0.5637,-0.5637,-0.5637,-0.5559,-0.5479,-0.5479,-0.5401,-0.5326,-0.53,-0.5269,-0.5354,-0.5322,-0.5248,-0.5053,-0.3612,0.0,0.0,0.0,0.0,0.0,0.0,0.0,0.0,0.0,0.0,0.0,0.0,0.0,0.0,0.0,0.0,0.0,0.0,0.0,0.0,0.0,0.0,0.0,0.0,0.0,0.9735,0.8902,0.8404,0.8146,0.7892,0.7767,0.7767,0.7517,0.7391,0.7461,0.7905,0.7888,0.7626,0.8544,0.8523,0.8092,0.8551,0.8608,0.8517,0.0,-2.048,0.0,0.0,-1.9531,0.0,-1.8494,-1.7626,-1.7553,-1.9022,-1.8596,-1.8102,-1.801,-1.6827,-1.5941,-1.5874,-1.5584,-1.541,-1.5235,-1.4824,-1.4446,-1.4228,-1.4025,-1.3563,-1.2702,-1.2807,-1.272,0.0,0.0,0.0,0.0,0.0,0.0,0.0,0.0,0.0,0.0,0.0,-1.1614,-1.2101,-1.1592,-1.1436,-1.1409,-1.0293,-0.9609,-0.9074,-0.8466,-0.8084,-0.8008,-0.8318,-0.8016,-0.7326,-0.6791,-0.6563,-0.6328,-0.5789,-0.5715,-0.5715,-0.5715,-0.5715,-0.5715,-0.5715,-0.5637,-0.5637,-0.5401,-0.5323,-0.5234,-0.5325,-0.5248,-0.4981,-0.4106,-0.1805,0.0,0.0,0.0,0.0,0.0,0.0,0.0,0.0,0.0,0.0,0.4974,0.0,0.0,0.0,0.0,0.0,0.8296,0.0,0.0,0.0,0.0,1.1547,1.0581,0.0,0.9029,0.7777,0.7327,0.6828,0.64,0.64,0.64,0.64,0.64,0.642,0.6469,0.7216,0.7146,0.674,0.7972,0.8015,0.7414,0.7971,0.8254,0.832,0.0,0.0,0.0,0.0,0.0,0.0,-1.7901,-1.7041,-1.6835,-1.7936,-1.6953,-1.628,-1.6462,-1.5961,-1.5652,-1.5652,-1.5594,-1.5362,-1.4824,-1.4706,-1.4264,-1.3243,-1.3247,-1.3112,-1.2697,-1.205,-1.2077,0.0,0.0,0.0,0.0,0.0,0.0,0.0,0.0,0.0,0.0,-1.1178,-1.1153,-1.1224,-1.1149,-1.0714,-1.0067,-0.9916,-0.9387,-0.8775,-0.8699,-0.8169,-0.7557,-0.7633,-0.7476,-0.7165,-0.6714,-0.6328,-0.5938,-0.5864,-0.6022,-0.6261,-0.6261,-0.6261,-0.618,-0.5941,-0.5864,-0.5628,-0.4696,-0.447,-0.4399,-0.4012,-0.4575,-0.4101,-0.1021,-0.0236,-0.0,0.0,0.0,0.0,0.0,0.0,0.0863,0.0157,0.0,0.0,0.0,0.2813,0.0,0.0,0.6,0.0,0.0,0.0,0.0,0.838,0.0,0.85,0.8925,0.7917,0.7509,0.7794,0.6996,0.6558,0.64,0.64,0.64,0.64,0.64,0.6493,0.6579,0.6664,0.6672,0.6603,0.6881,0.6777,0.6577,0.6865,0.7333,0.7865,0.0,0.0,0.0,0.0,0.0,0.0,0.0,-1.6178,-1.5894,-1.6564,-1.6207,-1.5874,-1.5884,-1.5594,-1.5362,-1.5254,-1.5088,-1.4666,-1.4052,-1.3992,-1.3631,-1.2789,-1.2941,-1.2833,-1.2358,-1.223,-1.2204,0.0,0.0,0.0,0.0,0.0,0.0,0.0,0.0,-1.0609,-1.0182,-1.0484,-1.025,-0.9787,-0.9656,-0.9458,-0.916,-0.8623,-0.8246,-0.794,-0.7407,-0.671,-0.6009,-0.6009,-0.5931,-0.5931,-0.6331,-0.5628,-0.4766,-0.5237,-0.5082,-0.4768,-0.4768,-0.4768,-0.4768,-0.4688,-0.4611,-0.4613,-0.454,-0.4387,-0.4472,-0.5196,-0.3538,-0.157,-0.0236,-0.0,-0.0,0.0,0.0,0.0,0.0,0.0,0.0,0.0078,0.0,0.2277,0.0,0.0,0.0,0.0,0.0,0.0,0.0,0.0,0.0,0.7173,0.0,0.7609,0.7226,0.6761,0.6302,0.5926,0.5501,0.529,0.5156,0.5156,0.5199,0.5277,0.5277,0.5359,0.5496,0.599,0.5923,0.556,0.6444,0.6427,0.5891,0.6511,0.6877,0.7108,-1.659,0.0,-1.7481,0.0,-1.6643,-1.6342,-1.5887,-1.5213,-1.4852,-1.5102,-1.5181,-1.5284,-1.5468,-1.5186,-1.4961,-1.4862,-1.4437,-1.401,-1.3511,-1.3321,-1.2936,-1.236,-1.2591,0.0,-1.1957,-1.2188,-1.1964,-1.1292,-1.1577,0.0,0.0,0.0,0.0,0.0,-0.9884,-0.9824,-0.9497,-0.9739,-0.959,-0.9139,-0.8856,-0.8623,-0.8394,-0.771,-0.7173,-0.671,-0.6096,-0.5395,-0.4613,-0.4613,-0.4457,-0.438,-0.5318,-0.4768,-0.3908,-0.4455,-0.4222,-0.383,-0.383,-0.383,-0.383,-0.383,-0.383,-0.3832,-0.3995,-0.3841,-0.3925,-0.457,-0.22,-0.0,-0.0157,-0.0079,-0.0,-0.0,0.0,0.0,0.0,0.0,0.0,0.0,-0.0,0.0471,0.165,0.1727,0.0,0.0,0.0,0.0,0.0,0.0,0.0,0.0,0.0,0.0,0.0,0.5835,0.5399,0.4723,0.4637,0.4447,0.43,0.43,0.4363,0.4471,0.4507,0.4594,0.4776,0.5315,0.5252,0.4832,0.5745,0.5744,0.5296,0.5776,0.6153,0.6445,-1.575,-1.5471,-1.5231,-1.5133,-1.4633,-1.4323,-1.4561,-1.4307,-1.3984,-1.3562,-1.3511,-1.3983,-1.505,-1.4784,-1.4506,-1.4515,-1.3881,-1.3511,-1.3511,-1.2887,-1.236,0.0,0.0,-1.1964,-1.1644,-1.1633,-1.1279,-1.0437,0.0,0.0,-0.9275,0.0,-0.9751,-0.9533,-0.9533,-0.9458,-0.9286,-0.8995,-0.9236,-0.963,-0.9168,-0.8542,-0.7783,-0.7557,-0.6475,-0.5004,-0.5004,-0.4533,-0.383,-0.383,-0.321,-0.2666,-0.3521,-0.383,-0.383,-0.383,-0.383,-0.383,-0.383,-0.383,-0.383,-0.383,-0.383,-0.3599,-0.2744,-0.2511,-0.2198,-0.1099,-0.0393,-0.0157,-0.055,-0.0236,-0.0,-0.0,0.0,0.0,0.0,0.0,0.0,-0.0,-0.0,-0.0,-0.0,-0.0,0.0,0.0,0.0,0.0,0.0,0.0,0.0,0.5029,0.5021,0.0,0.5018,0.5015,0.4893,0.4726,0.4723,0.4529,0.43,0.43,0.4363,0.4477,0.4671,0.4719,0.4822,0.4703,0.4724,0.4795,0.4442,0.4371,0.4538,0.4541,0.5109,0.5895,-1.4865,-1.5336,-1.5646,-1.533,-1.4704,-1.411,-1.3965,-1.3591,-1.3314,-1.3208,-1.334,-1.3542,-1.3919,-1.3484,-1.3139,0.0,-1.2948,-1.2642,0.0,-1.1911,-1.1589,-1.1072,-1.083,-1.0647,-1.0651,-1.0413,-1.0222,-1.0085,0.0,0.0,0.0,-0.9257,-0.8897,-0.8174,-0.8923,-0.8755,-0.8055,-0.8599,-0.8489,-0.789,-0.77,-0.7088,-0.6318,-0.624,-0.5544,-0.4616,-0.4616,-0.399,-0.3129,-0.3129,-0.2507,-0.1727,-0.204,-0.2117,-0.2196,-0.2743,-0.2508,-0.2117,-0.2117,-0.2117,-0.2117,-0.2117,-0.2117,-0.204,-0.1727,-0.1649,-0.157,-0.1178,-0.1021,-0.0707,-0.0314,-0.055,-0.0707,-0.0079,-0.0,0.0,0.0,0.0,0.0,-0.0,-0.0,-0.0,-0.0,-0.0,0.0,0.0,0.0,0.0,0.0,0.0,0.0,0.0,0.3919,0.0,0.3287,0.4392,0.4904,0.4737,0.4662,0.4464,0.4303,0.4382,0.4482,0.4673,0.4724,0.4798,0.4825,0.4703,0.4748,0.4683,0.4406,0.442,0.4665,0.4665,0.4887,0.5164,-1.4258,-1.4569,-1.479,-1.4576,-1.3837,-1.3331,-1.3332,-1.3009,-1.2787,-1.2787,-1.2897,-1.296,-1.2691,-1.232,0.0,-1.2775,-1.2592,-1.2281,-1.1847,-1.1589,-1.119,-1.0644,-1.0306,-1.0099,-1.0105,-0.9735,0.0,-0.9448,-0.9279,-0.9004,-0.862,-0.862,-0.8243,-0.7667,-0.833,-0.8186,-0.7501,-0.803,-0.7717,-0.677,-0.6595,-0.6009,-0.5231,-0.5157,-0.4613,-0.3915,-0.3915,-0.329,-0.243,-0.243,-0.2041,-0.1493,-0.1493,-0.1493,-0.1492,-0.1962,-0.1728,-0.1335,-0.1335,-0.1335,-0.1335,-0.1335,-0.1335,-0.1335,-0.1335,-0.1335,-0.1335,-0.1335,-0.1335,-0.11,-0.055,-0.0629,-0.0707,-0.055,-0.0236,-0.0,-0.0,0.0,0.0,0.0,0.0,0.0,0.0,-0.0,-0.0,0.0,0.0,0.0,0.0,0.0,0.0,0.3059,0.3294,0.0,0.1565,0.3214,0.4002,0.3916,0.428,0.4354,0.4306,0.4423,0.4539,0.4731,0.4781,0.4833,0.4828,0.4751,0.4722,0.4703,0.451,0.455,0.4722,0.4722,0.4768,0.4852,-1.3811,-1.3404,0.0,0.0,-1.2391,0.0,-1.2684,-1.2517,-1.2337,-1.2337,-1.2359,-1.21,-1.1414,-1.1345,-1.1813,-1.308,0.0,0.0,0.0,-1.1696,-1.1127,-1.0605,-1.0359,-1.0095,-0.9761,-0.9563,-0.9137,-0.8627,-0.7863,-0.7573,-0.774,-0.774,-0.774,-0.774,-0.774,-0.7564,-0.7403,-0.7326,-0.6861,-0.6086,-0.5938,-0.5392,-0.4608,-0.446,-0.3834,-0.3054,-0.3054,-0.2588,-0.1886,-0.1886,-0.1887,-0.1887,-0.1808,-0.1729,-0.1493,-0.1336,-0.1335,-0.1257,-0.1257,-0.1178,-0.1178,-0.11,-0.11,-0.11,-0.11,-0.11,-0.11,-0.11,-0.11,-0.1178,-0.1257,-0.055,-0.0236,-0.11,-0.055,-0.0,-0.0,0.0,0.0,0.0,0.0,0.0,0.0,-0.0,-0.0,0.0,0.0,0.0,0.0,0.0,-0.0,-0.0,0.3066,0.3142,-0.0,0.1568,0.2322,0.2336,0.3593,0.4148,0.4169,0.4367,0.455,0.4723,0.4779,0.483,0.4822,0.4814,0.4814,0.4809,0.4686,0.4719,0.4833,0.4833,0.4838,0.4863,0.0,0.0,-1.3216,-1.2831,-1.2263,-1.1861,-1.1771,-1.1873,-1.2045,-1.2045,-1.1664,-1.1363,-1.1217,-1.0619,-1.0386,-1.0668,-1.1313,-1.1354,-1.0729,-1.0591,-1.0136,-0.9417,-0.871,-0.8374,-0.8427,-0.7888,-0.7677,-0.7787,-0.7561,-0.7504,-0.7549,-0.7549,-0.7549,-0.7549,-0.6843,-0.6588,-0.6472,-0.5854,-0.5467,-0.5312,-0.5237,-0.4768,-0.3986,-0.3988,-0.3366,-0.2666,-0.2666,-0.2431,-0.2118,-0.2118,-0.2042,-0.1808,-0.1335,-0.11,-0.11,-0.1415,-0.1415,-0.1178,-0.047,-0.0313,-0.0157,0.0549,0.0705,0.0705,0.0705,0.0705,0.0705,0.0705,0.0705,0.0392,-0.0707,-0.0078,0.0392,-0.0236,-0.0157,-0.0,-0.0,-0.0,0.0,0.0,-0.0,-0.0,-0.0,-0.0,-0.0,0.0,0.0,0.0,0.0,-0.0,-0.0,-0.0,0.0785,0.0785,-0.0,0.0392,0.0614,0.0588,0.199,0.262,0.2688,0.382,0.4451,0.4689,0.4905,0.4944,0.4921,0.4679,0.4618,0.4683,0.4561,0.4645,0.4833,0.4833,0.4893,0.4977,-1.2656,-1.242,-1.2183,-1.167,-1.1273,-1.0985,-1.0844,-1.0942,-1.1034,-1.1119,-1.0793,-1.0576,-1.0576,-1.0196,-0.9895,-0.9895,-1.0391,-1.0527,-1.0096,-1.0096,-0.9686,-0.8786,-0.825,-0.7891,-0.7645,-0.7292,-0.7212,-0.7484,-0.7484,-0.7326,-0.6938,-0.6938,-0.6707,-0.6321,-0.5854,-0.5622,-0.5622,-0.5157,-0.4768,-0.4455,-0.4455,-0.3988,-0.321,-0.321,-0.2899,-0.2511,-0.2511,-0.2431,-0.2353,-0.2353,-0.2118,-0.1727,-0.1334,-0.0942,-0.0707,-0.0943,-0.0864,-0.055,0.0078,0.0313,0.047,0.1097,0.1332,0.1332,0.1332,0.1489,0.1646,0.1646,0.2117,0.2196,0.1412,0.1176,0.1254,0.1884,0.1491,0.1176,0.1176,0.047,0.0,-0.0,-0.0,-0.0,-0.0,-0.0,-0.0,-0.0,-0.0,0.0,-0.0,-0.0,-0.0,-0.0,-0.0,-0.0,-0.0,-0.0,-0.0,-0.0,0.0794,0.1131,0.1186,0.1941,0.2748,0.3505,0.3793,0.3852,0.3939,0.4488,0.4656,0.4522,0.463,0.4726,0.4917,0.4917,0.4958,0.5018,-1.1278,-1.1041,-1.0806,-1.026,-1.0018,-0.9965,-1.0168,-1.0034,-0.9976,-1.0218,-0.9906,-0.9744,-0.9744,-0.9593,-0.9518,-0.9518,-0.9518,-0.9593,-0.9744,-0.9744,-0.9285,-0.8286,-0.8098,-0.7721,-0.6998,-0.6923,-0.693,-0.7096,-0.7096,-0.6707,-0.6009,-0.6009,-0.5622,-0.5004,-0.4846,-0.4846,-0.4846,-0.4691,-0.4224,-0.3599,-0.3599,-0.3132,-0.2511,-0.2511,-0.2431,-0.2353,-0.2353,-0.2275,-0.2198,-0.2198,-0.1883,-0.1412,-0.1333,-0.0784,-0.0157,-0.0079,0.0079,0.0236,0.0627,0.0862,0.1097,0.1567,0.1645,0.1645,0.1645,0.2037,0.2352,0.2352,0.3139,0.3773,0.3614,0.251,0.2195,0.3853,0.3377,0.2823,0.2896,0.0,0.0626,0.0391,0.0157,-0.0,-0.0,-0.0,-0.0,-0.0,-0.0,-0.0,-0.0,-0.0,-0.0,-0.0,-0.0,-0.0,-0.0,-0.0,-0.0,-0.0,-0.0,-0.0,-0.0,-0.0,0.0657,0.1812,0.2012,0.2131,0.226,0.3622,0.4175,0.4054,0.4296,0.46,0.4993,0.4935,0.494,0.4937,-1.0946,-1.0709,-1.0473,-1.0166,-1.0153,-1.0146,-1.0087,-1.0159,-1.0137,-1.0218,-0.9458,-0.8851,-0.8851,-0.8318,-0.7859,-0.7859,-0.7859,-0.8165,-0.8851,-0.8851,-0.8533,-0.7668,-0.6832,-0.6311,-0.6162,-0.5492,-0.5182,-0.5389,-0.5389,-0.5312,-0.5157,-0.5157,-0.5157,-0.5002,-0.43,-0.3986,-0.3908,-0.3212,-0.2823,-0.2666,-0.2666,-0.2588,-0.2511,-0.2511,-0.2195,-0.1724,-0.1724,-0.1412,-0.0864,-0.0864,-0.0864,-0.0628,-0.0157,0.0079,0.0314,0.0864,0.11,0.11,0.1176,0.196,0.2824,0.3292,0.3448,0.3448,0.3448,0.345,0.3528,0.3528,0.3686,0.3608,0.2824,0.3057,0.3292,0.2824,0.361,0.4318,0.4555,0.0,0.3686,0.227,0.0861,-0.0,-0.0,-0.0,-0.0,-0.0,-0.0,-0.0,-0.0,-0.0,-0.0,-0.0,-0.0,-0.0,-0.0,-0.0,-0.0,-0.0,-0.0,-0.0,-0.0,-0.0,0.0147,0.0354,0.0371,0.0372,0.0435,0.0657,0.1555,0.2784,0.2576,0.3499,0.4811,0.4675,0.4706,0.4701,-0.9533,-0.9453,-0.9266,-0.9025,-0.902,-0.9054,-0.9025,-0.8949,-0.8937,-0.8937,-0.8399,-0.8093,-0.8093,-0.771,-0.7484,-0.7484,-0.7096,-0.6938,-0.7318,-0.7318,-0.7122,-0.673,-0.5901,-0.5451,-0.5451,-0.507,-0.487,-0.5004,-0.5004,-0.4768,-0.4377,-0.4377,-0.4066,-0.36,-0.3288,-0.2898,-0.2582,-0.2194,-0.1803,-0.1491,-0.1491,-0.1491,-0.1491,-0.1491,-0.1334,-0.1098,-0.1098,-0.0863,-0.0628,-0.0628,-0.0393,-0.0079,0.0236,0.055,0.0864,0.1178,0.1571,0.1962,0.196,0.2666,0.353,0.3763,0.3763,0.3763,0.3763,0.3763,0.3763,0.3763,0.3763,0.3684,0.3294,0.3528,0.3684,0.3372,0.3923,0.0,0.0,0.4711,0.4474,0.3684,0.2901,0.2038,0.1097,0.0392,-0.0,-0.0,-0.0471,-0.0707,-0.0707,-0.0471,-0.0314,-0.0314,-0.0079,-0.0,-0.0,-0.0,-0.0,-0.0,-0.0,-0.0,-0.0,-0.0,-0.0,-0.0,-0.0,-0.0,-0.0,-0.0,0.0449,0.1136,0.0767,0.1155,0.2004,0.2807,0.3444,0.3837,-0.8479,-0.8403,-0.8403,-0.8255,-0.8178,-0.8178,-0.8178,-0.803,-0.788,-0.7804,-0.7642,-0.7403,-0.7249,-0.7173,-0.7096,-0.6938,-0.6321,-0.5931,-0.5931,-0.5774,-0.565,-0.577,-0.5104,-0.4613,-0.4457,-0.438,-0.438,-0.438,-0.438,-0.4068,-0.3521,-0.3363,-0.2896,-0.2275,-0.2118,-0.1803,-0.1333,-0.1333,-0.1098,-0.0628,-0.0628,-0.0628,-0.0628,-0.0628,-0.055,-0.0393,-0.0393,-0.0314,-0.0157,-0.0157,0.0157,0.055,0.055,0.0864,0.1335,0.1335,0.1805,0.2431,0.2589,0.3137,0.3686,0.3763,0.3763,0.3763,0.3763,0.3763,0.3763,0.3763,0.3763,0.3763,0.3763,0.3763,0.3843,0.4079,0.0,0.0,0.0,0.4467,0.4553,0.4553,0.4401,0.3851,0.2588,0.1177,0.0157,-0.0079,-0.0786,-0.1178,-0.1257,-0.0943,-0.0786,-0.0786,-0.0471,-0.0236,-0.0,-0.0,-0.0,-0.0,-0.0,-0.0,-0.0,-0.0231,-0.0304,-0.0303,-0.0152,-0.0151,-0.0147,-0.0151,-0.0153,-0.0153,-0.0467,-0.047,-0.0078,0.1408,0.2426,0.3054,-0.8703,-0.8551,-0.8479,-0.8627,-0.8479,-0.8403,-0.8403,-0.8178,-0.803,-0.7804,-0.7642,-0.7173,-0.6395,-0.6318,-0.6009,-0.5234,-0.5157,-0.5082,-0.5082,-0.4377,-0.4295,-0.5065,-0.4295,-0.3521,-0.2666,-0.2666,-0.2666,-0.2666,-0.2666,-0.2666,-0.2588,-0.2037,-0.1724,-0.1646,-0.102,-0.0707,-0.0707,-0.0707,-0.0628,-0.0628,-0.0628,-0.0628,-0.0628,-0.0628,-0.0236,0.0236,0.0236,0.0628,0.1178,0.1178,0.1178,0.1257,0.1257,0.1257,0.1335,0.1335,0.1569,0.2117,0.2826,0.3141,0.3219,0.3686,0.3763,0.3763,0.3763,0.3763,0.3763,0.3763,0.3763,0.3763,0.3763,0.3763,0.3843,0.4079,0.0,0.0,0.4384,0.4384,0.4384,0.4384,0.4314,0.416,0.4079,0.2354,0.0707,-0.0471,-0.0628,-0.0864,-0.1257,-0.1257,-0.1257,-0.1257,-0.1257,-0.0786,-0.0,-0.0,-0.0,-0.0,-0.0,-0.0,-0.0,-0.0862,-0.1239,-0.1213,-0.0776,-0.0541,-0.0529,-0.0543,-0.0548,-0.0549,-0.0549,-0.0078,0.0784,0.1724,0.2429,0.2896,-0.8703,-0.8627,-0.8627,-0.8699,-0.8627,-0.8399,-0.794,-0.7557,-0.7173,-0.6553,-0.6167,-0.5854,-0.5467,-0.5467,-0.5312,-0.5004,-0.4535,-0.4222,-0.4222,-0.3443,-0.3132,-0.3446,-0.3134,-0.2821,-0.2511,-0.2511,-0.2353,-0.196,-0.196,-0.1725,-0.1334,-0.1099,-0.0942,-0.0942,-0.0707,-0.0393,-0.0079,-0.0079,0.0236,0.055,0.055,0.055,0.055,0.055,0.0707,0.0943,0.0943,0.11,0.1335,0.1335,0.1335,0.1335,0.1335,0.1335,0.1335,0.1569,0.1961,0.2431,0.2982,0.3062,0.3217,0.3686,0.3763,0.3763,0.3763,0.3763,0.3763,0.3763,0.3763,0.3763,0.3763,0.3763,0.3841,0.3921,0.0,0.3921,0.3997,0.3995,0.3995,0.3995,0.3997,0.3921,0.3921,0.3297,0.2356,0.1176,0.1098,0.0706,-0.0236,-0.0943,-0.1335,-0.1335,-0.1335,-0.1021,-0.0393,-0.0393,-0.055,-0.0786,-0.055,-0.0393,-0.0393,-0.0707,-0.1016,-0.1318,-0.1096,-0.1016,-0.1008,-0.1017,-0.1021,-0.1021,-0.1021,-0.0785,-0.0392,0.047,0.1253,0.1958,-0.8165,-0.8165,-0.8165,-0.8165,-0.8165,-0.7936,-0.733,-0.6861,-0.6318,-0.5699,-0.5234,-0.4924,-0.4613,-0.4613,-0.4535,-0.4224,-0.3679,-0.3365,-0.3365,-0.2665,-0.2275,-0.2511,-0.2511,-0.2511,-0.2511,-0.2353,-0.2038,-0.1568,-0.1411,-0.102,-0.0628,-0.0393,-0.0314,-0.0314,-0.0079,0.0236,0.0628,0.0628,0.0864,0.1335,0.1335,0.1335,0.1335,0.1335,0.1335,0.1335,0.1335,0.1335,0.1335,0.1335,0.1335,0.1335,0.1335,0.1335,0.1414,0.1803,0.2117,0.2431,0.2982,0.3062,0.3217,0.3686,0.3763,0.3763,0.3763,0.3763,0.3763,0.3763,0.3763,0.3763,0.3763,0.3763,0.3763,0.3763,0.3763,0.3763,0.3763,0.3763,0.3763,0.3763,0.3763,0.3763,0.3763,0.3532,0.3062,0.2275,0.196,0.149,0.0706,-0.0314,-0.0863,-0.0863,-0.1178,-0.1178,-0.0786,-0.0707,-0.0864,-0.1257,-0.0943,-0.0786,-0.0786,-0.0786,-0.1021,-0.1335,-0.1335,-0.1335,-0.1335,-0.1335,-0.1335,-0.1335,-0.1335,-0.1335,-0.1178,-0.0313,0.0548,0.1411,-0.6865,-0.6865,-0.6865,-0.6865,-0.6865,-0.6865,-0.6637,-0.6163,-0.5848,-0.5622,-0.5234,-0.4691,-0.3908,-0.3752,-0.3443,-0.2588,-0.2511,-0.2511,-0.2511,-0.196,-0.1882,-0.2431,-0.251,-0.251,-0.251,-0.1882,-0.1568,-0.1568,-0.0942,-0.0628,-0.055,-0.0,0.0314,0.0314,0.1021,0.1335,0.1335,0.1335,0.1335,0.1335,0.1335,0.1335,0.1335,0.1335,0.1335,0.1335,0.1335,0.1335,0.1335,0.1335,0.1335,0.1335,0.1335,0.1335,0.1414,0.1803,0.1882,0.2117,0.2904,0.3141,0.3217,0.3686,0.3763,0.3763,0.3763,0.3763,0.3763,0.3763,0.3763,0.3763,0.3763,0.3763,0.3763,0.3763,0.3763,0.3763,0.3763,0.3763,0.3763,0.3763,0.3763,0.3763,0.3763,0.2981,0.2511,0.2511,0.1803,0.1332,0.1332,0.047,-0.0,-0.0,-0.0863,-0.1257,-0.1335,-0.0864,-0.0864,-0.1335,-0.1335,-0.1335,-0.1335,-0.1335,-0.1335,-0.1335,-0.1335,-0.1335,-0.1335,-0.1335,-0.1335,-0.1335,-0.1335,-0.1335,-0.1178,-0.0313,0.0548,0.1411,-0.6865,-0.6865,-0.6865,-0.6865,-0.663,-0.624,-0.5774,-0.5076,-0.4455,-0.3917,-0.3526,-0.3134,-0.2899,-0.2899,-0.2823,-0.2511,-0.2511,-0.2353,-0.1882,-0.1255,-0.0942,-0.1178,-0.1178,-0.1178,-0.1178,-0.102,-0.0706,-0.0235,-0.0079,0.0236,0.0707,0.0943,0.1021,0.1021,0.1178,0.1335,0.1335,0.1335,0.1335,0.1335,0.1335,0.1335,0.1335,0.1335,0.1335,0.1335,0.1335,0.1335,0.1335,0.1335,0.1335,0.1335,0.1648,0.1726,0.1804,0.2196,0.2511,0.2826,0.3062,0.3374,0.3608,0.3763,0.3763,0.3763,0.3763,0.3763,0.3763,0.3763,0.3763,0.3763,0.3763,0.3763,0.3763,0.3763,0.3763,0.3763,0.3763,0.3763,0.3763,0.3763,0.3763,0.3763,0.3763,0.3528,0.345,0.345,0.2586,0.2117,0.2117,0.1332,0.0627,-0.0,-0.0235,-0.0706,-0.1257,-0.1178,-0.1178,-0.1335,-0.1335,-0.1335,-0.1335,-0.1335,-0.1335,-0.1335,-0.1335,-0.1335,-0.1335,-0.1335,-0.1335,-0.1335,-0.1335,-0.1335,-0.1178,-0.0313,0.0548,0.1411,-0.6173,-0.6173,-0.6173,-0.6173,-0.578,-0.5389,-0.4999,-0.4224,-0.3528,-0.3141,-0.2746,-0.2511,-0.2511,-0.2511,-0.2511,-0.2511,-0.2275,-0.1882,-0.1255,-0.0628,-0.0236,-0.0236,-0.0,-0.0079,-0.055,-0.0393,-0.0079,0.0314,0.055,0.0864,0.1335,0.1335,0.1335,0.1335,0.1335,0.1335,0.1335,0.1335,0.1335,0.1335,0.1335,0.1335,0.1335,0.1335,0.1335,0.1335,0.1335,0.1335,0.1335,0.1649,0.204,0.235,0.2584,0.2662,0.274,0.321,0.3524,0.3761,0.3995,0.4307,0.4538,0.4538,0.4151,0.3763,0.3763,0.3763,0.3763,0.3763,0.3763,0.3763,0.3763,0.3763,0.3763,0.3763,0.3763,0.3763,0.3763,0.3763,0.3763,0.3763,0.3763,0.3763,0.3763,0.3763,0.3763,0.3763,0.3294,0.2981,0.2981,0.2195,0.1568,0.1019,0.0705,0.0078,-0.0785,-0.0785,-0.0942,-0.1335,-0.1335,-0.1335,-0.1335,-0.1335,-0.1335,-0.1335,-0.1335,-0.1335,-0.1335,-0.1335,-0.1335,-0.1335,-0.1335,-0.1335,-0.1257,-0.0706,0.0235,0.1334,-0.5018,-0.5018,-0.5018,-0.5018,-0.4698,-0.4384,-0.4384,-0.3606,-0.3062,-0.3062,-0.2746,-0.2511,-0.2511,-0.2431,-0.2431,-0.2431,-0.1803,-0.1176,-0.055,0.0079,0.0393,0.0393,0.0943,0.0786,-0.0393,0.0079,0.0393,0.0393,0.1021,0.1335,0.1335,0.1335,0.1335,0.1335,0.1335,0.1335,0.1335,0.1335,0.1335,0.1335,0.1335,0.1335,0.1335,0.1335,0.1335,0.1414,0.1414,0.1492,0.1649,0.2353,0.3132,0.383,0.383,0.383,0.3988,0.4533,0.4766,0.4844,0.5389,0.5544,0.5544,0.5544,0.4771,0.3997,0.3997,0.3997,0.3919,0.3919,0.3841,0.3841,0.3841,0.3763,0.3763,0.3763,0.3763,0.3763,0.3763,0.3763,0.3763,0.3763,0.3763,0.3763,0.3763,0.3763,0.3763,0.3763,0.3763,0.3763,0.3763,0.3059,0.2588,0.2511,0.1803,0.1019,0.0157,0.0078,-0.0392,-0.1335,-0.1335,-0.1335,-0.1335,-0.1335,-0.1335,-0.1335,-0.1335,-0.1335,-0.1335,-0.1335,-0.1335,-0.1335,-0.1335,-0.1335,-0.1335,-0.1335,-0.0157,0.1341,-0.5018,-0.5018,-0.5018,-0.5018,-0.4698,-0.4307,-0.3997,-0.3452,-0.2982,-0.2668,-0.2589,-0.2511,-0.2511,-0.2117,-0.1803,-0.1803,-0.0784,-0.0078,0.0079,0.0707,0.11,0.11,0.1257,0.1178,0.0864,0.1021,0.11,0.11,0.1257,0.1335,0.1335,0.1335,0.1335,0.1335,0.1335,0.1335,0.1335,0.1335,0.1335,0.1335,0.1335,0.1335,0.1335,0.1335,0.1728,0.2276,0.2276,0.2665,0.3287,0.3443,0.3675,0.383,0.4146,0.4304,0.4382,0.4768,0.4924,0.5002,0.5079,0.5237,0.5395,0.5395,0.5315,0.5237,0.5237,0.5237,0.5082,0.4621,0.4543,0.4387,0.3919,0.3763,0.3763,0.3763,0.3763,0.3763,0.3763,0.3763,0.3763,0.3763,0.3763,0.3763,0.3763,0.3763,0.3763,0.3763,0.3763,0.3763,0.3763,0.3606,0.3215,0.2511,0.2353,0.1882,0.1019,0.1019,0.0235,-0.1335,-0.1335,-0.1335,-0.1335,-0.1335,-0.1335,-0.1335,-0.1335,-0.1335,-0.1335,-0.1335,-0.1335,-0.1335,-0.1335,-0.1335,-0.1335,-0.1335,-0.0159,0.1621,-0.5018,-0.5018,-0.4937,-0.4779,-0.4543,-0.4151,-0.353,-0.3297,-0.2826,-0.2195,-0.2038,-0.196,-0.1648,-0.1334,-0.102,-0.0706,-0.0078,0.0471,0.0786,0.11,0.1335,0.1335,0.1335,0.1264,0.1279,0.1264,0.1335,0.1335,0.1335,0.1335,0.1335,0.1335,0.1335,0.1335,0.1335,0.1335,0.1335,0.1335,0.1335,0.1335,0.1335,0.1335,0.1335,0.1727,0.2119,0.2588,0.2978,0.3677,0.4377,0.4377,0.4613,0.5004,0.524,0.5321,0.5398,0.5705,0.578,0.5783,0.5857,0.6015,0.6173,0.6173,0.6325,0.6318,0.5777,0.5622,0.5544,0.5162,0.4932,0.4621,0.4311,0.3997,0.3763,0.3763,0.3763,0.3763,0.3763,0.3763,0.3763,0.3763,0.3763,0.3763,0.3763,0.3763,0.3763,0.3763,0.3763,0.3763,0.3763,0.3763,0.3606,0.3137,0.3136,0.2744,0.1882,0.1882,0.1254,-0.0078,-0.0471,-0.0863,-0.1335,-0.1335,-0.1335,-0.1335,-0.1335,-0.1335,-0.1335,-0.1335,-0.1336,-0.1415,-0.1415,-0.1503,-0.1597,-0.1597,-0.0571,0.1179,-0.5018,-0.4937,-0.4779,-0.4543,-0.4307,-0.3917,-0.3139,-0.2904,-0.2431,-0.1568,-0.1412,-0.1255,-0.0628,-0.0471,-0.0236,0.0393,0.0471,0.0707,0.1257,0.1335,0.1335,0.1335,0.1335,0.1269,0.1294,0.127,0.1338,0.1265,0.1338,0.1335,0.1335,0.1335,0.1335,0.1335,0.1335,0.1335,0.1335,0.1335,0.1414,0.1492,0.1492,0.157,0.1804,0.2431,0.2823,0.3056,0.3754,0.4533,0.5237,0.5237,0.5709,0.6338,0.6338,0.6338,0.6338,0.6486,0.6563,0.6563,0.6791,0.6949,0.7107,0.7107,0.7257,0.7096,0.6086,0.5854,0.5931,0.578,0.5395,0.4932,0.4776,0.4311,0.3919,0.3841,0.3763,0.3763,0.3763,0.3763,0.3763,0.3763,0.3763,0.3763,0.3763,0.3763,0.3763,0.3763,0.3763,0.3763,0.3763,0.3763,0.3763,0.3763,0.3763,0.3458,0.2762,0.275,0.2278,0.1419,0.0549,-0.0314,-0.1099,-0.1257,-0.1336,-0.1415,-0.1415,-0.1415,-0.1415,-0.1415,-0.1497,-0.166,-0.166,-0.1843,-0.1963,-0.1724,-0.0757,0.0608,-0.5018,-0.4701,-0.4543,-0.4859,-0.3837,-0.2976,-0.2904,-0.2117,-0.1333,-0.0785,-0.0707,-0.0707,-0.0628,-0.0157,0.0471,0.11,0.1178,0.1178,0.1257,0.1335,0.1335,0.1335,0.1335,0.1338,0.1263,0.1338,0.127,0.1296,0.127,0.1335,0.1335,0.1335,0.1335,0.1335,0.1335,0.1335,0.1335,0.1335,0.1728,0.2353,0.2353,0.2821,0.3443,0.3599,0.4066,0.4691,0.4768,0.5395,0.6103,0.6103,0.6183,0.6338,0.6338,0.6338,0.6338,0.6338,0.6338,0.6335,0.6338,0.6567,0.6718,0.6718,0.6868,0.6938,0.6784,0.7015,0.7096,0.656,0.6405,0.6018,0.4932,0.4623,0.4387,0.3919,0.3763,0.3763,0.3763,0.3763,0.3763,0.3763,0.3763,0.3763,0.3763,0.3763,0.3763,0.3763,0.3763,0.3763,0.3763,0.3763,0.3763,0.3763,0.3763,0.3801,0.3718,0.3644,0.301,0.1859,0.1108,0.0313,-0.047,-0.1178,-0.165,-0.1808,-0.1808,-0.1808,-0.1808,-0.1808,-0.1908,-0.1941,-0.1941,-0.1969,-0.193,-0.0427,0.0173,0.0609,-0.5018,-0.4859,-0.4543,-0.3915,-0.2737,-0.1879,-0.1648,-0.1412,-0.1019,-0.0236,-0.0079,0.0079,0.0393,0.0707,0.0943,0.1257,0.1335,0.1335,0.1335,0.1335,0.1335,0.1335,0.1335,0.1265,0.1282,0.1266,0.1272,0.1303,0.1272,0.1335,0.1335,0.1335,0.1335,0.1335,0.1335,0.1335,0.1335,0.1805,0.2198,0.251,0.3056,0.3443,0.383,0.43,0.4691,0.5082,0.5553,0.5948,0.6338,0.6338,0.6338,0.6338,0.6338,0.6338,0.6338,0.6338,0.6338,0.6338,0.6338,0.6412,0.6563,0.6563,0.6714,0.6865,0.6865,0.7019,0.7096,0.6949,0.6637,0.6247,0.5864,0.5473,0.5007,0.4387,0.4309,0.4153,0.3841,0.3763,0.3763,0.3763,0.3763,0.3763,0.3763,0.3763,0.3763,0.3763,0.3763,0.3763,0.3763,0.353,0.3374,0.3374,0.3215,0.3074,0.3107,0.3076,0.2838,0.2231,0.1497,0.047,-0.0628,-0.1414,-0.1808,-0.1887,-0.1887,-0.1887,-0.1888,-0.1911,-0.2013,-0.2196,-0.2226,-0.2353,-0.2319,-0.079,-0.0177,-0.0]},{"header":{"parameterUnit":"m.s-1","parameterCategory":1,"la1":30.6,"la2":28.766,"lo1":-90.7593,"lo2":-88.6598,"dy":0.0162,"dx":0.0183,"nx":116,"ny":114,"refTime":"2023-07-21T12:00:00:Z","depth":0,"parameterNumber":3,"parameterNumberName":"V-component_of_WINDS"},"data":[0.0,0.0,0.0,0.0,0.0,0.0,0.0,0.0,0.0,0.0,0.0,0.0,0.0,0.0,0.0,0.0,0.0,0.0,0.0,0.0,0.0,0.0,0.0,0.0,0.0,0.0,0.0,0.0,0.0,0.0,0.0,0.0,0.0,0.0,0.0,0.0,0.0,0.0,0.0,0.0,0.0,0.0,0.0,0.0,0.0,0.0,0.0,0.0,0.0,0.0,0.0,0.0,0.0,0.0,0.0,0.0,0.0,0.0,0.0,0.0,0.0,0.0,0.0,0.0,0.0,0.0,0.0,0.0,0.0,0.0,0.0,0.0,0.0,0.0,0.0,0.0,0.0,0.0,0.0,0.0,0.0,0.0,0.0,0.0,0.0,0.0,0.0,0.0,0.0,0.0,0.0,0.0,0.0,0.0,0.0,0.0,0.0,0.0,0.0,0.0,0.0,0.0,0.0,0.0,0.0,0.0,0.0,0.0,0.0,0.0,0.0,0.0,0.0,0.0,0.0,0.0,0.0,0.0,0.0,0.0,0.0,0.0,0.0,0.0,0.0,0.0,0.0,0.0,0.0,0.0,0.0,0.0,0.0,0.0,0.0,0.0,0.0,0.0,0.0,0.0,0.0,0.0,0.0,0.0,0.0,0.0,0.0,0.0,0.0,0.0,0.0,0.0,0.0,0.0,0.0,0.0,0.0,0.0,0.0,0.0,0.0,0.0,0.0,0.0,0.0,0.0,0.0,0.0,0.0,0.0,0.0,0.0,0.0,0.0,0.0,0.0,0.0,0.0,0.0,0.0,0.0,0.0,0.0,0.0,0.0,0.0,0.0,0.0,0.0,0.0,0.0,0.0,0.0,0.0,0.0,0.0,0.0,0.0,0.0,0.0,0.0,0.0,0.0,0.0,0.0,0.0,0.0,0.0,0.0,0.0,0.0,0.0,0.0,0.0,0.0,0.0,0.0,0.0,0.0,0.0,0.0,0.0,0.0,0.0,0.0,0.0,0.0,0.0,0.0,0.0,0.0,0.0,0.0,0.0,0.0,0.0,0.0,0.0,0.0,0.0,0.0,0.0,0.0,0.0,0.0,0.0,0.0,0.0,0.0,0.0,0.0,0.0,0.0,0.0,0.0,0.0,0.0,0.0,0.0,0.0,0.0,0.0,0.0,0.0,0.0,0.0,0.0,0.0,0.0,0.0,0.0,0.0,0.0,0.0,0.0,0.0,0.0,0.0,0.0,0.0,0.0,0.0,0.0,0.0,0.0,0.0,0.0,0.0,0.0,0.0,0.0,0.0,0.0,0.0,0.0,0.0,0.0,0.0,0.0,0.0,0.0,0.0,0.0,0.0,0.0,0.0,0.0,0.0,0.0,0.0,0.0,0.0,0.0,0.0,0.0,0.0,0.0,0.0,0.0,0.0,0.0,0.0,0.0,0.0,0.0,0.0,0.0,0.0,0.0,0.0,0.0,0.0,0.0,0.0,0.0,0.0,0.0,0.0,0.0,0.0,0.0,0.0,0.0,0.0,0.0,0.0,0.0,0.0,0.0,0.0,0.0,0.0,0.0,0.0,0.0,0.0,0.0,0.0,0.0,0.0,0.0,0.0,0.0,0.0,0.0,0.0,0.0,0.0,0.0,0.0,0.0,0.0,0.0,0.0,0.0,0.0,0.0,0.0,0.0,0.0,0.0,0.0,0.0,0.0,0.0,0.0,0.0,0.0,0.0,0.0,0.0,0.0,0.0,0.0,0.0,0.0,0.0,0.0,0.0,0.0,0.0,0.0,0.0,0.0,0.0,0.0,0.0,0.0,0.0,0.0,0.0,0.0,0.0,0.0,0.0,0.0,0.0,0.0,0.0,0.0,0.0,0.0,0.0,0.0,0.0,0.0,0.0,0.0,0.0,0.0,0.0,0.0,0.0,0.0,0.0,0.0,0.0,0.0,0.0,0.0,0.0,0.0,0.0,0.0,0.0,0.0,0.0,0.0,0.0,0.0,0.0,0.0,0.0,0.0,0.0,0.0,0.0,0.0,0.0,0.0,0.0,0.0,0.0,0.0,0.0,0.0,0.0,0.0,0.0,0.0,0.0,0.0,0.0,0.0,0.0,0.0,0.0,0.0,0.0,0.0,0.0,0.0,0.0,0.0,0.0,0.0,0.0,0.0,0.0,0.0,0.0,0.0,0.0,0.0,0.0,0.0,0.0,0.0,0.0,0.0,0.0,0.0,0.0,0.0,0.0,0.0,0.0,0.0,0.0,0.0,0.0,0.0,0.0,0.0,0.0,0.0,0.0,0.0,0.0,0.0,0.0,0.0,0.0,0.0,0.0,0.0,0.0,0.0,0.0,0.0,0.0,0.0,0.0,0.0,0.0,0.0,0.0,0.0,0.0,0.0,0.0,0.0,0.0,0.0,0.0,0.0,0.0,0.0,0.0,0.0,0.0,0.0,0.0,0.0,0.0,0.0,0.0,0.0,0.0,0.0,0.0,0.0,0.0,0.0,0.0,0.0,0.0,0.0,0.0,0.0,0.0,0.0,0.0,0.0,0.0,0.0,0.0,0.0,0.0,0.0,0.0,0.0,0.0,0.0,0.0,0.0,0.0,0.0,0.0,0.0,0.0,0.0,0.0,0.0,0.0,0.0,0.0,0.0,0.0,0.0,0.0,0.0,0.0,0.0,0.0,0.0,0.0,0.0,0.0,0.0,0.0,0.0,0.0,0.0,0.0,0.0,0.0,0.0,0.0,0.0,0.0,0.0,0.0,0.0,0.0,0.0,0.0,0.0,0.0,0.0,0.0,0.0,0.0,0.0,0.0,0.0,0.0,0.0,0.0,0.0,0.0,0.0,0.0,0.0,0.0,0.0,0.0,0.0,0.0,0.0,0.0,0.0,0.0,0.0,0.0,0.0,0.0,0.0,0.0,0.0,0.0,0.0,0.0,0.0,0.0,0.0,0.0,0.0,0.0,0.0,0.0,0.0,0.0,0.0,0.0,0.0,0.0,0.0,0.0,0.0,0.0,0.0,0.0,0.0,0.0,0.0,0.0,0.0,0.0,0.0,0.0,0.0,0.0,0.0,0.0,0.0,0.0,0.0,0.0,0.0,0.0,0.0,0.0,0.0,0.0,0.0,0.0,0.0,0.0,0.0,0.0,0.0,0.0,0.0,0.0,0.0,0.0,0.0,0.0,0.0,0.0,0.0,0.0,0.0,0.0,0.0,0.0,0.0,0.0,0.0,0.0,0.0,0.0,0.0,0.0,0.0,0.0,0.0,0.0,0.0,0.0,0.0,0.0,0.0,0.0,0.0,0.0,0.0,0.0,0.0,0.0,0.0,0.0,0.0,0.0,0.0,0.0,0.0,0.0,0.0,0.0,0.0,0.0,0.0,0.0,0.0,0.0,0.0,0.0,0.0,0.0,0.0,0.0,0.0,0.0,0.0,0.0,0.0,0.0,0.0,0.0,0.0,0.0,0.0,0.0,0.0,0.0,0.0,0.0,0.0,0.0,0.0,0.0,0.0,0.0,0.0,0.0,0.0,0.0,0.0,0.0,0.0,0.0,0.0,0.0,0.0,0.0,0.0,0.0,0.0,0.0,0.0,0.0,0.0,0.0,0.0,0.0,0.0,0.0,0.0,0.0,0.0,0.0,0.0,0.0,0.0,0.0,0.0,0.0,0.0,0.0,0.0,0.0,0.0,0.0,0.0,0.0,0.0,0.0,0.0,0.0,0.0,0.0,0.0,0.0,0.0,0.0,0.0,0.0,0.0,0.0,0.0,0.0,0.0,0.0,0.0,0.0,0.0,0.0,0.0,0.0,0.0,0.0,0.0,0.0,0.0,0.0,0.0,0.0,0.0,0.0,0.0,0.0,0.0,0.0,0.0,0.0,0.0,0.0,0.0,0.0,0.0,0.0,0.0,0.0,0.0,0.0,0.0,0.0,0.0,0.0,0.0,0.0,0.0,0.0,0.0,0.0,0.0,0.0,0.0,0.0,0.0,0.0,0.0,0.0,0.0,0.0,0.0,0.0,0.0,0.0,0.0,0.0,0.0,0.0,0.0,0.0,0.0,0.0,0.0,0.0,0.0,0.0,0.0,0.0,0.0,0.0,0.0,0.0,0.0,0.0,0.0,0.0,0.0,0.0,0.0,0.0,0.0,0.0,0.0,0.0,0.0,0.0,0.0,0.0,0.0,0.0,0.0,0.0,0.0,0.0,0.0,0.0,0.0,0.0,0.0,0.0,0.0,0.0,0.0,0.0,0.0,0.0,0.0,0.0,0.0,0.0,0.0,0.0,0.0,0.0,0.0,0.0,0.0,0.0,0.0,0.0,0.0,0.0,0.0,0.0,0.0,0.0,0.0,0.0,0.0,0.0,0.0,0.0,0.0,0.0,0.0,0.0,0.0,0.0,0.0,0.0,0.0,0.0,0.0,0.0,0.0,0.0,0.0,0.0,0.0,0.0,0.0,0.0,0.0,0.0,0.0,0.0,0.0,0.0,0.0,0.0,0.0,0.0,0.0,0.0,0.0,0.0,0.0,0.0,0.0,0.0,0.0,0.0,0.0,0.0,0.0,0.0,0.0,0.0,0.0,0.0,0.0,0.0,0.0,0.0,0.0,0.0,0.0,0.0,0.0,0.0,0.0,0.0,0.0,0.0,0.0,0.0,0.0,0.0,0.0,0.0,0.0,0.0,0.0,0.0,0.0,0.0,0.0,0.0,0.0,0.0,0.0,0.0,0.0,0.0,0.0,0.0,0.0,0.0,0.0,0.0,0.0,0.0,0.0,0.0,0.0,0.0,0.0,0.0,0.0,0.0,0.0,0.0,0.0,0.0,0.0,0.0,0.0,0.0,0.0,0.0,0.0,0.0,0.0,0.0,0.0,0.0,0.0,0.0,0.0,0.0,0.0,0.0,0.0,0.0,0.0,0.0,0.0,0.0,0.0,0.0,0.0,0.0,0.0,0.0,0.0,0.0,0.0,0.0,0.0,0.0,0.0,0.0,0.0,0.0,0.0,0.0,0.0,0.0,0.0,0.0,0.0,0.0,0.0,0.0,0.0,0.0,0.0,0.0,0.0,0.0,0.0,0.0,0.0,0.0,0.0,0.0,0.0,0.0,0.0,0.0,0.0,0.0,0.0,0.0,0.0,0.0,0.0,0.0,0.0,0.0,0.0,0.0,0.0,0.0,0.0,0.0,0.0,0.0,0.0,0.0,0.0,0.0,0.0,0.0,0.0,0.0,0.0,0.0,0.0,0.0,0.0,0.0,0.0,0.0,0.0,0.0,0.0,0.0,0.0,0.0,0.0,0.0,0.0,0.0,0.0,0.0,0.0,0.0,0.0,0.0,0.0,0.0,0.0,0.0,0.0,0.0,0.0,0.0,0.0,0.0,0.0,0.0,0.0,0.0,0.0,0.0,0.0,0.0,0.0,0.0,0.0,0.0,0.0,0.0,0.0,0.0,0.0,0.0,0.0,0.0,0.0,0.0,0.0,0.0,0.0,0.0,0.0,0.0,0.0,0.0,0.0,0.0,0.0,0.0,0.0,0.0,0.0,0.0,0.0,0.0,0.0,0.0,0.0,0.0,0.0,0.0,0.0,0.0,0.0,0.0,0.0,0.0,0.0,0.0,0.0,0.0,0.0,0.0,0.0,0.0,0.0,0.0,0.0,0.0,0.0,0.0,0.0,0.0,0.0,0.0,0.0,0.0,0.0,0.0,0.0,0.0,0.0,0.0,0.0,0.0,0.0,0.0,0.0,0.0,0.0,0.0,0.0,0.0,0.0,0.0,0.0,0.0,0.0,0.0,0.0,0.0,0.0,0.0,0.0,0.0,0.0,0.0,0.0,0.0,0.0,0.0,0.0,0.0,0.0,0.0,0.0,0.0,0.0,0.0,0.0,0.0,0.0,0.0,0.0,0.0,0.0,0.0,0.0,0.0,0.0,0.0,0.0,0.0,0.0,0.0,0.0,0.0,0.0,0.0,0.0,0.0,0.0,0.0,0.0,0.0,0.0,0.0,0.0,0.0,0.0,0.0,0.0,0.0,0.0,0.0,0.0,0.0,0.0,0.0,0.0,0.0,0.0,0.0,0.0,0.0,0.0,0.0,0.0,2.0911,0.0,0.0,0.0,0.0,0.0,0.0,0.0,0.0,0.0,0.0,0.0,0.0,0.0,0.0,0.0,0.0,0.0,0.0,0.0,0.0,0.0,0.0,0.0,0.0,0.0,0.0,0.0,0.0,0.0,0.0,0.0,0.0,0.0,0.0,0.0,0.0,0.0,0.0,0.0,0.0,0.0,0.0,0.0,0.0,0.0,0.0,0.0,0.0,0.0,0.0,0.0,0.0,0.0,0.0,0.0,0.0,0.0,0.0,0.0,0.0,0.0,0.0,0.0,0.0,0.0,0.0,0.0,0.0,0.0,0.0,0.0,0.0,0.0,0.0,0.0,0.0,0.0,0.0,0.0,0.0,0.0,0.0,0.0,0.0,0.0,0.0,0.0,0.0,0.0,0.0,0.0,0.0,0.0,0.0,0.0,0.0,0.0,0.0,0.0,0.0,0.0,0.0,0.0,0.0,0.0,0.0,0.0,0.0,0.0,0.0,0.0,0.0,0.0,0.0,0.0,0.0,2.1085,0.0,0.0,0.0,0.0,0.0,0.0,0.0,0.0,0.0,0.0,0.0,0.0,0.0,0.0,0.0,0.0,0.0,0.0,0.0,0.0,0.0,0.0,0.0,0.0,0.0,0.0,0.0,0.0,0.0,0.0,0.0,0.0,0.0,0.0,0.0,0.0,0.0,0.0,0.0,0.0,0.0,0.0,0.0,0.0,0.0,0.0,0.0,0.0,0.0,0.0,0.0,0.0,0.0,0.0,0.0,0.0,0.0,0.0,0.0,0.0,0.0,0.0,0.0,0.0,0.0,0.0,0.0,0.0,0.0,0.0,0.0,0.0,0.0,0.0,0.0,0.0,0.0,0.0,0.0,0.0,0.0,0.0,0.0,0.0,0.0,0.0,0.0,0.0,0.0,0.0,0.0,0.0,0.0,0.0,0.0,0.0,0.0,0.0,0.0,0.0,0.0,0.0,0.0,0.0,0.0,0.0,0.0,0.0,2.4385,2.4426,2.441,2.3538,2.3271,2.3358,2.2373,2.1539,2.0846,2.0078,0.0,0.0,0.0,0.0,0.0,0.0,0.0,0.0,0.0,0.0,0.0,0.0,0.0,0.0,0.0,0.0,0.0,0.0,0.0,0.0,0.0,0.0,0.0,0.0,0.0,0.0,0.0,0.0,0.0,0.0,0.0,0.0,0.0,0.0,0.0,0.0,0.0,0.0,0.0,-2.0919,-2.2349,-2.3413,0.0,0.0,0.0,0.0,0.0,0.0,0.0,0.0,0.0,0.0,0.0,0.0,0.0,0.0,0.0,0.0,0.0,0.0,0.0,0.0,0.0,0.0,0.0,0.0,0.0,0.0,0.0,0.0,0.0,0.0,0.0,0.0,0.0,0.0,0.0,0.0,0.0,0.0,0.0,0.0,0.0,0.0,0.0,0.0,2.7493,2.5725,0.0,0.0,0.0,0.0,0.0,0.0,0.0,0.0,0.0,0.0,0.0,0.0,0.0,2.3528,2.4744,2.4871,2.4766,2.4498,2.4766,2.4926,2.4895,2.4123,2.3623,2.3374,2.306,0.0,2.245,2.0995,0.0,0.0,0.0,0.0,0.0,0.0,0.0,0.0,0.0,0.0,0.0,0.0,0.0,0.0,0.0,0.0,0.0,0.0,0.0,0.0,0.0,0.0,0.0,0.0,0.0,0.0,0.0,0.0,0.0,0.0,0.0,0.0,0.0,0.0,0.0,0.0,0.0,0.0,0.0,0.0,0.0,-2.3827,-2.5137,-2.6387,-2.7578,-2.8612,0.0,0.0,0.0,0.0,0.0,0.0,0.0,0.0,0.0,0.0,0.0,0.0,0.0,0.0,0.0,0.0,0.0,0.0,0.0,0.0,0.0,0.0,0.0,0.0,0.0,0.0,0.0,0.0,0.0,0.0,0.0,0.0,0.0,0.0,0.0,0.0,0.0,0.0,0.0,2.7307,2.6094,2.4627,2.5085,2.5323,0.0,0.0,0.0,0.0,0.0,0.0,0.0,0.0,0.0,2.4531,2.3762,2.3758,2.4681,2.4233,2.3909,2.3759,2.3909,2.3984,2.3968,2.3555,2.3264,2.3099,2.2678,2.2443,2.2319,2.1057,2.0073,1.925,0.0,0.0,0.0,0.0,1.8953,1.8515,0.0,0.0,0.0,0.0,0.0,0.0,0.0,0.0,0.0,0.0,0.0,0.0,0.0,0.0,0.0,0.0,0.0,0.0,0.0,0.0,0.0,0.0,0.0,0.0,0.0,0.0,0.0,0.0,0.0,0.0,0.0,0.0,0.0,0.0,0.0,0.0,0.0,-2.8524,-2.9124,0.0,0.0,0.0,0.0,0.0,0.0,0.0,0.0,0.0,0.0,0.0,0.0,0.0,0.0,0.0,0.0,0.0,0.0,0.0,0.0,0.0,0.0,0.0,0.0,0.0,0.0,0.0,0.0,0.0,0.0,0.0,0.0,0.0,0.0,0.0,0.0,0.0,0.0,2.6544,2.5631,2.4018,2.4747,2.5009,0.0,0.0,0.0,0.0,0.0,0.0,2.384,2.3371,2.3625,2.4912,2.4049,2.3761,2.4246,2.3478,2.3131,2.3131,2.3131,2.3131,2.3096,2.2778,2.2627,2.2627,2.1987,2.163,2.1417,2.0753,1.9735,1.857,1.8577,1.8166,1.7706,1.8903,1.8921,1.8453,0.0,0.0,0.0,0.0,0.0,0.0,0.0,0.0,0.0,0.0,0.0,0.0,0.0,0.0,0.0,0.0,0.0,0.0,0.0,0.0,0.0,0.0,0.0,0.0,0.0,0.0,0.0,0.0,0.0,0.0,0.0,0.0,0.0,0.0,0.0,0.0,0.0,0.0,0.0,0.0,0.0,0.0,0.0,0.0,0.0,0.0,0.0,0.0,0.0,0.0,0.0,0.0,0.0,0.0,0.0,0.0,0.0,0.0,0.0,0.0,0.0,0.0,0.0,0.0,0.0,0.0,0.0,0.0,0.0,0.0,0.0,0.0,0.0,0.0,0.0,0.0,0.0,0.0,0.0,2.4487,2.6114,0.0,0.0,0.0,0.0,2.3665,2.289,2.276,2.3574,2.3354,2.3526,2.4317,2.3934,2.3551,2.325,2.304,2.2916,2.2916,2.2916,2.2916,2.29,2.2232,2.1948,2.1897,2.1228,2.0622,2.0122,2.0118,1.9835,1.9276,1.8728,1.8214,1.7841,1.8375,1.8517,1.8553,0.0,0.0,0.0,0.0,0.0,0.0,0.0,0.0,0.0,0.0,0.0,0.0,0.0,0.0,0.0,0.0,0.0,0.0,0.0,0.0,0.0,0.0,0.0,0.0,0.0,0.0,0.0,0.0,0.0,0.0,0.0,0.0,0.0,0.0,0.0,0.0,0.0,0.0,0.0,0.0,0.0,0.0,0.0,0.0,0.0,0.0,0.0,0.0,0.0,0.0,0.0,0.0,0.0,0.0,0.0,0.0,0.0,0.0,0.0,0.0,0.0,0.0,0.0,0.0,0.0,0.0,0.0,0.0,0.0,0.0,0.0,0.0,0.0,0.0,0.0,0.0,0.0,0.0,0.0,2.4263,2.4787,0.0,2.3927,2.3756,2.3538,2.3171,2.2885,2.3032,2.3764,2.3698,2.3869,2.4346,2.3597,2.3014,2.2633,2.1929,2.1537,2.1537,2.1537,2.1537,2.1537,2.13,2.1189,2.1189,2.0783,2.0365,1.9985,1.9797,1.9511,1.9219,1.9458,1.9155,1.8768,1.9724,1.9602,1.897,0.0,0.0,0.0,0.0,0.0,0.0,0.0,0.0,0.0,0.0,0.0,0.0,0.0,0.0,0.0,0.0,0.0,0.0,0.0,0.0,0.0,0.0,0.0,0.0,0.0,0.0,0.0,0.0,0.0,0.0,0.0,0.0,0.0,0.0,0.0,0.0,0.0,0.0,0.0,0.0,0.0,0.0,-3.0237,0.0,0.0,0.0,0.0,0.0,0.0,0.0,0.0,0.0,0.0,0.0,0.0,0.0,0.0,0.0,0.0,0.0,0.0,0.0,0.0,0.0,0.0,0.0,0.0,0.0,0.0,0.0,0.0,0.0,0.0,0.0,0.0,0.0,0.0,0.0,2.5463,2.4164,2.4571,2.4712,2.4011,2.3861,2.3803,2.3806,2.3737,2.3962,2.4642,2.4434,2.4483,2.4876,2.395,2.3073,2.2378,2.1681,2.1148,2.0794,2.0794,2.0794,2.0794,2.0794,2.0794,2.0794,2.0512,2.0323,2.0131,1.9797,1.9581,1.9435,1.9919,1.9827,1.9537,2.0378,2.0016,1.9159,0.0,0.0,0.0,0.0,0.0,0.0,0.0,0.0,0.0,0.0,0.0,0.0,0.0,0.0,0.0,0.0,0.0,0.0,0.0,0.0,0.0,0.0,0.0,0.0,0.0,0.0,0.0,0.0,0.0,0.0,0.0,0.0,0.0,0.0,0.0,0.0,0.0,0.0,0.0,0.0,0.0,0.0,-3.007,0.0,0.0,0.0,0.0,0.0,0.0,0.0,0.0,0.0,0.0,0.0,0.0,0.0,0.0,0.0,0.0,0.0,0.0,0.0,0.0,0.0,0.0,0.0,0.0,0.0,0.0,0.0,0.0,0.0,0.0,0.0,0.0,0.0,2.5234,2.6073,2.6056,2.4275,2.5705,2.643,2.5353,2.499,2.5046,2.5551,2.5365,2.549,2.6113,2.5472,2.5316,2.5777,2.4955,2.3885,2.2556,2.2492,2.1891,2.0859,2.0859,2.0843,2.0827,2.0794,2.0794,2.0794,2.0512,2.041,2.0376,2.0131,2.0021,2.0025,2.0097,2.0074,2.0074,2.0074,1.9653,1.9101,0.0,0.0,0.0,0.0,0.0,0.0,0.0,0.0,0.0,0.0,0.0,0.0,0.0,0.0,0.0,0.0,0.0,0.0,0.0,0.0,0.0,0.0,0.0,0.0,0.0,0.0,0.0,0.0,0.0,0.0,0.0,0.0,0.0,0.0,0.0,0.0,0.0,0.0,0.0,0.0,0.0,0.0,-2.9428,0.0,0.0,0.0,0.0,0.0,0.0,0.0,0.0,0.0,0.0,0.0,0.0,0.0,0.0,0.0,0.0,0.0,0.0,0.0,0.0,0.0,0.0,0.0,0.0,0.0,0.0,0.0,0.0,0.0,0.0,0.0,0.0,2.5449,2.4727,2.4912,2.5152,2.5227,2.5671,2.6021,2.6148,2.5796,2.5575,2.5535,2.5227,2.5161,2.538,2.519,2.5172,2.5351,2.4846,2.4262,2.3652,2.3587,2.2998,2.189,2.1923,2.1665,2.1151,2.0925,2.0794,2.0794,2.0728,2.0579,2.041,2.0308,2.0426,2.0622,2.0204,1.9864,1.9649,1.9649,1.9434,1.9101,0.0,0.0,0.0,0.0,0.0,0.0,0.0,0.0,0.0,0.0,0.0,0.0,0.0,0.0,0.0,0.0,0.0,0.0,0.0,0.0,0.0,0.0,0.0,0.0,0.0,0.0,0.0,0.0,0.0,0.0,0.0,0.0,0.0,0.0,0.0,0.0,0.0,0.0,0.0,0.0,0.0,0.0,-2.9008,-2.9746,-2.9749,-2.9374,-2.9267,-2.9086,-2.8777,-2.7875,0.0,0.0,0.0,0.0,0.0,0.0,0.0,0.0,0.0,0.0,0.0,0.0,0.0,0.0,0.0,0.0,0.0,0.0,0.0,0.0,0.0,0.0,0.0,0.0,2.6833,2.6024,2.5523,2.5764,2.6043,2.6154,2.6431,2.6742,2.7077,2.6786,2.6657,2.6839,2.6443,2.6068,2.5775,2.568,2.5686,2.5743,2.5478,2.5056,2.4428,2.4301,2.3546,2.2146,2.2004,2.1697,2.1294,2.0958,2.0794,2.0794,2.0794,2.0728,2.0579,2.0579,2.0677,0.0,0.0,0.0,0.0,0.0,1.942,1.9236,0.0,0.0,0.0,0.0,0.0,0.0,0.0,0.0,0.0,0.0,0.0,0.0,0.0,0.0,0.0,0.0,0.0,0.0,0.0,0.0,0.0,0.0,0.0,0.0,0.0,0.0,0.0,0.0,0.0,0.0,0.0,0.0,0.0,0.0,0.0,0.0,0.0,0.0,0.0,0.0,0.0,0.0,-2.8829,-2.9485,-2.9238,-2.8558,-2.8772,-2.8772,-2.8345,-2.6312,0.0,0.0,0.0,0.0,0.0,0.0,0.0,0.0,0.0,0.0,0.0,0.0,0.0,0.0,0.0,0.0,0.0,0.0,0.0,0.0,0.0,0.0,0.0,0.0,2.752,2.7102,2.7306,2.7864,2.7917,2.7042,2.7579,2.8059,2.8144,2.7834,2.7934,2.8646,2.8219,2.7634,2.688,0.0,0.0,0.0,0.0,2.5912,2.4883,2.4731,2.3791,2.2074,2.1732,2.1515,2.1402,2.1071,2.0893,2.086,2.086,2.0827,2.0794,2.0794,2.0794,2.0791,2.0814,2.0825,2.0676,1.9811,1.9479,1.942,0.0,0.0,0.0,0.0,0.0,0.0,0.0,0.0,0.0,0.0,0.0,0.0,0.0,0.0,0.0,0.0,0.0,0.0,0.0,0.0,0.0,0.0,0.0,0.0,0.0,0.0,0.0,0.0,0.0,0.0,0.0,0.0,0.0,0.0,0.0,0.0,0.0,0.0,0.0,0.0,0.0,0.0,-2.9082,-2.8863,-2.9032,-2.9176,-2.7767,-2.7469,-2.6673,-1.9562,-1.5512,-1.2294,-0.5605,0.0,0.0,0.0,0.0,0.0,0.0,0.0,0.0,0.0,0.0,0.0,0.0,0.0,0.0,0.0,0.0,0.0,0.0,0.0,0.0,3.0586,2.9193,2.8347,2.9704,2.9463,2.8829,2.7956,2.7933,2.8262,2.8984,2.8705,2.8518,2.8682,2.8384,2.8085,2.7751,2.7713,2.7335,2.6602,2.6527,2.5924,2.4744,2.4982,2.4419,2.311,0.0,0.0,2.2039,2.1735,2.1464,2.1183,2.1183,2.1055,2.0794,2.0794,2.0794,2.0777,2.0584,2.0369,2.0122,1.9683,1.9347,1.9176,0.0,0.0,0.0,0.0,0.0,0.0,0.0,0.0,0.0,0.0,0.0,0.0,0.0,0.0,0.0,0.0,0.0,0.0,0.0,0.0,0.0,0.0,0.0,0.0,0.0,0.0,0.0,0.0,0.0,0.0,0.0,0.0,0.0,0.0,0.0,0.0,0.0,0.0,0.0,0.0,0.0,0.0,-2.3519,-2.7366,-2.8895,-2.8297,-2.3412,-2.1735,-2.0458,-1.1413,-0.5214,-0.0433,0.4481,1.185,1.8812,0.0,0.0,0.0,0.0,0.0,0.0,0.0,0.0,0.0,0.0,0.0,0.0,0.0,0.0,3.0228,0.0,0.0,3.0176,3.1651,3.06,2.987,3.0635,3.0133,2.9401,2.8792,2.8674,2.882,2.9265,2.9115,2.9012,2.9034,2.8808,2.8252,2.735,2.744,2.6926,2.5641,2.5833,2.5474,2.4507,2.4624,2.4187,2.3192,2.301,2.2677,2.2248,2.194,2.1617,2.1309,2.1309,2.1119,2.0794,2.0794,2.0794,2.0794,2.0646,2.0426,2.015,1.9869,1.9581,1.9273,0.0,0.0,0.0,0.0,0.0,0.0,0.0,0.0,0.0,0.0,0.0,0.0,0.0,0.0,0.0,0.0,0.0,0.0,0.0,0.0,0.0,0.0,0.0,0.0,0.0,0.0,0.0,0.0,0.0,0.0,0.0,0.0,0.0,0.0,0.0,0.0,0.0,0.0,0.0,0.0,0.0,0.0,-1.983,-2.1498,-2.2754,-2.2696,-1.6031,-1.3476,-1.1834,-0.256,0.5264,1.1616,1.4663,2.0255,2.5697,2.5931,2.6138,0.0,0.0,0.0,0.0,0.0,0.0,0.0,0.0,0.0,3.0414,2.9544,3.056,3.1386,3.0649,3.1172,3.1837,3.2272,3.1619,3.1012,3.096,3.0349,2.9769,2.939,2.9368,2.9347,2.9323,2.9323,2.9344,2.9407,2.92,2.8478,2.7129,2.7109,2.6444,2.4962,2.5169,2.4935,2.4151,2.4101,2.3708,2.2995,2.2616,2.2439,2.2412,2.2141,2.184,2.1479,2.1371,2.1151,2.0893,2.0827,2.0794,2.0794,2.0794,2.0646,2.0376,2.0096,1.9797,1.9457,0.0,0.0,0.0,0.0,0.0,0.0,0.0,0.0,0.0,0.0,0.0,0.0,0.0,0.0,0.0,0.0,0.0,0.0,0.0,0.0,0.0,0.0,0.0,0.0,0.0,0.0,0.0,0.0,0.0,0.0,0.0,0.0,0.0,0.0,0.0,0.0,0.0,0.0,0.0,0.0,0.0,0.0,-2.6721,-0.5161,-0.0989,-0.6332,-0.4158,-0.3097,-0.1491,0.6962,1.1421,1.4709,2.2081,2.5546,2.6869,2.6791,0.0,2.7276,2.7053,2.7334,2.8012,2.9444,3.0302,3.1356,0.0,0.0,3.4107,3.276,3.3215,3.3382,3.1908,3.1708,3.2095,3.3018,3.186,3.0885,3.1047,3.0416,2.982,2.9589,2.957,2.9513,2.9407,2.9386,2.9386,2.9407,2.9386,2.9169,2.8746,2.8036,2.7132,2.6049,2.5334,2.4518,2.3601,2.3583,2.3383,2.2995,2.2952,2.2902,2.2825,2.2799,2.2554,2.2147,2.1554,2.1277,2.1214,2.0925,2.0794,2.0794,2.0794,2.0646,2.0376,2.0096,1.9797,1.9457,0.0,0.0,0.0,0.0,0.0,0.0,0.0,0.0,0.0,0.0,0.0,0.0,0.0,0.0,0.0,0.0,0.0,0.0,0.0,0.0,0.0,0.0,0.0,0.0,0.0,0.0,0.0,0.0,0.0,0.0,0.0,0.0,0.0,0.0,0.0,0.0,0.0,0.0,0.0,0.0,0.0,0.0,-1.4483,0.0431,0.7545,0.9284,0.7273,0.6879,0.0,0.0,2.0738,2.2316,2.6455,2.7905,2.8066,2.8284,2.8289,0.0,2.8066,2.8937,2.9944,0.0,3.1117,3.2159,3.2787,3.3361,3.3462,3.2502,3.3305,3.3892,3.2857,3.3173,3.3787,0.0,3.3058,3.2019,3.2041,3.0973,3.009,2.982,3.0303,3.0347,2.9588,2.9531,2.9531,2.9531,2.9431,2.9142,2.8519,2.758,2.6643,2.5771,2.4784,2.4057,2.3685,2.3667,2.3602,2.3468,2.3422,2.333,2.3182,2.3133,2.2849,2.2341,2.1895,2.1691,2.1631,2.1493,2.1417,2.1355,2.1183,2.1023,2.0877,2.0376,2.0045,1.9762,0.0,0.0,0.0,0.0,0.0,0.0,0.0,0.0,0.0,0.0,0.0,0.0,0.0,0.0,0.0,0.0,0.0,0.0,0.0,0.0,0.0,0.0,0.0,0.0,0.0,0.0,0.0,0.0,0.0,0.0,0.0,0.0,0.0,0.0,0.0,0.0,0.0,0.0,0.0,0.0,0.0,0.0,-0.0183,0.6525,1.3388,1.9056,1.6074,1.5628,0.0,0.0,2.6783,2.7755,2.8836,2.9044,2.895,2.9304,2.9141,2.8857,2.8876,3.0028,0.0,3.0775,3.2015,3.3199,3.2804,3.3408,3.3832,3.3138,3.3904,3.451,3.3857,3.4376,3.4888,3.4852,3.3695,3.2735,3.2455,3.1258,3.0424,3.0338,3.1052,3.1262,3.0547,3.0203,2.9924,2.9717,2.9589,2.9269,2.8634,2.7436,2.6503,2.5911,2.4647,2.3959,2.3878,2.3878,2.3858,2.3795,2.3735,2.3646,2.3508,2.3445,2.3098,2.2546,2.233,2.2136,2.201,2.1969,2.1899,2.1811,2.1509,2.1386,2.1324,2.0844,2.0444,2.015,0.0,0.0,0.0,0.0,0.0,0.0,0.0,0.0,0.0,0.0,0.0,0.0,0.0,0.0,0.0,0.0,0.0,0.0,0.0,0.0,0.0,0.0,0.0,0.0,0.0,0.0,0.0,0.0,0.0,0.0,0.0,0.0,0.0,0.0,0.0,0.0,0.0,0.0,0.0,0.0,0.0,0.0,1.1581,1.6459,1.9053,2.018,2.1023,0.0,0.0,0.0,2.6984,2.8544,2.8968,2.923,0.0,2.9396,2.9313,2.9206,2.9351,0.0,3.096,3.1532,3.3275,3.4963,3.5393,3.6349,3.695,3.6138,3.6005,3.5797,3.4983,3.4889,3.4679,3.4031,3.3184,3.2407,3.1808,3.102,3.0733,3.1376,3.1709,3.2094,0.0,3.1688,3.072,2.9943,2.9886,2.9867,2.9848,2.8133,2.7184,2.7165,2.5405,2.4357,2.4079,2.4097,2.3981,2.3795,2.3795,2.3795,2.3795,2.3714,2.3445,2.2977,2.2832,2.2617,2.2368,2.2096,2.1998,2.1969,2.1688,2.1582,2.1568,2.1355,2.0974,2.0563,0.0,0.0,0.0,0.0,0.0,0.0,0.0,0.0,0.0,0.0,0.0,0.0,0.0,0.0,0.0,0.0,0.0,0.0,0.0,0.0,0.0,0.0,0.0,0.0,0.0,0.0,0.0,0.0,0.0,0.0,0.0,0.0,0.0,0.0,0.0,0.0,0.0,0.0,0.0,0.0,0.0,0.0,1.0388,1.2995,1.5169,1.7113,0.0,0.0,0.0,0.0,2.7627,2.8879,2.9104,2.9302,2.9517,2.9723,2.9834,2.988,2.9929,0.0,3.2029,3.1618,3.3306,3.4979,3.4506,3.5124,3.5715,3.5487,3.4947,3.4475,3.4395,3.4364,3.434,3.424,3.3527,3.3122,3.3499,3.2324,3.1732,3.2529,3.3219,0.0,0.0,0.0,0.0,3.091,3.0288,2.9902,2.9902,2.8282,2.7327,2.7327,2.5587,2.4596,2.4493,2.4493,2.4426,2.4266,2.4078,2.3999,2.3981,2.3837,2.3689,2.3535,2.3477,2.3392,2.3277,2.3165,2.3014,2.2849,2.2512,2.2296,2.2119,2.1965,2.179,2.1595,0.0,0.0,0.0,0.0,0.0,0.0,0.0,0.0,0.0,0.0,0.0,0.0,0.0,0.0,0.0,0.0,0.0,0.0,0.0,0.0,0.0,0.0,0.0,0.0,0.0,0.0,0.0,0.0,0.0,0.0,0.0,0.0,0.0,0.0,0.0,0.0,0.0,0.0,0.0,0.0,0.0,0.0,0.8711,1.0871,1.2783,0.0,0.0,0.0,0.0,0.0,2.678,2.7849,2.8444,2.8989,2.9447,2.9769,2.9998,3.0194,3.0303,3.137,3.2377,3.2075,3.348,3.4836,3.4543,3.4882,3.5174,3.4901,3.4366,3.391,3.3799,3.4003,3.4245,3.4384,3.3992,3.3852,3.4379,3.3258,3.2849,3.4016,3.4684,3.5042,0.0,0.0,0.0,3.2093,3.113,3.0571,3.0571,2.8907,2.779,2.7471,2.6019,2.5081,2.4779,2.4719,2.4629,2.45,2.4374,2.4248,2.4097,2.4077,2.3959,2.3795,2.3878,2.3816,2.3624,2.3624,2.3468,2.3206,2.29,2.2669,2.2402,2.222,2.2022,2.1866,0.0,0.0,0.0,0.0,0.0,0.0,0.0,0.0,0.0,0.0,0.0,0.0,0.0,0.0,0.0,0.0,0.0,0.0,0.0,0.0,0.0,0.0,0.0,0.0,0.0,0.0,0.0,0.0,0.0,0.0,0.0,0.0,0.0,0.0,0.0,0.0,0.0,0.0,0.0,0.0,0.0,0.0,0.7251,1.051,0.0,0.0,0.0,0.0,0.0,0.0,0.0,2.5782,2.7157,2.8329,2.9221,2.9486,2.9825,3.0166,3.0492,3.117,3.1988,3.2768,3.3653,3.4534,3.5324,3.5546,3.5334,3.452,3.4311,3.4058,0.0,0.0,3.4377,3.4474,3.4501,3.451,3.4539,3.3873,3.3992,0.0,0.0,0.0,0.0,0.0,0.0,3.3401,0.0,3.1806,3.1806,2.9967,2.8517,2.7644,2.6708,2.581,2.4929,2.4779,2.4645,2.4532,2.4645,2.451,2.4154,2.441,2.4284,2.386,2.406,2.3923,2.3576,2.3576,2.3417,2.3126,2.2902,2.2712,2.2497,2.2226,2.1794,2.1464,0.0,0.0,0.0,0.0,0.0,0.0,0.0,0.0,0.0,0.0,0.0,0.0,0.0,0.0,0.0,0.0,0.0,0.0,0.0,0.0,0.0,0.0,0.0,0.0,0.0,0.0,0.0,0.0,0.0,0.0,0.0,0.0,0.0,0.0,0.0,0.0,0.0,0.0,0.0,0.0,0.0,0.0,0.7043,0.0,0.0,0.0,0.0,0.0,0.0,0.0,0.0,0.0,0.0,2.8052,2.8793,2.9078,2.9585,3.0053,3.0182,3.0957,3.164,3.1266,3.2346,3.3413,3.3023,3.3454,3.3866,3.3683,3.3105,3.2765,0.0,0.0,0.0,3.5388,3.5056,0.0,3.6308,3.5254,0.0,3.584,0.0,3.5918,3.5663,3.5834,0.0,0.0,3.2776,3.1872,3.1872,3.0222,2.888,2.8001,2.7015,2.6063,2.5126,2.493,2.4888,2.4936,2.4888,2.4746,2.4543,2.4757,2.4747,2.4572,2.4765,2.4712,2.4476,2.4476,2.4227,2.3819,2.3455,2.3177,2.2908,2.2544,2.2315,2.222,0.0,0.0,0.0,0.0,0.0,0.0,0.0,0.0,0.0,0.0,0.0,0.0,0.0,0.0,0.0,0.0,0.0,0.0,0.0,0.0,0.0,0.0,0.0,0.0,0.0,0.0,0.0,0.0,0.0,0.0,0.0,0.0,0.0,0.0,0.0,0.0,0.0,0.0,0.0,0.0,0.0,0.0,0.0,0.0,0.0,0.0,0.0,0.0,0.0,0.0,0.0,2.5983,2.6741,2.7461,2.8076,2.8488,0.0,2.9446,2.9898,3.0448,3.0927,3.1017,3.1797,3.2526,3.2447,3.2814,3.3083,3.2795,3.2318,0.0,3.2222,3.2886,0.0,0.0,0.0,0.0,3.6509,3.5849,3.5577,0.0,3.6204,0.0,3.5813,3.5545,3.5172,0.0,3.3289,3.2474,3.2462,3.0847,2.9532,2.8656,2.7744,2.6609,2.5258,2.5196,2.5139,2.5109,2.5069,2.5004,2.4873,2.4988,2.499,2.4924,0.0,2.4846,2.4662,2.4606,2.4335,2.3901,2.3692,2.341,2.3063,2.2378,2.1989,2.177,0.0,0.0,0.0,0.0,0.0,0.0,0.0,0.0,0.0,0.0,0.0,0.0,0.0,0.0,0.0,0.0,0.0,0.0,0.0,0.0,0.0,0.0,0.0,0.0,0.0,0.0,0.0,0.0,0.0,0.0,0.0,0.0,0.0,0.0,0.0,0.0,0.0,0.0,0.0,0.0,0.0,0.0,0.0,0.0,0.0,0.0,0.0,0.0,0.0,0.0,2.3926,2.5538,2.6283,2.6928,2.7486,2.7968,2.8352,2.8766,2.9644,2.9829,3.0034,3.1111,3.1415,3.1634,3.2396,3.2609,3.243,3.1835,0.0,3.1543,3.1011,3.2168,3.328,3.3632,0.0,3.586,3.6029,3.6013,3.6233,3.6914,3.6384,3.6135,3.659,3.5383,3.4459,3.4226,3.3471,3.3027,3.3037,3.15,3.0155,2.9162,2.8248,2.6972,2.5362,2.5435,2.5365,2.5147,2.5253,2.5234,2.5108,2.5163,2.5155,2.512,2.4965,2.4789,2.4582,2.4482,2.4174,2.3819,2.3738,2.3459,2.2972,2.204,2.125,2.067,0.0,0.0,0.0,0.0,0.0,0.0,0.0,0.0,0.0,0.0,0.0,0.0,0.0,0.0,0.0,0.0,0.0,0.0,0.0,0.0,0.0,0.0,0.0,0.0,0.0,0.0,0.0,0.0,0.0,0.0,0.0,0.0,0.0,0.0,0.0,0.0,0.0,0.0,0.0,0.0,0.0,0.0,0.0,0.0,0.0,0.0,0.0,0.0,0.0,0.0,2.3827,2.5184,2.619,2.7387,2.8421,2.8297,2.8617,2.9107,2.9594,2.9406,2.9184,2.9683,2.9897,3.0045,3.0381,3.0484,0.0,0.0,3.0656,3.0848,3.1435,3.1792,3.2693,3.4863,3.4967,3.5236,3.6623,3.6287,3.5928,0.0,3.5845,3.522,0.0,0.0,0.0,0.0,0.0,3.2094,3.2193,3.1248,2.9943,2.8362,2.6776,2.5818,2.5553,2.5406,2.5361,2.5426,2.5338,2.5258,2.5192,2.5417,2.5417,2.527,2.5467,0.0,2.5072,2.5051,2.4809,2.4409,2.4025,2.3249,2.2306,2.1793,2.0924,1.9982,0.0,0.0,0.0,0.0,0.0,0.0,0.0,0.0,0.0,0.0,0.8773,0.0,0.0,0.0,0.0,0.0,0.0,0.0,0.0,0.0,0.0,0.0,0.0,0.0,0.0,0.0,0.0,0.0,0.0,0.0,0.0,0.0,0.0,0.0,0.0,0.0,0.0,0.0,0.0,0.0,0.0,0.0,0.0,0.0,0.0,0.0,0.0,0.0,0.0,0.0,2.2887,2.4357,2.5913,2.6921,2.7549,2.7436,2.7579,2.7936,2.8621,2.8644,2.8494,2.876,2.8879,2.8989,2.9268,0.0,0.0,0.0,3.0081,3.0279,3.0904,3.1379,0.0,3.3362,3.4032,3.4672,3.5427,3.563,0.0,3.5553,3.5136,3.435,0.0,0.0,0.0,0.0,0.0,3.1284,3.1857,3.0652,2.9335,2.8032,2.6738,2.5862,2.5447,2.5411,2.5442,2.5499,2.55,2.5398,2.5213,2.5507,2.5424,2.5052,2.5247,0.0,2.4821,2.4766,2.4581,2.4325,2.4085,2.3244,2.2023,2.1078,2.0233,1.9587,0.0,0.0,0.0,0.0,0.0,0.0,0.0,0.5315,0.5997,0.6234,0.6806,0.7907,0.9893,1.0787,0.0,0.0,0.0,0.0,0.0,0.0,0.0,0.0,0.0,0.0,0.0,0.0,0.0,0.0,0.0,0.0,0.0,0.0,0.0,0.0,0.0,0.0,0.0,0.0,0.0,0.0,0.0,0.0,0.0,0.0,0.0,0.0,0.0,0.0,0.0,0.0,2.1867,2.3263,2.5091,2.608,2.6597,2.6521,2.6604,2.6911,2.7729,2.7886,2.7875,2.812,2.8154,2.825,2.8543,2.868,0.0,0.0,2.9635,2.982,3.0171,0.0,3.1352,0.0,3.2802,3.3809,3.4101,3.4774,3.5268,0.0,3.477,0.0,0.0,0.0,0.0,0.0,0.0,0.0,3.1427,2.9806,2.853,2.7843,2.6771,2.5854,2.5186,2.526,2.5302,2.533,2.5418,2.5324,2.5106,2.5366,2.5238,2.4779,2.4913,0.0,0.0,2.4458,2.4295,2.3802,2.0353,1.8358,1.7262,1.5858,1.503,1.4594,0.0,0.0,0.0,0.0,0.0,0.0,0.0,0.3272,0.4779,0.5583,0.6148,0.6907,0.7899,0.8456,0.0,0.0,0.0,0.0,0.0,0.0,0.0,0.0,0.0,0.0,0.0,0.0,0.0,0.0,0.0,0.0,0.0,0.0,0.0,0.0,0.0,0.0,0.0,0.0,0.0,0.0,0.0,0.0,0.0,0.0,0.0,0.0,0.0,0.0,0.0,0.0,0.0,2.1894,2.316,2.5168,2.6936,2.6318,0.0,0.0,2.7622,2.7516,2.7352,2.7666,2.7754,2.7823,2.8013,0.0,2.8591,2.8842,2.9116,2.9436,2.9715,2.9825,0.0,0.0,0.0,3.2301,3.3805,3.418,3.4583,3.523,0.0,0.0,0.0,0.0,0.0,0.0,0.0,0.0,3.0363,2.8677,2.7631,2.7555,2.5823,2.4847,2.4751,2.4657,2.4657,2.4762,2.4652,2.4672,2.4742,2.4789,2.4767,2.4707,2.4781,0.0,0.0,2.4752,2.4578,2.283,0.8191,0.2413,0.2161,0.0997,-0.0119,-0.1045,0.0,0.0,0.0,0.0,0.0,0.0,0.0,0.1766,0.2823,0.3479,0.4138,0.4807,0.5552,0.5822,0.0,0.0,0.0,0.0,0.0,0.0,0.0,0.0,0.0,0.0,0.0,0.0,0.0,0.0,0.0,0.0,0.0,0.0,0.0,0.0,0.0,0.0,0.0,0.0,0.0,0.0,0.0,0.0,0.0,0.0,0.0,0.0,0.0,0.0,0.0,0.0,0.0,0.0,2.1212,2.289,0.0,0.0,2.5441,2.5885,2.6266,2.6286,2.6095,2.5849,2.6252,2.6703,2.6584,0.0,2.7901,2.8474,2.873,2.8956,2.9377,2.9551,2.9793,0.0,0.0,0.0,3.288,3.357,3.4232,3.4975,0.0,0.0,0.0,0.0,0.0,0.0,0.0,0.0,2.9076,2.7428,2.6381,2.6184,2.4942,2.4097,2.3732,2.3712,2.3546,2.3269,2.329,2.2984,2.2424,2.2628,2.2341,2.1614,2.0171,0.0,0.0,1.7459,1.4794,1.1087,0.4657,0.0555,-0.1799,-0.226,-0.1741,-0.0809,0.0,0.0,0.0,0.0,0.0,0.0,-0.0336,0.041,0.1111,0.1906,0.2439,0.3055,0.3951,0.4175,0.4897,0.6406,0.0,0.0,0.0,0.0,0.0,0.0,0.0,0.0,0.0,0.0,0.0,0.0,0.0,0.0,0.0,0.0,0.5822,0.5756,0.0,0.0,0.0,0.0,0.0,0.0,0.0,0.0,0.0,0.0,0.0,0.0,0.0,0.0,0.0,0.0,0.0,0.0,0.0,0.0,0.0,0.0,2.4364,2.4894,2.4942,2.5067,2.5102,2.46,2.5146,2.5794,0.0,0.0,2.7396,2.8112,2.8324,2.8554,2.9123,2.9375,2.9532,0.0,0.0,3.1151,3.1933,3.2821,3.3674,0.0,0.0,0.0,0.0,0.0,0.0,0.0,0.0,0.0,2.7673,2.6326,2.5511,2.5382,2.4197,2.341,2.3151,2.2788,2.2436,2.2089,2.1556,2.0829,1.9991,1.993,1.9187,1.79,1.618,0.0,0.0,1.0049,0.5745,0.0047,-0.1685,-0.4582,-0.7791,-0.8078,-0.7185,-0.5897,0.0,0.0,0.0,0.0,0.0,0.0,0.0,-0.0807,0.0,0.1444,0.1457,0.1848,0.3323,0.3949,0.4336,0.4527,0.0,0.0,0.0,0.0,0.0,0.0,0.0,0.0,0.0,0.0,0.0,0.0,0.0,0.0,0.0,0.0,0.0,0.0,0.0,0.0,0.0,0.0,0.0,0.0,0.0,0.0,0.0,0.0,0.0,0.0,0.0,0.0,0.0,0.0,0.0,0.0,0.0,0.0,0.0,0.0,2.3694,2.4658,2.3934,2.4106,2.4522,2.4506,2.4804,2.5278,0.0,0.0,2.7307,2.7642,2.7926,2.829,2.8892,2.9163,2.9375,2.957,0.0,0.0,3.1099,3.1914,0.0,0.0,0.0,0.0,0.0,0.0,0.0,0.0,0.0,0.0,2.6202,2.5455,2.5197,2.5572,2.3537,2.2696,2.3289,2.1919,2.1366,2.1568,1.9464,1.8258,1.7917,1.682,1.5494,1.3938,0.0,0.0,0.0,0.3978,-0.0241,-0.7762,-1.3531,-1.6978,-1.884,-1.9716,-2.0594,-2.1378,0.0,0.0,0.0,0.0,0.0,0.0,0.0,-0.2379,-0.1595,-0.0706,0.014,0.0973,0.1977,0.2536,0.3252,0.4389,0.0,0.0,0.0,0.0,0.0,0.0,0.0,0.0,0.0,0.0,0.0,0.0,0.0,0.0,0.0,0.0,0.0,0.0,0.0,0.0,0.0,0.0,0.0,0.0,0.0,0.0,0.0,0.0,0.0,0.0,0.0,0.0,0.0,0.0,0.0,0.0,0.0,0.0,0.0,0.0,0.0,0.0,2.3984,2.4045,2.4122,2.3926,2.4527,2.5188,2.5215,2.5981,2.6875,2.7396,2.756,2.7823,2.8525,2.8966,2.9272,2.9375,2.9681,0.0,0.0,0.0,0.0,0.0,0.0,0.0,0.0,0.0,0.0,0.0,0.0,0.0,2.5469,2.4195,2.3637,2.395,2.3314,2.2391,2.1258,2.082,1.9734,1.803,1.735,1.5599,1.2899,1.2569,1.1303,0.0,0.0,0.0,0.0,-0.1477,-0.5093,-0.9126,-1.0994,-1.3236,-1.5459,-1.5697,-1.6876,-1.8285,0.0,0.0,0.0,0.0,0.0,0.0,0.0,-0.4056,-0.3101,-0.2298,-0.1384,-0.0483,0.0419,0.1295,0.2246,0.3321,0.0,0.0,0.0,0.0,0.0,0.0,0.0,0.0,0.0,0.0,0.0,0.0,0.0,0.0,0.0,0.0,0.0,0.0,0.0,0.0,0.0,0.0,0.0,0.0,0.0,0.0,1.0577,0.0,0.0,0.0,0.0,0.0,0.0,0.0,0.0,0.0,0.0,0.0,0.0,0.0,2.3694,2.4199,0.0,2.3917,2.4051,2.3849,2.4228,0.0,0.0,2.5546,2.6401,2.6901,2.7308,2.7783,2.8362,2.8827,2.9237,2.9613,2.9757,0.0,0.0,0.0,0.0,0.0,0.0,0.0,0.0,0.0,0.0,0.0,0.0,0.0,2.4836,2.3513,2.2816,2.2851,2.2362,2.1512,2.0342,1.9341,1.8016,1.6384,1.4478,1.2173,0.9559,0.8584,0.6753,0.0,0.0,0.0,0.0,-0.5337,-0.8001,-1.0597,-1.1028,-1.256,-1.4585,-1.5149,-1.6401,-1.7719,0.0,0.0,0.0,0.0,0.0,0.0,0.0,0.0,0.0,0.0,-0.3055,-0.2366,-0.1249,0.0204,0.1233,0.0,0.0,0.0,0.0,0.0,0.0,0.0,0.0,0.0,0.0,0.0,0.0,0.7637,0.707,0.6714,0.6466,0.0,0.0,0.0,0.0,0.0,0.0,0.0,0.0,0.0,0.0,0.0,0.0,0.0,0.0,0.0,0.0,0.0,0.0,0.0,0.0,0.0,0.0,0.0,0.0,0.0,0.0,0.0,0.0,2.3831,2.4239,2.4227,0.0,0.0,0.0,0.0,0.0,2.6248,2.7162,2.801,2.8281,2.8755,2.9365,3.018,3.0064,0.0,0.0,0.0,0.0,0.0,0.0,0.0,0.0,0.0,0.0,0.0,0.0,0.0,2.4178,2.3245,2.2477,2.2001,2.0649,2.0034,2.014,1.769,1.6223,1.5802,1.1124,0.8374,0.7338,0.4831,0.2182,0.0,0.0,0.0,0.0,-0.784,-0.9416,-1.2138,-1.3114,-1.4349,-1.5788,-1.7181,-1.8363,-1.9213,0.0,0.0,0.0,0.0,0.0,0.0,0.0,0.0,0.0,0.0,0.0,-0.2948,-0.2698,-0.1612,0.0,0.0,0.0,0.0,0.0,0.0,0.0,0.0,0.0,0.0,0.0,0.0,0.0,0.6796,0.614,0.5725,0.5434,0.53,0.0,0.0,0.0,0.0,0.0,0.0,0.0,0.0,0.0,0.0,0.0,0.0,0.0,0.0,1.6631,1.7512,0.0,0.0,0.0,0.0,0.0,0.0,0.0,0.0,2.3661,2.428,2.4068,0.0,2.4694,2.4466,2.4742,2.5121,0.0,0.0,0.0,0.0,0.0,2.7914,2.768,2.897,3.015,3.0417,3.1059,3.2098,3.3669,0.0,0.0,0.0,0.0,0.0,0.0,0.0,0.0,0.0,0.0,2.4181,2.2796,2.2108,2.0809,1.88,1.7898,1.7523,1.7737,1.71,1.4745,1.0809,0.9597,0.6488,0.1728,0.1087,-0.0764,0.0,0.0,0.0,-0.8038,-0.9703,-1.1208,-1.2472,-1.2725,-1.3527,-1.4619,-1.4971,-1.5966,-1.7136,0.0,0.0,0.0,0.0,0.0,0.0,0.0,0.0,0.0,0.0,0.0,0.0,0.0,0.0,0.0,0.0,0.0,0.0,0.0,0.0,0.0,0.0,0.0,0.0,0.0,0.0,0.0,0.0,0.0,0.5937,0.0,0.0,0.0,0.0,0.0,0.0,0.0,0.0,0.0,0.0,1.1322,0.0,0.0,0.0,0.0,0.0,1.7545,1.8382,0.0,2.0144,2.1202,2.2021,0.0,0.0,0.0,0.0,2.3305,2.3958,2.4118,2.4479,2.4885,2.5074,2.5255,2.5386,2.5479,0.0,0.0,0.0,0.0,2.8394,2.8585,2.9338,3.029,3.1344,3.1562,0.0,0.0,0.0,0.0,0.0,0.0,0.0,0.0,0.0,0.0,0.0,0.0,2.248,2.1354,1.9822,1.8328,1.6932,1.4965,1.4066,1.4248,1.3611,1.1376,0.751,0.569,0.2967,-0.049,-0.2011,-0.3815,0.0,0.0,0.0,-0.946,-1.0754,-1.1733,-1.2609,-1.3533,-1.4231,-1.4846,-1.5879,-1.686,-1.7693,0.0,0.0,0.0,0.0,0.0,0.0,0.0,0.0,0.0,0.0,0.0,0.0,0.0,0.0,0.0,0.0,0.0,0.0,0.0,0.0,0.0,0.0,0.0,0.0,0.0,0.0,0.0,0.0,0.0,0.0,0.0,0.0,0.6277,0.0,0.0,0.0,0.0,0.0,0.0,0.0,1.1703,0.0,0.0,0.0,0.0,0.0,0.0,0.0,0.0,2.0584,2.1513,2.2292,2.1725,0.0,0.0,0.0,0.0,0.0,2.3983,2.4398,2.4888,2.5497,2.5559,2.5447,2.5575,0.0,0.0,0.0,0.0,0.0,0.0,2.9761,0.0,0.0,0.0,0.0,0.0,0.0,0.0,0.0,0.0,0.0,0.0,0.0,0.0,0.0,0.0,2.0412,1.9836,1.7084,1.5371,1.5068,1.1859,0.9918,0.9433,0.865,0.7104,0.4742,0.1177,-0.0977,-0.1843,-0.4674,-0.6653,-0.7899,0.0,0.0,-1.1366,-1.1466,-1.2003,-1.288,-1.4609,-1.5357,-1.5707,-1.7612,-1.8574,-1.893,0.0,0.0,0.0,0.0,0.0,0.0,0.0,0.0,0.0,0.0,0.0,0.0,0.0,0.0,0.0,0.0,0.0,0.0,0.0,0.0,0.0,0.0,0.0,0.0,0.0,0.0,0.0,0.0,0.0,0.0,0.4951,0.5235,0.583,0.0,0.0,0.0,0.849,0.9215,1.0225,1.1509,1.2549,0.0,0.0,0.0,0.0,0.0,0.0,0.0,0.0,2.1465,2.2282,2.2685,2.2422,0.0,0.0,0.0,0.0,0.0,2.393,2.4245,2.4362,2.4639,2.5611,2.6468,2.6434,0.0,0.0,0.0,0.0,0.0,0.0,0.0,0.0,0.0,0.0,0.0,0.0,0.0,0.0,0.0,0.0,0.0,0.0,0.0,0.0,0.0,0.0,1.9456,1.8051,1.4309,1.1742,1.0769,0.8011,0.4858,0.1245,0.378,0.36,0.0594,-0.0981,-0.3352,-0.6367,-0.6924,-0.8201,-1.0156,0.0,-1.144,-1.211,-1.2667,-1.3379,-1.4215,-1.463,-1.5276,-1.5996,-1.6722,-1.7261,-1.7786,0.0,0.0,0.0,0.0,0.0,0.0,0.0,0.0,0.0,0.0,0.0,0.0,0.0,0.0,0.0,0.0,0.0,0.0,0.0,0.0,0.0,0.0,0.0,0.0,0.0,0.0,0.0,0.0,0.0,0.6733,0.7081,0.7427,0.7541,0.7432,0.0,0.0,0.9378,1.0148,1.108,1.2235,0.0,0.0,0.0,0.0,0.0,0.0,0.0,0.0,0.0,0.0,2.286,2.32,2.3009,0.0,0.0,0.0,0.0,0.0,2.3209,2.4023,2.4773,2.5118,2.5966,2.6788,2.6857,0.0,0.0,0.0,0.0,0.0,0.0,0.0,0.0,0.0,0.0,0.0,0.0,0.0,0.0,0.0,0.0,0.0,0.0,0.0,0.0,0.0,0.0,0.0,1.5034,1.1755,0.8676,0.5834,0.3418,0.0637,-0.2502,-0.2482,-0.2768,-0.3493,-0.4688,-0.6401,-0.8624,-0.9585,-1.0731,-1.2006,0.0,-1.3365,-1.3763,-1.4239,-1.4948,-1.5724,-1.6053,-1.6524,-1.7205,-1.797,-1.831,-1.8507,0.0,0.0,0.0,0.0,0.0,0.0,0.0,0.0,0.0,0.0,0.0,0.0,0.0,0.0,0.0,0.0,0.0,0.0,0.0,0.0,0.0,0.0,0.0,0.0,0.0,0.0,0.5942,0.6154,0.7174,0.8051,0.8901,0.9332,0.9231,0.0,0.0,0.0,1.0696,1.119,1.2166,1.3374,0.0,0.0,0.0,0.0,0.0,0.0,0.0,0.0,0.0,0.0,0.0,0.0,0.0,0.0,0.0,2.2671,2.2355,2.2254,2.292,2.4156,2.5347,2.5887,0.0,2.7213,2.7639,0.0,0.0,0.0,0.0,0.0,0.0,0.0,0.0,0.0,0.0,0.0,0.0,0.0,0.0,0.0,0.0,0.0,0.0,0.0,0.0,0.0,0.0,0.0,1.1927,0.8994,0.5501,0.1407,-0.0959,-0.3175,-0.5435,-0.7905,-0.8327,-0.6758,-0.816,-0.9348,-1.0298,-1.1742,-1.2822,-1.3611,-1.431,-1.4914,-1.5395,-1.566,-1.6243,-1.7029,-1.7437,-1.7918,-1.8527,-1.9346,-1.963,-1.9722,0.0,0.0,0.0,0.0,0.0,0.0,0.0,0.0,0.0,0.0,0.0,0.0,0.0,0.0,0.0,0.0,0.0,0.0,0.0,0.0,0.0,0.0,0.0,0.0,0.0,0.4607,0.5142,0.6131,0.6082,0.6714,0.7909,0.8783,0.9551,1.0103,0.0,1.2097,1.2533,1.2533,1.3614,1.5187,1.5245,0.0,0.0,0.0,0.0,0.0,0.0,0.0,0.0,0.0,0.0,0.0,0.0,0.0,2.3403,2.3562,2.3055,2.2737,2.3944,2.4908,2.5729,2.6463,2.7343,0.0,2.9368,2.9646,0.0,0.0,0.0,0.0,0.0,0.0,0.0,0.0,0.0,0.0,0.0,0.0,0.0,0.0,0.0,0.0,0.0,0.0,0.0,0.0,0.0,0.0,0.9416,0.5552,0.1882,-0.1691,-0.4348,-0.6815,-0.9065,-1.0883,-1.0639,-0.8288,-1.0355,-1.1648,-1.2199,-1.2764,-1.3705,-1.488,-1.4926,-1.556,-1.657,-1.6612,-1.7098,-1.7917,-1.8076,-1.876,-1.9666,-1.9752,-2.0261,-2.0894,0.0,0.0,0.0,0.0,0.0,0.0,0.0,0.0,0.0,0.0,0.0,0.0,0.0,0.0,0.0,0.0,0.0,0.0,0.0,0.0,0.0,0.0,0.0,0.4303,0.5129,0.6752,0.7992,0.8788,0.9237,0.9817,1.0337,1.1194,0.0,0.0,1.2813,1.3614,1.3853,1.4974,1.6046,1.7084,1.7812,1.8881,0.0,0.0,0.0,0.0,0.0,0.0,0.0,0.0,2.4542,0.0,0.0,0.0,2.4219,2.4313,2.369,2.3119,2.3756,2.4897,2.6027,2.6453,0.0,0.0,0.0,0.0,0.0,0.0,0.0,0.0,0.0,0.0,0.0,0.0,0.0,0.0,0.0,0.0,0.0,0.0,0.0,0.0,0.0,0.0,0.0,0.0,0.0,0.0,0.5836,0.1949,-0.253,-0.798,-0.8321,-0.9594,-1.2059,-1.2915,-1.2696,-1.1538,-1.2894,-1.3951,-1.4781,-1.4592,-1.525,-1.6549,-1.6773,-1.7246,-1.7892,-1.8104,-1.8545,-1.9089,-1.9434,-1.9949,-2.0481,-2.0583,-2.0943,-2.1399,0.0,0.0,0.0,0.0,0.0,0.0,0.0,0.0,0.0,0.0,0.0,0.0,0.0,0.0,0.0,0.0,0.0,0.0,0.0,0.0,0.0,0.0,0.0,0.0637,0.3411,0.7564,1.0178,1.116,1.2171,1.2649,1.2617,0.0,0.0,0.0,0.0,1.6038,1.6576,1.7824,1.883,1.9707,2.0716,2.1525,0.0,0.0,0.0,0.0,0.0,0.0,0.0,0.0,0.0,0.0,0.0,0.0,0.0,0.0,2.4156,2.3625,2.3866,2.5152,2.6453,0.0,0.0,0.0,0.0,0.0,0.0,0.0,0.0,0.0,0.0,0.0,0.0,0.0,0.0,0.0,0.0,0.0,0.0,0.0,0.0,0.0,0.0,0.0,0.0,0.0,0.0,0.0,0.0,-0.1824,-0.6262,-1.1896,-1.1538,-1.2451,-1.4916,-1.5411,-1.556,-1.5328,-1.5892,-1.6118,-1.6031,-1.6041,-1.6646,-1.768,-1.804,-1.8472,-1.8968,-1.9184,-1.9603,-2.012,-2.0561,-2.0877,-2.1134,-2.1213,-2.1475,-2.179,0.0,0.0,0.0,0.0,0.0,0.0,0.0,0.0,0.0,0.0,0.0,0.0,0.0,0.0,0.0,0.0,0.0,0.0,0.0,0.0,0.0,0.0,0.0,-0.5608,-0.1157,0.6371,1.1028,1.279,1.4101,1.4555,1.4095,1.6172,0.0,0.0,0.0,1.968,2.1125,2.1125,2.1923,2.3204,2.3934,2.4046,2.3759,0.0,0.0,0.0,0.0,0.0,0.0,0.0,2.5524,0.0,0.0,0.0,0.0,0.0,2.4421,2.4269,2.452,2.5825,2.71,0.0,0.0,0.0,0.0,0.0,0.0,0.0,0.0,0.0,0.0,0.0,0.0,0.0,0.0,0.0,0.0,0.0,0.0,0.0,0.0,0.0,0.0,0.0,0.0,0.0,0.0,0.0,0.0,-0.59,-0.8981,-1.2554,-1.3826,-1.5475,-1.7614,-1.8653,-1.9309,-1.9504,-1.9349,-1.8002,-1.5676,-1.6954,-1.768,-1.8028,-1.8433,-1.9043,-1.9726,-1.9711,-2.0189,-2.0926,-2.1293,-2.1493,-2.1612,-2.1628,-2.1849,-2.2192,0.0,0.0,0.0,0.0,0.0,0.0,0.0,0.0,0.0,0.0,0.0,0.0,0.0,0.0,0.0,0.0,0.0,0.0,0.0,0.0,0.0,0.0,0.0,0.0,0.0,0.0,1.3677,1.8039,1.8892,1.9573,0.0,0.0,0.0,2.1511,0.0,0.0,0.0,0.0,2.532,2.5592,2.6753,2.7208,2.7101,0.0,0.0,0.0,0.0,0.0,0.0,0.0,0.0,0.0,0.0,0.0,0.0,2.5593,2.5117,2.4787,2.4874,2.5682,0.0,0.0,0.0,0.0,0.0,0.0,0.0,0.0,0.0,0.0,0.0,0.0,0.0,0.0,0.0,0.0,0.0,0.0,0.0,0.0,0.0,0.0,0.0,0.0,0.0,0.0,0.0,0.0,0.0,-1.0763,-1.3719,-1.7427,-1.7281,-1.7763,-1.9138,-1.9615,-1.9661,-1.9364,-1.9684,-1.9249,-1.8148,-1.8125,-1.8559,-1.9346,-1.9456,-1.9808,-2.0273,-2.0514,-2.0894,-2.1339,-2.1477,-2.1718,-2.1953,-2.1994,-2.2558,-2.3247,0.0,0.0,0.0,0.0,0.0,0.0,0.0,0.0,0.0,0.0,0.0,0.0,0.0,0.0,0.0,0.0,0.0,0.0,0.0,0.0,0.0,0.0,0.0,0.0,0.0,0.0866,0.8469,0.0,0.0,0.0,0.0,0.0,0.0,2.1631,0.0,2.1011,0.0,0.0,2.0974,2.1185,2.2303,2.2416,2.1913,0.0,0.0,0.0,0.0,0.0,0.0,0.0,0.0,0.0,0.0,0.0,0.0,2.605,2.5693,2.5575,2.5433,0.0,0.0,0.0,0.0,0.0,0.0,0.0,0.0,0.0,0.0,0.0,0.0,0.0,0.0,0.0,0.0,0.0,0.0,0.0,0.0,0.0,0.0,0.0,0.0,0.0,0.0,0.0,0.0,0.0,0.0,-1.4871,-1.7333,-1.9597,-1.9384,-1.9902,-2.1165,-2.1042,-2.1025,-2.1131,-2.118,-2.0948,-2.0468,-1.9598,-1.9462,-1.9934,-2.0212,-2.0565,-2.0926,-2.126,-2.1521,-2.1748,-2.1924,-2.2141,-2.2371,-2.2716,-2.3076,-2.3377,0.0,0.0,0.0,0.0,0.0,0.0,0.0,0.0,0.0,0.0,0.0,0.0,0.0,0.0,0.0,0.0,0.0,0.0,0.0,0.0,0.0,0.0,0.0,0.0,0.0,0.0,0.0,0.0,0.0,0.0,0.0,0.0,2.3181,1.8223,0.0,1.5749,0.0,1.1624,1.2129,1.2873,1.3494,1.2917,1.1757,1.2323,0.0,0.0,0.0,0.0,0.0,0.0,0.0,0.0,0.0,0.0,2.7278,2.629,2.6251,2.6486,2.6264,0.0,0.0,0.0,0.0,0.0,0.0,0.0,0.0,0.0,0.0,0.0,0.0,0.0,0.0,0.0,0.0,0.0,0.0,0.0,0.0,0.0,0.0,0.0,0.0,0.0,0.0,0.0,0.0,0.0,0.0,-1.8486,-2.0089,-2.0152,-2.0748,-2.1755,-2.3302,-2.2733,-2.2919,-2.3846,-2.3267,-2.2808,-2.2393,-2.1131,-2.0361,-2.0074,-2.0748,-2.126,-2.1598,-2.1895,-2.2068,-2.2181,-2.248,-2.2684,-2.2875,-2.3574,-2.3515,-2.3215,0.0,0.0,0.0,0.0,0.0,0.0,0.0,0.0,0.0,0.0,0.0,0.0,0.0,0.0,0.0,0.0,0.0,0.0,0.0,0.0,0.0,0.0,0.0,0.0,0.0,0.0,0.0,0.0,0.0,0.0,0.0,0.0,0.0,1.1512,0.0,1.1551,1.1037,1.1873,1.2246,1.2238,1.1916,1.1442,1.0874,1.013,0.9904,0.0,0.0,0.0,0.0,0.0,0.0,0.0,2.7857,2.9058,2.8552,2.7705,2.7187,2.7014,0.0,2.783,0.0,0.0,0.0,0.0,0.0,0.0,0.0,0.0,0.0,0.0,0.0,0.0,0.0,0.0,0.0,0.0,0.0,0.0,0.0,0.0,0.0,0.0,0.0,0.0,0.0,0.0,0.0,0.0,-2.1342,-2.1925,-2.2314,-2.2701,-2.3228,-2.3543,-2.3634,-2.3603,-2.3532,0.0,-2.3634,-2.3095,-2.1953,-2.1762,-2.142,-2.1023,-2.1432,-2.1777,-2.2051,-2.2136,-2.2337,-2.2588,-2.2659,-2.3047,-2.3608,-2.3863,-2.4601,-2.5426,0.0,0.0,0.0,0.0,0.0,0.0,0.0,0.0,0.0,0.0,0.0,0.0,0.0,0.0,0.0,0.0,0.0,0.0,0.0,0.0,0.0,0.0,0.0,0.0,0.0,0.0,0.0,0.0,0.0,0.0,0.0,0.0,0.0,0.4666,0.0,0.3637,0.1068,0.183,0.2109,0.2025,0.1713,0.1475,0.1209,0.0344,0.0,0.0042,0.0474,0.0,0.0,0.0,0.0,0.0,0.0,0.0,2.4988,2.7692,2.8251,2.8117,0.0,0.0,0.0,0.0,0.0,0.0,0.0,0.0,0.0,0.0,0.0,0.0,0.0,0.0,0.0,0.0,0.0,0.0,0.0,0.0,0.0,0.0,0.0,0.0,0.0,0.0,0.0,0.0,0.0,-2.0354,-2.301,-2.3385,-2.3777,-2.4358,-2.4634,-2.4942,-2.5297,-2.5216,-2.5023,-2.4645,-2.4661,-2.394,-2.2534,-2.2095,-2.1837,-2.1718,-2.1911,-2.2169,-2.2446,-2.2446,-2.2544,-2.2712,-2.2712,-2.3133,-2.3867,-2.4358,-2.5038,-2.5744,0.0,0.0,0.0,0.0,0.0,0.0,0.0,0.0,0.0,0.0,0.0,0.0,0.0,0.0,0.0,0.0,0.0,0.0,0.0,0.0,0.0,0.0,0.0,0.0,0.0,0.0,0.0,0.0,0.0,0.0,0.0,0.0,0.0,-0.3148,0.0,0.0,-1.0129,-0.9742,-0.9508,-0.9373,-0.9556,-0.9681,-0.9725,-1.0534,-1.1092,-1.1365,-1.1383,-0.8009,-0.3278,-0.1685,0.0,0.0,0.0,0.0,1.8446,2.3964,2.651,2.7636,0.0,0.0,0.0,0.0,0.0,0.0,0.0,0.0,0.0,0.0,0.0,0.0,0.0,0.0,0.0,0.0,0.0,0.0,0.0,0.0,0.0,0.0,0.0,0.0,0.0,0.0,0.0,0.0,0.0,-2.0993,-2.3396,-2.4324,-2.5013,-2.5507,-2.5634,-2.6118,-2.6988,-2.6737,-2.6413,-2.5988,-2.5442,-2.4588,-2.3442,-2.2466,-2.2096,-2.2275,-2.233,-2.25,-2.2764,-2.2712,-2.2712,-2.2712,-2.2712,-2.316,-2.3902,-2.4819,-2.5268,-2.5568,0.0,0.0,0.0,0.0,0.0,0.0,0.0,0.0,0.0,0.0,0.0,0.0,0.0,0.0,0.0,0.0,0.0,0.0,-2.6694,0.0,0.0,-2.8278,-2.7697,0.0,0.0,0.0,0.0,0.0,0.0,0.0,0.0,0.0,0.0,-1.3897,0.0,0.0,0.0,-1.2049,-1.1628,-1.1138,-1.2308,-1.2783,-1.287,-1.4531,-1.4849,-1.4366,-1.4188,-1.3546,-1.1864,-0.5836,-0.2973,0.0,0.0,0.0,0.947,1.0975,1.6105,2.1597,0.0,0.0,0.0,0.0,0.0,0.0,0.0,0.0,0.0,0.0,0.0,0.0,0.0,0.0,0.0,0.0,0.0,0.0,0.0,0.0,0.0,0.0,0.0,0.0,0.0,0.0,0.0,0.0,-2.3343,-2.5678,-2.568,-2.637,-2.6622,-2.6421,-2.6992,-2.7209,-2.7006,-2.6737,-2.6413,-2.5971,-2.4655,-2.3921,-2.3743,-2.3198,-2.279,-2.2565,-2.2841,-2.3003,-2.3045,-2.279,-2.2712,-2.2712,-2.2764,-2.324,-2.3984,-2.4931,-2.5701,-2.6446,0.0,0.0,0.0,0.0,0.0,0.0,0.0,0.0,0.0,0.0,0.0,0.0,0.0,0.0,0.0,-2.5697,-2.5357,-2.5639,-2.6716,-2.7648,-2.8233,-2.8288,-2.7815,-2.7414,0.0,0.0,0.0,0.0,0.0,0.0,0.0,-2.0209,-1.8864,0.0,0.0,0.0,0.0,0.0,-1.44,-1.4205,-1.477,-1.5158,-1.5464,-1.6883,-1.7433,-1.7431,-1.7919,-1.7691,-1.6609,-1.356,-1.2025,-1.016,-0.3175,0.0,0.0,0.0,0.9998,0.0,2.0405,0.0,0.0,0.0,0.0,0.0,0.0,0.0,0.0,0.0,0.0,0.0,0.0,0.0,0.0,0.0,0.0,0.0,0.0,0.0,0.0,0.0,0.0,0.0,0.0,0.0,0.0,0.0,-2.4687,-2.5586,-2.6071,-2.6756,-2.7123,-2.7168,-2.7637,-2.7911,-2.7949,-2.7637,-2.6924,-2.575,-2.4076,-2.3363,-2.3525,-2.3419,-2.3194,-2.2875,-2.3146,-2.3188,-2.3095,-2.2952,-2.2868,-2.2764,-2.279,-2.3284,-2.4066,-2.4514,-2.5152,-2.5869,0.0,0.0,0.0,0.0,0.0,0.0,0.0,0.0,0.0,0.0,0.0,0.0,0.0,0.0,0.0,0.0,-2.478,-2.5467,-2.6769,-2.7657,-2.8125,-2.8076,-2.776,-2.7357,-2.6841,0.0,0.0,0.0,0.0,0.0,-2.2798,-2.2798,-2.1779,0.0,-1.8946,0.0,0.0,0.0,0.0,0.0,0.0,-1.7313,0.0,-1.9056,-1.9724,-2.0128,-2.1172,-2.0906,-2.0116,-2.0116,-1.9546,-1.7808,-1.2111,-0.9834,0.0,0.0,0.0,0.0,0.0,0.0,0.0,0.0,0.0,0.0,0.0,0.0,0.0,0.0,0.0,0.0,0.0,0.0,0.0,0.0,0.0,0.0,0.0,0.0,0.0,0.0,0.0,0.0,0.0,0.0,0.0,0.0,-2.5072,-2.5026,-2.6052,-2.6656,-2.7137,-2.749,-2.7826,-2.821,-2.8619,-2.8281,-2.7237,-2.5491,-2.4182,-2.347,-2.3301,-2.3584,-2.358,-2.3324,-2.3495,-2.3427,-2.323,-2.3175,-2.3028,-2.2842,-2.2825,-2.3259,-2.385,-2.4147,-2.4603,-2.5147,0.0,0.0,0.0,0.0,0.0,0.0,0.0,0.0,0.0,0.0,0.0,0.0,0.0,-2.5214,-2.5059,-2.4623,-2.4798,-2.5319,-2.637,-2.7186,-2.7575,-2.7437,-2.7524,0.0,-2.7181,-2.6736,0.0,0.0,0.0,0.0,-2.3343,-2.3343,-2.3005,-2.236,-2.1311,-2.0034,-1.8657,0.0,0.0,0.0,0.0,0.0,0.0,0.0,0.0,0.0,0.0,-2.3241,-2.3169,-2.3169,-2.2878,-2.2438,-2.2046,-2.0538,-1.8571,0.0,0.0,0.0,0.0,0.0,0.0,0.0,0.0,0.0,0.0,0.0,0.0,0.0,0.0,0.0,0.0,0.0,0.0,0.0,0.0,0.0,0.0,0.0,0.0,0.0,0.0,0.0,0.0,0.0,0.0,0.0,-2.4587,-2.5635,-2.6087,-2.6421,-2.6804,-2.7217,-2.7549,-2.7929,-2.8396,-2.8065,-2.7007,-2.5237,-2.5332,-2.465,-2.3324,-2.3771,-2.3976,-2.3955,-2.3958,-2.3816,-2.3562,-2.3353,-2.3133,-2.2893,-2.2952,-2.3012,-2.316,-2.3971,-2.4431,-2.4753,0.0,0.0,0.0,0.0,0.0,0.0,0.0,0.0,0.0,0.0,0.0,0.0,0.0,-2.4436,-2.4105,-2.3551,-2.4416,-2.5393,-2.6214,-2.6965,-2.7321,-2.7284,-2.7335,-2.7284,-2.7181,-2.7063,0.0,0.0,0.0,-2.4964,-2.4261,-2.3878,-2.3641,-2.3386,-2.1753,-2.0625,-2.002,-1.9324,0.0,0.0,0.0,0.0,0.0,0.0,0.0,0.0,0.0,0.0,0.0,-2.5931,-2.5692,-2.5568,-2.5749,-2.4421,-2.235,0.0,0.0,0.0,0.0,0.0,0.0,0.0,0.0,0.0,0.0,0.0,0.0,0.0,0.0,0.0,0.0,0.0,0.0,0.0,0.0,0.0,0.0,0.0,0.0,0.0,0.0,0.0,0.0,0.0,0.0,0.0,0.0,-2.6482,-2.6595,-2.6978,-2.7141,-2.706,-2.7554,-2.7936,-2.8138,-2.7427,-2.6658,-2.5832,-2.5216,-2.4515,-2.3819,-2.3999,-2.4058,-2.4058,-2.4058,-2.3881,-2.3566,-2.3371,-2.3175,-2.297,-2.2995,-2.3045,-2.3112,-2.3614,-2.3821,-2.3927,0.0,0.0,0.0,0.0,0.0,0.0,0.0,0.0,0.0,0.0,0.0,0.0,0.0,0.0,-2.357,-2.3511,-2.4465,-2.5507,-2.6388,-2.6945,-2.7181,-2.713,-2.7181,-2.7181,-2.7078,-2.6907,0.0,0.0,0.0,0.0,0.0,-2.4607,-2.4226,-2.3772,-2.2278,-2.1412,0.0,0.0,0.0,-1.9865,0.0,0.0,-2.2002,0.0,0.0,0.0,0.0,0.0,0.0,0.0,0.0,0.0,0.0,0.0,0.0,0.0,0.0,0.0,-1.156,0.0,0.0,0.0,0.0,0.0,0.0,0.0,0.0,0.0,0.0,0.0,0.0,0.0,0.0,0.0,0.0,0.0,0.0,0.0,0.0,0.0,0.0,0.0,0.0,0.0,0.0,0.0,0.0,0.0,-2.6564,-2.6831,-2.6944,-2.6888,-2.7439,-2.78,-2.7915,-2.7021,-2.641,-2.6063,-2.507,-2.4401,-2.3999,-2.3999,-2.3999,-2.3999,-2.3939,-2.3756,-2.3558,-2.3435,-2.3241,-2.3028,-2.3028,-2.3102,-2.3247,-2.3435,-2.3576,-2.3689,0.0,0.0,0.0,0.0,0.0,0.0,0.0,0.0,0.0,0.0,0.0,0.0,0.0,0.0,0.0,-2.4644,-2.4941,-2.5628,-2.6916,-2.7093,-2.713,-2.7003,-2.713,-2.7078,-2.6832,-2.6351,0.0,0.0,0.0,0.0,0.0,0.0,-2.4791,-2.3672,-2.3071,-2.2322,-2.1504,0.0,-2.0695,-2.1066,0.0,-2.347,-2.4113,0.0,0.0,0.0,-2.5853,-2.6137,0.0,-2.801,0.0,0.0,0.0,0.0,0.0,0.0,0.0,0.0,0.0,0.0,0.0,0.0,0.0,0.0,0.0,0.0,0.0,0.0,0.0,0.0,0.0,0.0,0.0,0.0,0.0,0.0,0.0,0.0,0.0,0.0,0.0,0.0,0.0,0.0,0.0,0.0,-2.5334,-2.6101,-2.5967,-2.593,-2.6176,-2.6674,-2.7166,-2.7478,-2.7701,-2.6999,-2.6355,-2.5804,-2.5045,-2.4382,-2.3868,-2.3831,-2.3831,-2.381,-2.3576,-2.3504,-2.3481,-2.3481,-2.3342,-2.3102,-2.3102,-2.3271,-2.3526,-2.3526,-2.3753,-2.4059,0.0,0.0,0.0,0.0,0.0,0.0,0.0,0.0,0.0,0.0,0.0,0.0,0.0,0.0,-2.4388,-2.5134,-2.5242,-2.5675,-2.6587,-2.6683,-2.675,-2.6846,-2.7203,-2.7378,-2.7327,-2.7159,0.0,0.0,0.0,0.0,0.0,0.0,0.0,0.0,-2.2879,-2.228,-2.2112,-2.1251,0.0,0.0,-2.2542,-2.341,0.0,0.0,0.0,0.0,0.0,-2.7738,-2.9343,0.0,-2.9497,-3.0131,0.0,0.0,0.0,0.0,0.0,0.0,-2.6787,0.0,0.0,0.0,0.0,0.0,0.0,0.0,0.0,0.0,0.0,0.0,0.0,0.0,0.0,0.0,0.0,0.0,0.0,0.0,0.0,0.0,0.0,0.0,0.0,0.0,0.0,0.0,-2.7534,-2.7506,-2.6936,-2.6602,-2.6549,-2.6908,-2.723,-2.7434,-2.7478,-2.742,-2.7141,-2.6587,-2.6356,-2.5989,-2.5434,-2.4856,-2.4536,-2.4359,-2.3759,-2.3389,-2.3199,-2.3199,-2.3271,-2.3389,-2.3389,-2.3531,-2.3732,-2.3878,-2.3919,-2.3878,0.0,0.0,0.0,0.0,0.0,0.0,0.0,0.0,0.0,0.0,0.0,0.0,0.0,0.0,0.0,-2.5237,-2.536,-2.5759,-2.664,-2.6736,-2.6841,-2.713,-2.7408,-2.753,-2.753,-2.7615,-2.7665,0.0,0.0,0.0,0.0,0.0,0.0,0.0,0.0,0.0,0.0,0.0,0.0,0.0,-2.3464,0.0,0.0,-2.5548,-2.6301,0.0,0.0,0.0,-2.9611,-2.9372,-3.0237,0.0,0.0,0.0,0.0,0.0,0.0,0.0,0.0,0.0,0.0,0.0,0.0,0.0,-1.3351,-0.8698,-0.4777,0.0,0.0,0.0,0.0,0.0,0.0,0.0,0.0,0.0,0.0,0.0,0.0,0.0,0.0,0.0,0.0,-2.5997,-2.6649,-2.756,-2.7997,-2.7958,-2.7169,-2.6984,-2.6874,-2.6825,-2.707,-2.7279,-2.7404,-2.7285,-2.7141,-2.689,-2.6464,-2.6177,-2.5937,-2.5034,-2.4599,-2.4417,-2.3679,-2.3319,-2.3271,-2.3271,-2.3365,-2.3504,-2.3598,-2.3707,-2.3816,-2.4039,-2.3961,-2.3831,0.0,0.0,0.0,0.0,0.0,0.0,0.0,0.0,0.0,0.0,0.0,0.0,0.0,0.0,0.0,0.0,-2.5365,-2.5897,-2.6811,-2.6959,-2.7167,-2.7524,-2.7625,-2.766,-2.766,-2.7879,-2.7947,0.0,0.0,0.0,0.0,0.0,0.0,0.0,0.0,0.0,0.0,0.0,0.0,-2.3886,-2.4853,-2.5575,0.0,0.0,-2.6768,-2.6662,-2.6497,-2.7282,-2.8488,-2.9147,-3.0631,0.0,0.0,0.0,0.0,0.0,-3.2734,0.0,0.0,0.0,0.0,0.0,0.0,0.0,-1.9064,-1.6501,-1.3606,-0.5879,0.0,0.0,0.0,0.0,0.0,0.0,0.0,0.0,0.0,0.0,0.0,0.0,0.0,0.0,-2.519,-2.6395,-2.6931,-2.6707,-2.754,-2.7814,-2.7194,-2.7254,-2.7128,-2.6689,-2.6859,-2.707,-2.731,-2.6894,-2.6785,-2.6934,-2.6073,-2.5738,-2.5859,-2.4856,-2.4392,-2.4269,-2.3478,-2.3271,-2.3504,-2.3553,-2.3553,-2.3576,-2.3732,-2.3871,-2.3985,-2.4147,-2.4176,-2.4241,-2.6909,0.0,0.0,0.0,0.0,0.0,0.0,0.0,0.0,0.0,0.0,0.0,0.0,0.0,0.0,0.0,-2.5483,-2.5929,-2.6258,-2.6578,-2.6841,-2.7115,-2.778,-2.8158,-2.8158,-2.8207,-2.8192,-2.8192,0.0,0.0,0.0,0.0,0.0,0.0,0.0,0.0,0.0,0.0,0.0,-2.5177,-2.4975,0.0,-2.6123,-2.568,-2.5897,-2.6497,-2.6725,-2.7386,-2.834,-2.9475,-3.0214,-3.0705,0.0,0.0,0.0,0.0,0.0,0.0,0.0,0.0,0.0,0.0,0.0,0.0,-2.9391,-2.8264,-2.7251,0.0,0.0,0.0,0.0,0.0,0.0,0.0,0.0,0.0,0.0,0.0,0.0,0.0,0.0,0.0,-2.6486,-2.6938,-2.7375,-2.7898,-2.7984,-2.8271,-2.8878,-2.7899,-2.7251,-2.7175,-2.684,-2.6708,-2.6775,-2.7078,-2.727,-2.7313,-2.7274,-2.6975,-2.6405,-2.5569,-2.4857,-2.4269,-2.3679,-2.3458,-2.3526,-2.3858,-2.3981,-2.3979,-2.3858,-2.4281,-2.4988,-2.4823,-2.5396,-2.6218,-2.659,0.0,0.0,0.0,0.0,0.0,0.0,0.0,0.0,0.0,0.0,0.0,0.0,0.0,0.0,0.0,0.0,0.0,0.0,0.0,-2.7357,-2.769,-2.8107,-2.835,-2.835,-2.8431,-2.8511,-2.8511,0.0,0.0,0.0,0.0,0.0,0.0,0.0,0.0,0.0,0.0,-2.5404,-2.5595,-2.5555,0.0,-2.6533,-2.6341,-2.6343,-2.6453,-2.6923,-2.7792,-2.8846,-2.9671,-3.0593,0.0,0.0,-3.1591,-3.1881,0.0,-3.241,-3.2144,0.0,0.0,0.0,-3.419,0.0,0.0,0.0,-3.2652,-3.1975,-3.2569,-3.2524,-3.2163,0.0,0.0,0.0,0.0,0.0,0.0,0.0,0.0,0.0,0.0,0.0,0.0,-2.7838,-2.8275,-2.8654,-2.9042,-2.8952,-2.8925,-2.905,-2.8273,-2.7699,-2.7317,-2.6853,-2.6606,-2.6606,-2.699,-2.7279,-2.7404,-2.7509,-2.7407,-2.7122,-2.6349,-2.5805,-2.5428,-2.4882,-2.4718,-2.4874,-2.5205,-2.5328,-2.5252,-2.4887,-2.488,-2.5193,-2.6012,-2.6482,-2.6782,-2.6297,0.0,0.0,0.0,0.0,0.0,0.0,0.0,0.0,0.0,0.0,0.0,0.0,0.0,0.0,0.0,0.0,0.0,0.0,0.0,0.0,-2.825,-2.8363,-2.8411,-2.8411,-2.8653,-2.8779,-2.8779,0.0,0.0,0.0,0.0,0.0,0.0,0.0,0.0,0.0,0.0,0.0,-2.5712,0.0,-2.6352,-2.6603,-2.7038,-2.6847,-2.6453,-2.7184,-2.8194,-2.9278,-2.9606,-3.0794,-3.2052,-3.1612,-3.1935,0.0,0.0,0.0,0.0,0.0,0.0,0.0,0.0,0.0,-3.3825,0.0,0.0,0.0,-3.3599,-3.3226,0.0,0.0,0.0,0.0,0.0,0.0,0.0,0.0,0.0,0.0,0.0,0.0,0.0,-2.8982,-2.9393,-2.9661,-2.9661,-2.9572,-2.9315,-2.878,-2.8364,-2.7843,-2.7252,-2.669,-2.6382,-2.6382,-2.6808,-2.7103,-2.7341,-2.7417,-2.747,-2.7473,-2.6876,-2.6553,-2.6425,-2.5882,-2.5787,-2.6059,-2.6091,-2.6213,-2.6307,-2.5946,-2.5688,-2.569,-2.7175,-2.7601,-2.759,-2.6537,-2.5941,0.0,0.0,0.0,0.0,0.0,0.0,0.0,0.0,0.0,0.0,0.0,0.0,0.0,0.0,0.0,0.0,-2.6247,0.0,0.0,0.0,-2.8201,-2.8411,-2.8411,-2.8826,-2.9028,-2.9028,0.0,0.0,0.0,0.0,0.0,0.0,-2.8062,0.0,0.0,0.0,-2.6202,0.0,-2.5958,-2.5726,0.0,-2.5902,-2.6165,-2.6453,-2.7487,-2.8273,-2.8864,0.0,-2.9619,-3.04,0.0,-3.1062,-3.1894,-3.1853,0.0,0.0,0.0,0.0,0.0,0.0,-3.4033,0.0,0.0,0.0,-3.354,-3.3115,0.0,0.0,0.0,0.0,0.0,0.0,0.0,0.0,0.0,0.0,0.0,0.0,0.0,0.0,0.0,-2.9287,-2.9166,-2.9166,-2.8732,-2.8639,-2.9055,-2.7846,-2.7127,-2.7047,-2.6099,-2.5615,-2.5615,-2.6522,-2.7006,-2.7038,-2.7461,-2.7338,-2.6736,-2.6648,-2.6329,-2.5872,-2.526,-2.5183,-2.5436,-2.4684,-2.4948,-2.582,-2.6045,-2.6808,-2.7727,-2.7692,-2.8969,-3.0598,-2.652,-2.6099,0.0,0.0,0.0,0.0,0.0,0.0,0.0,0.0,0.0,0.0,0.0,0.0,0.0,0.0,0.0,-2.6601,0.0,0.0,0.0,0.0,0.0,0.0,-2.8826,-2.9273,-2.9502,0.0,-2.9726,0.0,0.0,0.0,0.0,0.0,-2.8902,0.0,-2.7026,0.0,-2.6396,0.0,0.0,0.0,0.0,-2.6126,-2.6572,-2.7085,-2.7858,-2.8927,-2.9916,0.0,-3.0702,0.0,0.0,0.0,0.0,0.0,0.0,0.0,0.0,0.0,0.0,0.0,0.0,0.0,-3.4623,0.0,-3.3915,0.0,0.0,0.0,0.0,0.0,0.0,0.0,-3.3237,0.0,0.0,0.0,0.0,0.0,0.0,0.0,0.0,0.0,0.0,0.0,-2.9406,-2.915,-2.912,-2.8126,-2.7589,-2.7589,-2.6599,-2.6057,-2.6057,-2.653,-2.6859,-2.7006,-2.7355,-2.7425,-2.7245,-2.7245,-2.7204,-2.7094,-2.6531,-2.6759,-2.7423,-2.6557,-2.6646,-2.7309,-2.7301,-2.7733,-2.8425,-2.9076,-3.0123,-3.1159,-2.6415,0.0,0.0,0.0,0.0,0.0,0.0,0.0,0.0,0.0,0.0,0.0,-2.5672,-2.5511,0.0,0.0,-2.6287,-2.6533,0.0,0.0,-2.7929,0.0,0.0,0.0,0.0,0.0,-2.9821,0.0,0.0,0.0,0.0,0.0,0.0,0.0,0.0,-2.9008,-2.8448,0.0,-2.7084,-2.6663,-2.6702,-2.674,-2.6711,-2.6686,-2.7085,-2.773,-2.8101,-2.9242,-3.0459,-3.0041,-3.148,0.0,-3.3096,0.0,0.0,0.0,0.0,0.0,-3.0731,0.0,0.0,0.0,0.0,0.0,0.0,0.0,0.0,0.0,0.0,0.0,0.0,0.0,0.0,0.0,0.0,-3.2728,0.0,0.0,0.0,0.0,0.0,0.0,0.0,0.0,0.0,-3.0166,-2.9643,-2.923,-2.912,-2.841,-2.8031,-2.8031,-2.7048,-2.6525,-2.6525,-2.6662,-2.6792,-2.7006,-2.7324,-2.7569,-2.7701,-2.776,-2.7943,-2.821,-2.7622,-2.7908,-2.875,-2.7819,-2.782,-2.8372,-2.7993,-2.8262,-2.9065,-3.0029,-3.0737,-3.1228,-2.6203,-2.5954,0.0,0.0,0.0,0.0,0.0,0.0,0.0,0.0,0.0,0.0,0.0,0.0,0.0,0.0,0.0,-2.658,-2.6031,0.0,-2.7054,0.0,0.0,-2.8548,0.0,0.0,0.0,0.0,0.0,0.0,0.0,0.0,0.0,0.0,0.0,-2.9187,-2.7786,-2.8168,-2.8323,-2.8362,-2.8659,-2.8785,-2.8662,0.0,-2.7391,-2.8075,-2.8102,0.0,0.0,-2.9886,-3.1174,0.0,0.0,0.0,0.0,0.0,0.0,0.0,0.0,0.0,0.0,-3.28,0.0,0.0,0.0,0.0,-3.5393,0.0,0.0,0.0,0.0,0.0,0.0,0.0,0.0,0.0,0.0,0.0,0.0,0.0,0.0,0.0,0.0,0.0,-2.9411,-2.9789,-2.871,-2.8363,-2.9042,-2.8471,-2.8091,-2.8091,-2.713,-2.6587,-2.6587,-2.6874,-2.7006,-2.7006,-2.7461,-2.7683,-2.7701,-2.7893,-2.821,-2.8542,-2.788,-2.788,-2.8241,-2.7154,-2.7321,-2.8142,-2.7405,-2.8341,-3.0063,-3.0095,-3.0562,-3.126,0.0,0.0,0.0,0.0,0.0,0.0,0.0,-2.4745,0.0,0.0,0.0,0.0,0.0,-2.6711,-2.6564,0.0,0.0,-2.6149,-2.6267,-2.6688,0.0,0.0,0.0,-2.9292,0.0,0.0,0.0,0.0,0.0,0.0,0.0,0.0,0.0,0.0,0.0,-2.8581,0.0,0.0,0.0,0.0,0.0,-2.9055,-2.8802,0.0,0.0,-2.8129,-2.8352,-2.9367,0.0,-3.083,-3.2045,-3.3566,-3.3883,-3.3855,-3.3679,-3.3539,-3.3167,0.0,0.0,0.0,-3.3118,-3.3337,0.0,0.0,0.0,0.0,0.0,0.0,0.0,0.0,0.0,0.0,0.0,0.0,0.0,0.0,0.0,0.0,0.0,0.0,0.0,0.0,0.0,0.0,0.0,-2.9705,-2.8641,-2.812,-2.8347,-2.8158,-2.8252,-2.8756,-2.8244,-2.7769,-2.7284,-2.767,-2.7616,-2.7149,-2.776,-2.8035,-2.8035,-2.8192,-2.8438,-2.8688,-2.8062,-2.8301,-2.9025,-2.7933,-2.798,-2.8676,-2.827,-2.8474,-2.9087,-2.9423,-3.0547,-3.1833,-2.6258,0.0,0.0,0.0,0.0,0.0,0.0,0.0,0.0,0.0,-2.7225,0.0,-2.7504,0.0,-2.6601,0.0,-2.5915,-2.5791,-2.6305,-2.669,0.0,-2.8276,-2.9581,0.0,0.0,0.0,0.0,0.0,0.0,-3.1116,0.0,0.0,0.0,0.0,0.0,-2.8442,-2.9265,0.0,-2.9297,0.0,0.0,-2.9681,0.0,0.0,-2.8461,-2.8129,0.0,-2.9704,-3.118,-3.1341,-3.2607,-3.4197,-3.4495,-3.4229,-3.3817,-3.3977,-3.362,-3.3148,-3.2864,-3.3177,0.0,-3.3789,-3.414,0.0,-3.5045,0.0,0.0,0.0,0.0,0.0,0.0,0.0,0.0,0.0,0.0,0.0,0.0,-3.3455,0.0,0.0,0.0,0.0,0.0,0.0,-3.0646,-2.9918,-2.9214,-2.8814,0.0,0.0,-2.9221,-2.9601,-2.9183,-2.8633,-2.7914,-2.8164,-2.7937,-2.7227,-2.7904,-2.8201,-2.8201,-2.8404,-2.8639,-2.8824,-2.855,-2.8869,-2.9532,-2.8835,-2.8808,-2.9188,-2.8906,-2.8819,-2.8887,-2.9296,-3.0333,-3.1495,0.0,0.0,0.0,0.0,-2.5501,0.0,0.0,0.0,-2.6656,0.0,-2.735,-2.7318,-2.7344,-2.6909,-2.6516,-2.6232,-2.5681,-2.5589,-2.6205,-2.6786,0.0,0.0,-3.05,-3.1321,-3.0163,0.0,0.0,0.0,0.0,0.0,0.0,0.0,0.0,0.0,-2.8269,0.0,-2.9874,-2.9626,-3.0612,-3.2228,-3.1036,-3.0776,-3.0966,-3.0178,-2.9206,-2.8264,-2.8626,-2.9904,-3.1495,-3.1495,-3.2883,-3.4602,-3.4604,-3.4751,-3.4927,-3.4927,-3.4908,-3.4737,-3.3979,-3.4447,-3.4928,-3.4159,0.0,0.0,0.0,0.0,-3.5405,0.0,0.0,0.0,0.0,0.0,0.0,0.0,0.0,0.0,0.0,0.0,0.0,0.0,0.0,0.0,0.0,-3.188,-3.0935,-3.0292,-3.0289,-3.0142,0.0,0.0,-3.0804,-3.051,-2.9831,-2.9158,-2.8527,-2.8407,-2.8004,-2.7317,-2.7915,-2.8201,-2.8228,-2.8569,-2.8779,-2.8929,-2.9272,-2.9531,-2.9701,-2.9701,-2.9645,-2.9588,-2.9312,-2.9332,-2.9526,-2.968,-2.999,-3.0319,-2.7885,-2.7833,-2.7807,0.0,-2.693,-2.6198,0.0,0.0,0.0,0.0,-2.7922,-2.7823,-2.7825,-2.7235,-2.6789,-2.6746,-2.6141,0.0,0.0,0.0,0.0,-2.864,-3.01,-3.1278,-3.2133,-3.2593,0.0,-3.2303,0.0,0.0,-3.0973,0.0,0.0,0.0,0.0,0.0,-2.9861,-3.065,-3.1703,-3.2822,-3.2026,-3.1601,0.0,0.0,-3.0644,-3.0215,-3.0574,-3.1483,-3.2632,-3.2814,-3.3655,-3.4645,-3.4791,-3.4926,-3.5053,-3.5053,-3.5122,-3.5165,-3.4955,-3.5143,-3.5331,-3.5013,-3.5201,-3.543,0.0,0.0,0.0,0.0,0.0,0.0,0.0,0.0,0.0,0.0,0.0,0.0,0.0,0.0,0.0,-3.3187,0.0,0.0,-3.2994,-3.1028,-2.9667,-2.9292,-2.9086,0.0,0.0,0.0,0.0,-3.0878,-3.0711,-2.9973,-2.8665,-2.9076,-2.8749,-2.7683,-2.8237,-2.851,-2.851,-2.885,-2.9016,-2.9064,-2.9453,-2.9645,-2.9701,-2.9701,-2.9645,-2.9588,-2.9531,-2.9511,-2.9586,-3.0265,-3.0583,-3.0686,-2.8925,0.0,0.0,-2.9751,0.0,0.0,-2.8201,0.0,0.0,-2.8434,-2.8139,0.0,-2.7517,-2.6871,-2.6393,-2.629,-2.5966,0.0,-2.649,0.0,0.0,-2.8946,-3.0463,-3.1519,-3.2056,-3.2438,0.0,-3.2371,0.0,0.0,-3.079,0.0,0.0,0.0,0.0,-2.8741,-2.9753,-3.0777,-3.1744,-3.2541,-3.1924,0.0,0.0,-3.1934,-3.1912,-3.1986,-3.2514,-3.2925,-3.3197,-3.3344,-3.3972,-3.4771,-3.4926,-3.5035,-3.5105,-3.5171,-3.5235,-3.5315,-3.5315,-3.5402,-3.547,-3.5402,-3.5489,-3.554,-3.5416,-3.5732,-3.6055,0.0,0.0,0.0,0.0,0.0,0.0,0.0,0.0,0.0,0.0,0.0,0.0,0.0,-3.4361,0.0,-3.2939,-3.1634,-3.0731,-3.0355,-3.0166,0.0,0.0,0.0,0.0,-3.1397,-3.1295,-3.0506,-2.8979,-2.9488,-2.9176,-2.7982,-2.8474,-2.8767,-2.8845,-2.9101,-2.923,-2.9251,-2.9569,-2.9701,-2.9701,-2.9701,-2.9683,-2.9645,-2.9645,-2.9626,-2.9645,-3.0132,-3.0301,-3.0281,-3.0096,0.0,0.0,0.0,0.0,0.0,0.0,-2.9212,0.0,-2.8701,0.0,-2.7482,-2.6893,-2.6297,-2.5823,-2.5605,0.0,-2.5815,-2.6441,-2.7213,-2.813,-2.9238,-3.1161,-3.1915,-3.1407,-3.207,-3.229,0.0,0.0,0.0,0.0,0.0,0.0,0.0,0.0,0.0,0.0,-3.0582,-3.1376,-3.1982,-3.161,-3.1847,-3.2511,-3.2716,-3.3025,-3.3437,-3.4166,-3.4049,-3.3575,-3.3595,-3.4187,-3.4926,-3.5053,-3.5122,-3.5171,-3.5281,-3.533,-3.5345,-3.5345,-3.5416,-3.5515,-3.5496,-3.5608,-3.5662,-3.5553,-3.6149,-3.6725,-3.6672,-3.6786,-3.6911,0.0,0.0,0.0,0.0,0.0,0.0,0.0,0.0,0.0,0.0,0.0,0.0,-3.2947,-3.2825,-3.2575,-3.201,0.0,0.0,0.0,0.0,0.0,-3.2022,-3.1789,-3.1005,-2.9593,0.0,-2.9544,-2.8425,-2.8761,-2.8984,-2.9126,-2.9312,-2.9412,-2.9412,-2.9626,-2.9701,-2.9701,-2.9701,-2.9701,-2.9701,-2.9814,-2.9795,-2.9701,-2.9814,-2.9739,-2.9626,0.0,0.0,0.0,0.0,0.0,-3.1309,-3.1101,-2.9592,-2.8503,-2.8459,-2.7695,-2.7134,-2.7065,-2.6395,-2.5959,-2.5934,-2.5897,0.0,0.0,0.0,0.0,-2.9769,-3.0832,-3.2054,-3.3537,-3.3216,-3.3261,0.0,0.0,0.0,0.0,0.0,0.0,0.0,0.0,0.0,-3.062,-3.1506,0.0,-3.232,-3.2976,-3.3342,-3.3497,-3.3802,-3.395,-3.4064,-3.4439,-3.4551,-3.4562,-3.4623,-3.4756,-3.4925,-3.507,-3.5216,-3.535,-3.5378,-3.5457,-3.5547,-3.5547,-3.556,-3.5572,-3.5577,-3.5601,-3.5631,-3.5662,-3.5789,-3.5916,-3.5894,-3.6466,-3.6775,-3.6071,0.0,0.0,0.0,0.0,0.0,0.0,0.0,0.0,0.0,0.0,-3.4911,0.0,-3.284,0.0,0.0,0.0,0.0,0.0,0.0,0.0,0.0,-3.2674,0.0,0.0,0.0,-3.0351,-2.9598,-2.9232,-2.9082,-2.9126,-2.9312,-2.9412,-2.9412,-2.9626,-2.9701,-2.9701,-2.9701,-2.9701,-2.9758,-3.0434,-3.0283,-2.9777,-3.0452,-3.0265,-2.9664,0.0,0.0,0.0,0.0,0.0,0.0,0.0,-2.9642,0.0,-2.8447,-2.7315,-2.6525,-2.662,-2.6365,-2.6189,-2.6208,-2.6295,-2.6435,-2.659,-2.6785,-2.7382,-2.8488,-2.9955,0.0,-3.1696,-3.2307,-3.2823,-3.322,0.0,0.0,0.0,0.0,0.0,0.0,0.0,-2.9503,0.0,0.0,0.0,-3.2402,-3.2947,-3.3421,-3.386,-3.4245,-3.4431,-3.4483,-3.4733,-3.4851,-3.4889,-3.4908,-3.4963,-3.5069,-3.5203,-3.533,-3.5416,-3.547,-3.5547,-3.5591,-3.5591,-3.5591,-3.5604,-3.5596,-3.5596,-3.5608,-3.5639,-3.5999,-3.6339,-3.6366,-3.6706,-3.6756,-3.5955,-3.5873,0.0,0.0,0.0,0.0,0.0,0.0,0.0,0.0,0.0,0.0,0.0,0.0,0.0,0.0,0.0,0.0,0.0,0.0,0.0,0.0,0.0,0.0,0.0,0.0,0.0,-3.0413,-2.9813,-2.9551,-2.9623,-2.9712,-2.9765,-2.9765,-2.9869,-2.9921,-2.9924,-3.0294,-3.05,-3.0587,-3.081,-3.0734,-3.0467,-3.0321,-3.0021,-2.9701,0.0,-3.4768,0.0,0.0,-3.2992,0.0,-3.1086,-2.9626,-2.8643,-2.8468,-2.7058,-2.6094,-2.6205,-2.6286,-2.64,-2.6418,-2.659,-2.6691,-2.6791,-2.7021,-2.7313,-2.7625,-2.9404,-3.0285,-3.0106,-3.15,-3.2292,0.0,0.0,0.0,0.0,0.0,0.0,0.0,0.0,0.0,0.0,0.0,-3.1272,-3.28,-3.2963,-3.3451,-3.4099,-3.4473,-3.4649,-3.4773,-3.4926,-3.5016,-3.5034,-3.4982,-3.5072,-3.5223,-3.535,-3.5412,-3.5435,-3.5547,-3.5579,-3.5579,-3.5579,-3.5579,-3.5579,-3.5579,-3.5591,-3.5591,-3.5608,-3.6153,-3.6659,-3.6725,-3.6756,-3.6596,-3.6036,-3.5951,0.0,0.0,0.0,0.0,0.0,0.0,0.0,0.0,0.0,0.0,-3.4842,0.0,0.0,0.0,0.0,0.0,-3.3902,0.0,0.0,0.0,0.0,-3.3536,-3.3055,0.0,-3.1749,-3.1193,-3.0519,-3.0175,-3.0109,-3.0109,-3.0109,-3.0109,-3.0109,-3.0204,-3.0433,-3.0947,-3.1264,-3.1374,-3.1104,-3.0992,-3.088,-3.0277,-3.0019,-3.0,0.0,0.0,0.0,0.0,0.0,0.0,-3.132,-2.9966,-2.8868,-2.8289,-2.7131,-2.6308,-2.6217,-2.6434,-2.6572,-2.6572,-2.6607,-2.6742,-2.7021,-2.7085,-2.7695,-2.9058,-3.0105,-3.1078,-3.2028,-3.2444,-3.2517,0.0,0.0,0.0,0.0,0.0,0.0,0.0,0.0,0.0,0.0,-3.1348,-3.2391,-3.4037,-3.4061,-3.4242,-3.4539,-3.4583,-3.473,-3.487,-3.4889,-3.5037,-3.5174,-3.5157,-3.5171,-3.5216,-3.5364,-3.5435,-3.5483,-3.5515,-3.5509,-3.5507,-3.5507,-3.5507,-3.5501,-3.5502,-3.5515,-3.5534,-3.5669,-3.5757,-3.5825,-3.5909,-3.596,-3.5997,-3.5982,-3.5995,-3.5996,0.0,0.0,0.0,0.0,0.0,-3.5966,-3.5918,0.0,0.0,0.0,-3.5749,0.0,0.0,-3.4918,0.0,0.0,0.0,0.0,-3.4906,0.0,-3.4737,-3.4509,-3.3952,-3.3184,-3.2155,-3.1558,-3.0854,-3.0109,-3.0109,-3.0109,-3.0109,-3.0109,-3.0548,-3.1288,-3.135,-3.1389,-3.1403,-3.1363,-3.0886,-3.029,-3.0967,-3.114,-3.097,0.0,0.0,0.0,0.0,0.0,0.0,0.0,-2.9642,-2.8527,-2.8121,-2.7106,-2.6418,-2.6435,-2.6607,-2.6742,-2.6825,-2.6942,-2.7152,-2.743,-2.7461,-2.7794,-2.8556,-2.994,-3.0982,-3.1574,-3.271,-3.3303,0.0,0.0,0.0,0.0,0.0,0.0,0.0,0.0,-3.2409,-3.3302,-3.325,-3.4057,-3.5289,-3.4819,-3.4691,-3.4791,-3.4908,-3.5019,-3.5089,-3.5226,-3.5345,-3.5432,-3.5432,-3.5445,-3.5445,-3.5455,-3.5534,-3.56,-3.5574,-3.5596,-3.562,-3.562,-3.562,-3.562,-3.5611,-3.5621,-3.564,-3.5689,-3.5728,-3.5776,-3.5836,-3.592,-3.5962,-3.5995,-3.5996,-3.5996,0.0,0.0,0.0,0.0,0.0,0.0,-3.5957,0.0,-3.5943,0.0,0.0,0.0,0.0,0.0,0.0,0.0,0.0,0.0,-3.5254,0.0,-3.5043,-3.5124,-3.4381,-3.3594,-3.2769,-3.2011,-3.1195,-3.0406,-3.0406,-3.0656,-3.1118,-3.1118,-3.16,-3.2408,-3.2321,-3.2353,-3.2358,-3.1675,-3.124,-3.1028,-3.1303,-3.1344,-3.1413,-3.4781,0.0,-3.4495,0.0,-3.284,-3.2073,-3.0682,-2.9381,-2.838,-2.7959,-2.7247,-2.6741,-2.6657,-2.6842,-2.699,-2.7089,-2.7296,-2.7496,-2.7701,-2.7771,-2.806,-2.8596,-3.0025,0.0,-3.1561,-3.3038,-3.3784,-3.3747,-3.4599,0.0,0.0,0.0,0.0,0.0,-3.3636,-3.3979,-3.4538,-3.4247,-3.4877,-3.5986,-3.5192,-3.4908,-3.4963,-3.5141,-3.5254,-3.5345,-3.5476,-3.557,-3.564,-3.564,-3.566,-3.567,-3.5581,-3.562,-3.5685,-3.5641,-3.5669,-3.5693,-3.5693,-3.5693,-3.5693,-3.5693,-3.5693,-3.5713,-3.5754,-3.5791,-3.584,-3.5921,-3.5968,-3.5996,-3.5996,-3.5996,-3.5996,-3.5996,0.0,0.0,0.0,0.0,0.0,0.0,-3.5996,-3.5993,-3.5997,-3.5955,0.0,0.0,0.0,0.0,0.0,0.0,0.0,0.0,0.0,0.0,0.0,-3.4867,-3.4087,-3.3082,-3.2483,-3.1642,-3.0598,-3.0598,-3.1043,-3.1816,-3.2068,-3.2687,-3.345,-3.3091,-3.3161,-3.3323,-3.177,-3.1373,-3.165,-3.1546,-3.1654,-3.2034,-3.5169,-3.4545,-3.4011,-3.399,-3.2674,-3.1249,-3.0187,-2.9334,-2.8513,-2.7806,-2.7701,-2.7444,-2.6873,-2.7087,-2.7282,-2.7299,-2.7539,-2.7701,-2.7701,-2.7954,-2.8596,0.0,0.0,-3.1579,-3.2654,-3.3548,-3.371,-3.3101,0.0,0.0,-3.3445,0.0,-3.5461,-3.467,-3.467,-3.4691,-3.4656,-3.3865,-3.4468,-3.5939,-3.5132,-3.4908,-3.5105,-3.5174,-3.5369,-3.5607,-3.5607,-3.5631,-3.5693,-3.5693,-3.5794,-3.5878,-3.5745,-3.5693,-3.5693,-3.5693,-3.5693,-3.5693,-3.5693,-3.5693,-3.5693,-3.5693,-3.5693,-3.5737,-3.5872,-3.5908,-3.5929,-3.5979,-3.5994,-3.5996,-3.5992,-3.5995,-3.5996,-3.5996,0.0,0.0,0.0,0.0,0.0,-3.5996,-3.5996,-3.5996,-3.5996,-3.5996,0.0,0.0,0.0,0.0,0.0,0.0,0.0,-3.5781,-3.5723,0.0,-3.5704,-3.5684,-3.4814,-3.3102,-3.3082,-3.2222,-3.0598,-3.0598,-3.1043,-3.1855,-3.2715,-3.3576,-3.4311,-3.346,-3.3615,-3.4118,-3.1603,-3.1101,-3.1787,-3.1806,-3.2254,-3.3013,-3.4598,-3.4648,-3.4531,-3.4031,-3.2642,-3.1324,-3.0467,-2.9651,-2.9047,-2.8816,-2.9272,-2.9544,-2.9347,-2.8429,-2.7858,0.0,-2.7926,-2.8065,0.0,-2.8404,-2.8685,-2.9223,-3.0165,-3.114,-3.2066,-3.3026,-3.3698,-3.4046,0.0,0.0,0.0,-3.5795,-3.5685,-3.5056,-3.5457,-3.578,-3.5964,-3.5477,-3.5704,-3.6341,-3.5463,-3.5232,-3.5378,-3.5391,-3.5507,-3.5659,-3.5659,-3.5715,-3.5762,-3.5762,-3.585,-3.5955,-3.5919,-3.5895,-3.5909,-3.5852,-3.5869,-3.5895,-3.5895,-3.5895,-3.5895,-3.5895,-3.5895,-3.5919,-3.5955,-3.5978,-3.5962,-3.5996,-3.6001,-3.6009,-3.5995,-3.5992,-3.6009,-3.5996,-3.5996,0.0,0.0,0.0,0.0,-3.5996,-3.5996,-3.5996,-3.5996,-3.5996,0.0,0.0,0.0,0.0,0.0,0.0,0.0,0.0,-3.5782,0.0,-3.5767,-3.5766,-3.4891,-3.3179,-3.317,-3.2271,-3.0617,-3.1178,-3.1894,-3.2734,-3.3615,-3.4137,-3.4331,-3.346,-3.3256,-3.3325,-3.1352,-3.1449,-3.2676,-3.2676,-3.3197,-3.4044,-3.4852,-3.4957,-3.4842,-3.4339,-3.2997,-3.1791,-3.1218,-3.0463,-2.9942,-2.9942,-3.0384,-3.0718,-3.083,-2.9927,0.0,-2.9032,-2.9133,-2.9287,-2.9507,-2.961,-2.993,-3.048,-3.0802,-3.1548,-3.2795,-3.313,0.0,-3.4653,-3.5244,-3.5779,-3.6255,-3.6255,-3.6062,-3.5689,-3.6082,-3.6175,-3.6064,-3.585,-3.5919,-3.6089,-3.5585,-3.5432,-3.5535,-3.5566,-3.564,-3.5743,-3.5743,-3.5806,-3.5875,-3.5875,-3.5938,-3.6004,-3.6004,-3.6004,-3.5985,-3.5942,-3.5974,-3.5991,-3.5991,-3.5991,-3.5991,-3.5991,-3.5991,-3.5991,-3.5991,-3.5991,-3.5991,-3.5991,-3.5991,-3.5999,-3.5992,-3.601,-3.6009,-3.5992,-3.5995,-3.5996,-3.5996,0.0,0.0,0.0,0.0,0.0,0.0,-3.5996,-3.5996,0.0,0.0,0.0,0.0,0.0,0.0,-3.5866,-3.5845,0.0,-3.5845,-3.5833,-3.5124,-3.3719,-3.3064,-3.199,-3.0636,-3.1468,-3.23,-3.314,-3.4021,-3.4389,-3.435,-3.3808,-3.3596,-3.346,-3.2087,-3.2377,-3.3596,-3.3596,-3.3924,-3.4524,-3.5745,-3.5378,0.0,0.0,-3.3588,0.0,-3.2201,-3.1574,-3.112,-3.112,-3.1175,-3.1318,-3.1574,-3.1599,-3.1386,-3.0815,0.0,0.0,0.0,-3.1283,-3.1863,-3.2883,-3.2121,-3.2512,-3.4323,-3.3627,-3.3806,-3.4927,-3.5107,-3.563,-3.6413,-3.6413,-3.6413,-3.6413,-3.6413,-3.5971,-3.5207,-3.5223,-3.5296,-3.5418,-3.5483,-3.555,-3.5601,-3.5679,-3.5732,-3.5807,-3.5807,-3.5883,-3.5986,-3.5986,-3.6005,-3.6005,-3.6009,-3.5994,-3.6004,-3.601,-3.5991,-3.5994,-3.5994,-3.5996,-3.5996,-3.5999,-3.5999,-3.5999,-3.5999,-3.5999,-3.5999,-3.5999,-3.5999,-3.5996,-3.5994,-3.5992,-3.5995,-3.5999,-3.5992,-3.5996,-3.5996,0.0,0.0,0.0,0.0,0.0,0.0,-3.5996,-3.5996,0.0,0.0,0.0,0.0,0.0,-3.5937,-3.5996,-3.5944,-3.5917,-3.5918,-3.5903,-3.5432,-3.4491,-3.2812,-3.1505,-3.0635,-3.1574,-3.2377,-3.3082,-3.4002,-3.4369,-3.4311,-3.4253,-3.4253,-3.4214,-3.3344,-3.3576,-3.4389,-3.4389,-3.4427,-3.4601,0.0,0.0,-3.4655,-3.4091,-3.324,-3.2368,-3.1693,-3.1968,-3.2216,-3.2216,-3.2937,-3.3475,-3.3525,-3.3678,-3.3709,-3.358,-3.217,-3.1409,-3.1607,-3.1654,-3.1905,-3.2308,-3.1676,-3.1807,-3.2882,-3.2855,-3.3587,-3.5124,-3.5193,-3.5305,-3.5515,-3.5515,-3.5515,-3.5515,-3.5618,-3.5547,-3.535,-3.5457,-3.5519,-3.5543,-3.5574,-3.562,-3.5676,-3.5696,-3.5779,-3.5878,-3.5878,-3.5894,-3.5914,-3.5914,-3.5958,-3.6009,-3.5991,-3.5999,-3.5999,-3.6007,-3.6007,-3.5996,-3.5934,-3.5917,-3.5918,-3.5914,-3.5911,-3.5911,-3.5911,-3.5911,-3.5911,-3.5911,-3.5911,-3.5935,-3.5989,-3.5957,-3.5935,-3.5995,-3.5996,-3.5996,-3.5996,-3.5996,0.0,0.0,-3.5996,-3.5996,-3.5996,-3.5996,-3.5996,0.0,0.0,0.0,0.0,-3.5976,-3.5976,-3.5996,-3.5987,-3.5987,-3.5976,-3.5974,-3.519,-3.3667,-3.2537,-3.1532,-3.0722,-3.2275,-3.2706,-3.2338,-3.3826,-3.4097,-3.3429,-3.2773,-3.2861,-3.3325,-3.2454,-3.3054,-3.4389,-3.4389,-3.4814,-3.5414,-3.5009,-3.5073,-3.4887,-3.4134,-3.3691,-3.3314,-3.2887,-3.3184,-3.3462,-3.3475,-3.3971,-3.4325,-3.4325,-3.442,-3.4508,-3.4508,-3.3463,-3.2887,-3.3022,-3.3022,-3.2962,-3.2789,-3.2484,-3.2553,-3.3113,-3.3233,-3.3929,-3.5209,-3.5209,-3.5223,-3.5281,-3.5281,-3.5326,-3.5397,-3.5457,-3.5495,-3.5495,-3.5566,-3.562,-3.5641,-3.5641,-3.5696,-3.5794,-3.5794,-3.584,-3.5908,-3.5908,-3.5894,-3.5899,-3.5899,-3.5914,-3.5955,-3.5952,-3.5984,-3.6009,-3.6003,-3.6005,-3.5992,-3.5918,-3.5897,-3.5895,-3.5901,-3.5893,-3.5893,-3.5893,-3.5907,-3.59,-3.59,-3.5895,-3.5909,-3.5949,-3.5918,-3.5916,-3.5947,-3.5946,-3.5938,-3.5918,-3.5934,0.0,-3.5957,-3.5976,-3.5996,-3.5996,-3.5996,-3.5996,-3.5996,-3.5996,0.0,-3.5996,-3.5996,-3.5996,-3.5996,-3.5996,-3.5996,-3.5996,-3.5996,-3.5312,-3.3984,-3.3076,-3.2383,-3.197,-3.2911,-3.307,-3.2664,-3.3949,-3.3805,-3.2673,-3.2977,-3.3131,-3.3229,-3.347,-3.4167,-3.4988,-3.4988,-3.5278,-3.5704,-3.5231,-3.5286,-3.5072,-3.436,-3.437,-3.4467,-3.4326,-3.4427,-3.4505,-3.4495,-3.4545,-3.4551,-3.4551,-3.4593,-3.4614,-3.4614,-3.4614,-3.4593,-3.4551,-3.4551,-3.4353,-3.3864,-3.3729,-3.3777,-3.4014,-3.4029,-3.4446,-3.527,-3.527,-3.5326,-3.5432,-3.5432,-3.5495,-3.5607,-3.5609,-3.5609,-3.5609,-3.563,-3.5688,-3.5737,-3.5737,-3.5801,-3.5908,-3.5908,-3.5894,-3.5899,-3.5899,-3.5904,-3.5929,-3.5929,-3.5927,-3.5929,-3.5913,-3.5948,-3.5996,-3.5996,-3.5996,-3.5995,-3.5912,-3.5908,-3.5901,-3.5884,-3.588,-3.588,-3.588,-3.588,-3.588,-3.588,-3.5878,-3.5896,-3.5893,-3.5889,-3.589,-3.5907,-3.5896,-3.5866,-3.5801,0.0,-3.5873,-3.5877,-3.5937,-3.5976,-3.5976,-3.5996,-3.5996,-3.5996,-3.5996,-3.5996,-3.5996,-3.5996,-3.5996,-3.5996,-3.5996,-3.5996,-3.5996,-3.5996,-3.5566,-3.4687,-3.3945,-3.3535,-3.3398,-3.3535,-3.3431,-3.3193,-3.412,-3.3643,-3.2323,-3.3751,-3.4002,-3.3624,-3.4991,-3.5543,-3.553,-3.5676,-3.5715,-3.5695,-3.4455,-3.4489,-3.4255,-3.3512,-3.4005,-3.4252,-3.3515,-3.4023,-3.4498,-3.4495,-3.4691,-3.4851,-3.4851,-3.4982,-3.5088,-3.5088,-3.5088,-3.5018,-3.4851,-3.4851,-3.487,-3.495,-3.4347,-3.4049,-3.4076,-3.4191,-3.4673,-3.5531,-3.5531,-3.5543,-3.5566,-3.5566,-3.5566,-3.5588,-3.566,-3.5676,-3.5685,-3.5813,-3.5866,-3.5878,-3.5878,-3.5883,-3.5908,-3.5908,-3.589,-3.5896,-3.5896,-3.5929,-3.5986,-3.5986,-3.5986,-3.5971,-3.5976,-3.5996,-3.5995,-3.6005,-3.5999,-3.5999,-3.5918,-3.5903,-3.5885,-3.5826,-3.5811,-3.5811,-3.5811,-3.583,-3.5823,-3.5823,-3.5826,-3.5834,-3.5885,-3.5846,-3.5826,-3.5885,-3.5854,-3.5815,-3.5805,0.0,-3.5826,-3.5827,-3.5868,-3.5918,-3.5918,-3.5976,-3.5996,-3.5996,-3.5996,-3.5996,-3.5996,-3.5996,-3.5996,-3.5996,-3.5996,-3.5996,-3.5996,-3.5996,-3.5566,-3.4707,-3.4551,-3.4101,-3.3418,-3.416,-3.3711,-3.2459,-3.4002,-3.4099,-3.32,-3.3451,-3.391,-3.4419,-3.467,-3.4746,-3.4786,-3.5514,-3.5746,-3.5707,-3.467,-3.4672,-3.4581,-3.4281,-3.4565,-3.4697,-3.4281,-3.4604,-3.4869,-3.4869,-3.4982,-3.5054,-3.5054,-3.5141,-3.5209,-3.5209,-3.527,-3.5281,-3.5184,-3.5184,-3.5005,-3.4625,-3.4796,-3.4909,-3.4909,-3.4966,-3.5212,-3.5607,-3.5607,-3.562,-3.565,-3.565,-3.5687,-3.5757,-3.5787,-3.582,-3.5805,-3.587,-3.5912,-3.5946,-3.5946,-3.5946,-3.5946,-3.5946,-3.5952,-3.594,-3.594,-3.5966,-3.5991,-3.5991,-3.5994,-3.5996,-3.5995,-3.5992,-3.6005,-3.5996,-3.5981,-3.5942,-3.5903,-3.5878,-3.5842,-3.5799,-3.5799,-3.5799,-3.5799,-3.5799,-3.5799,-3.5799,-3.5799,-3.5807,-3.5845,-3.5823,-3.5807,-3.5838,-3.5821,0.0,0.0,-3.5785,-3.5796,-3.5807,-3.5859,-3.5899,-3.5901,-3.5955,-3.5996,-3.5996,-3.5993,-3.6009,-3.6009,-3.5993,-3.5995,-3.5995,-3.5996,-3.5996,-3.5996,-3.5996,-3.5801,-3.5391,-3.4922,-3.4746,-3.4805,-3.4726,-3.4277,-3.3594,-3.4355,-3.4219,-3.3437,-3.3906,-3.4313,-3.4708,-3.5128,-3.5274,-3.5295,-3.5671,-3.5772,-3.5752,-3.4983,-3.5001,-3.5001,-3.5057,-3.5075,-3.5075,-3.5075,-3.5129,-3.5183,-3.52,-3.5196,-3.5207,-3.5239,-3.5254,-3.527,-3.5281,-3.5397,-3.5445,-3.5445,-3.5451,-3.5174,-3.4481,-3.5198,-3.564,-3.566,-3.567,-3.567,-3.567,-3.567,-3.5706,-3.5745,-3.5741,-3.5801,-3.5904,-3.5914,-3.5912,-3.5913,-3.5913,-3.594,-3.5991,-3.5991,-3.5991,-3.5991,-3.5991,-3.5992,-3.5994,-3.5994,-3.5995,-3.5996,-3.5996,-3.5996,-3.5992,-3.5992,-3.6005,-3.5991,-3.5991,-3.5951,-3.5894,-3.5903,-3.5859,-3.5826,-3.5799,-3.5799,-3.5799,-3.5799,-3.5799,-3.5799,-3.5799,-3.5799,-3.5799,-3.5799,-3.5799,-3.581,-3.5803,0.0,0.0,0.0,-3.5737,-3.5786,-3.5786,-3.5844,-3.5888,-3.5883,-3.5957,-3.5996,-3.5996,-3.6007,-3.5996,-3.5994,-3.6003,-3.6007,-3.6007,-3.5993,-3.5995,-3.5996,-3.5996,-3.5996,-3.5996,-3.5312,-3.5351,-3.5976,-3.5312,-3.4881,-3.4706,-3.4902,-3.4511,-3.3769,-3.4648,-3.5,-3.5058,-3.568,-3.5915,-3.5898,-3.5832,-3.5816,-3.5807,-3.4908,-3.4945,-3.4983,-3.4927,-3.4983,-3.5001,-3.5001,-3.5075,-3.5129,-3.52,-3.5196,-3.5254,-3.5364,-3.5378,-3.5432,-3.5554,-3.5566,-3.5596,-3.5596,-3.565,-3.5621,-3.548,-3.5621,-3.5745,-3.5878,-3.5878,-3.5878,-3.5878,-3.5878,-3.5878,-3.5883,-3.588,-3.5896,-3.59,-3.5962,-3.5989,-3.5989,-3.5989,-3.5991,-3.5991,-3.5991,-3.5991,-3.5991,-3.5991,-3.5995,-3.5995,-3.5995,-3.5991,-3.5996,-3.5996,-3.5996,-3.5994,-3.5994,-3.5994,-3.5991,-3.5991,-3.5942,-3.5895,-3.5905,-3.5898,-3.5891,-3.5826,-3.5799,-3.5799,-3.5799,-3.5799,-3.5799,-3.5799,-3.5799,-3.5799,-3.5799,-3.5799,-3.581,-3.5803,0.0,0.0,-3.5708,-3.5708,-3.5708,-3.5708,-3.5776,-3.5814,-3.5803,-3.5919,-3.6009,-3.5993,-3.5991,-3.6005,-3.5994,-3.5994,-3.5994,-3.5994,-3.5994,-3.6007,-3.5996,-3.5996,-3.5996,-3.5996,-3.5937,-3.5937,-3.5996,-3.5927,-3.5467,-3.4744,-3.5558,-3.5406,-3.4664,-3.5543,-3.5894,-3.5914,-3.5972,-3.5957,-3.5909,-3.5896,-3.5855,-3.5801,-3.4908,-3.4927,-3.4927,-3.4889,-3.4927,-3.4982,-3.5089,-3.5174,-3.5254,-3.5355,-3.5424,-3.5457,-3.5519,-3.5519,-3.5543,-3.5607,-3.565,-3.5669,-3.5669,-3.5753,-3.5801,-3.5791,-3.582,-3.5846,-3.5908,-3.5908,-3.5899,-3.5903,-3.5903,-3.5916,-3.5952,-3.596,-3.5964,-3.5964,-3.5989,-3.5994,-3.5996,-3.5996,-3.5995,-3.5992,-3.5992,-3.5992,-3.5992,-3.5992,-3.6009,-3.6003,-3.6003,-3.5999,-3.5991,-3.5991,-3.5991,-3.5991,-3.5991,-3.5991,-3.5991,-3.5942,-3.5923,-3.5894,-3.5892,-3.5905,-3.5872,-3.5826,-3.5799,-3.5799,-3.5799,-3.5799,-3.5799,-3.5799,-3.5799,-3.5799,-3.5799,-3.5799,-3.5791,-3.5801,0.0,-3.5801,-3.5773,-3.5754,-3.5754,-3.5754,-3.5773,-3.5801,-3.5801,-3.5884,-3.5938,-3.5938,-3.594,-3.595,-3.5995,-3.6003,-3.5991,-3.5991,-3.5991,-3.6001,-3.5994,-3.5994,-3.5992,-3.6007,-3.5992,-3.5994,-3.5994,-3.6009,-3.5825,-3.5522,-3.5862,-3.5806,-3.5532,-3.5864,-3.6001,-3.6001,-3.6001,-3.5987,-3.5955,-3.5915,-3.5876,-3.5864,-3.5018,-3.5018,-3.5018,-3.5018,-3.5018,-3.507,-3.5242,-3.5296,-3.5378,-3.5483,-3.5554,-3.5599,-3.564,-3.564,-3.565,-3.5688,-3.5749,-3.576,-3.576,-3.5858,-3.5904,-3.5908,-3.5908,-3.5908,-3.5908,-3.5899,-3.5899,-3.5903,-3.591,-3.5942,-3.5991,-3.5994,-3.5995,-3.5995,-3.5996,-3.5995,-3.5991,-3.5991,-3.6005,-3.5991,-3.5991,-3.5991,-3.5991,-3.5991,-3.5991,-3.5991,-3.5991,-3.5991,-3.5991,-3.5991,-3.5991,-3.5991,-3.5991,-3.5991,-3.5988,-3.5912,-3.5895,-3.5894,-3.5892,-3.5905,-3.5872,-3.5826,-3.5799,-3.5799,-3.5799,-3.5799,-3.5799,-3.5799,-3.5799,-3.5799,-3.5799,-3.5799,-3.5799,-3.5799,-3.5799,-3.5799,-3.5799,-3.5799,-3.5799,-3.5799,-3.5799,-3.5799,-3.5799,-3.5862,-3.5905,-3.5904,-3.5903,-3.5926,-3.597,-3.5975,-3.5966,-3.5966,-3.5996,-3.5996,-3.6007,-3.6009,-3.6005,-3.5994,-3.6003,-3.6007,-3.6007,-3.6007,-3.6001,-3.5991,-3.5991,-3.5991,-3.5991,-3.5991,-3.5991,-3.5991,-3.5991,-3.5991,-3.5996,-3.5917,-3.5894,-3.591,-3.5315,-3.5315,-3.5315,-3.5315,-3.5315,-3.5315,-3.5379,-3.5405,-3.5419,-3.5495,-3.5554,-3.563,-3.5685,-3.5702,-3.5753,-3.5883,-3.5908,-3.5908,-3.5908,-3.5903,-3.5908,-3.5894,-3.5889,-3.5889,-3.5889,-3.5908,-3.5903,-3.5903,-3.5964,-3.5991,-3.5992,-3.5996,-3.5995,-3.5995,-3.6001,-3.5991,-3.5991,-3.5991,-3.5991,-3.5991,-3.5991,-3.5991,-3.5991,-3.5991,-3.5991,-3.5991,-3.5991,-3.5991,-3.5991,-3.5991,-3.5991,-3.5991,-3.5991,-3.5991,-3.5988,-3.5912,-3.5908,-3.5895,-3.5898,-3.5898,-3.5872,-3.5826,-3.5799,-3.5799,-3.5799,-3.5799,-3.5799,-3.5799,-3.5799,-3.5799,-3.5799,-3.5799,-3.5799,-3.5799,-3.5799,-3.5799,-3.5799,-3.5799,-3.5799,-3.5799,-3.5799,-3.5799,-3.5799,-3.5872,-3.5908,-3.5908,-3.5892,-3.5893,-3.5893,-3.5895,-3.5898,-3.5898,-3.5966,-3.5994,-3.5991,-3.6005,-3.6005,-3.5991,-3.5991,-3.5991,-3.5991,-3.5991,-3.5991,-3.5991,-3.5991,-3.5991,-3.5991,-3.5991,-3.5991,-3.5991,-3.5991,-3.5991,-3.5996,-3.5917,-3.5894,-3.591,-3.5315,-3.5315,-3.5315,-3.5315,-3.534,-3.5391,-3.5451,-3.5557,-3.5641,-3.5763,-3.5803,-3.582,-3.584,-3.584,-3.5866,-3.5908,-3.5908,-3.5899,-3.5908,-3.5935,-3.5964,-3.5977,-3.5977,-3.5977,-3.5977,-3.5962,-3.597,-3.5976,-3.5996,-3.5995,-3.6009,-3.6003,-3.6001,-3.6001,-3.5996,-3.5991,-3.5991,-3.5991,-3.5991,-3.5991,-3.5991,-3.5991,-3.5991,-3.5991,-3.5991,-3.5991,-3.5991,-3.5991,-3.5991,-3.5991,-3.5991,-3.5991,-3.5939,-3.5935,-3.5931,-3.5909,-3.5908,-3.5905,-3.5905,-3.5857,-3.5834,-3.5799,-3.5799,-3.5799,-3.5799,-3.5799,-3.5799,-3.5799,-3.5799,-3.5799,-3.5799,-3.5799,-3.5799,-3.5799,-3.5799,-3.5799,-3.5799,-3.5799,-3.5799,-3.5799,-3.5799,-3.5799,-3.5799,-3.5823,-3.583,-3.583,-3.5864,-3.5895,-3.5895,-3.5893,-3.5893,-3.5898,-3.5917,-3.595,-3.5994,-3.5996,-3.5996,-3.5991,-3.5991,-3.5991,-3.5991,-3.5991,-3.5991,-3.5991,-3.5991,-3.5991,-3.5991,-3.5991,-3.5991,-3.5991,-3.5991,-3.5991,-3.5996,-3.5917,-3.5894,-3.591,-3.5463,-3.5463,-3.5463,-3.5463,-3.5489,-3.5531,-3.5568,-3.5688,-3.5823,-3.5898,-3.5891,-3.5908,-3.5908,-3.5908,-3.5908,-3.5908,-3.5904,-3.5908,-3.5935,-3.5971,-3.5995,-3.5995,-3.5996,-3.5996,-3.5992,-3.5994,-3.5996,-3.5995,-3.5992,-3.6005,-3.5991,-3.5991,-3.5991,-3.5991,-3.5991,-3.5991,-3.5991,-3.5991,-3.5991,-3.5991,-3.5991,-3.5991,-3.5991,-3.5991,-3.5991,-3.5991,-3.5991,-3.5991,-3.5991,-3.5978,-3.5919,-3.586,-3.5825,-3.5819,-3.5813,-3.5794,-3.5784,-3.5779,-3.5754,-3.5718,-3.5669,-3.5669,-3.5736,-3.5799,-3.5799,-3.5799,-3.5799,-3.5799,-3.5799,-3.5799,-3.5799,-3.5799,-3.5799,-3.5799,-3.5799,-3.5799,-3.5799,-3.5799,-3.5799,-3.5799,-3.5799,-3.5799,-3.5799,-3.5799,-3.5799,-3.5799,-3.5845,-3.5872,-3.5872,-3.589,-3.5903,-3.5903,-3.5891,-3.5918,-3.5968,-3.5968,-3.5964,-3.5991,-3.5991,-3.5991,-3.5991,-3.5991,-3.5991,-3.5991,-3.5991,-3.5991,-3.5991,-3.5991,-3.5991,-3.5991,-3.5991,-3.5991,-3.5994,-3.595,-3.5917,-3.5952,-3.5704,-3.5704,-3.5704,-3.5704,-3.5688,-3.5708,-3.5708,-3.5815,-3.5905,-3.5905,-3.5891,-3.5908,-3.5908,-3.5894,-3.5894,-3.5894,-3.5912,-3.5938,-3.5992,-3.5996,-3.5994,-3.5994,-3.6003,-3.6007,-3.5994,-3.5996,-3.5994,-3.5994,-3.6001,-3.5991,-3.5991,-3.5991,-3.5991,-3.5991,-3.5991,-3.5991,-3.5991,-3.5991,-3.5991,-3.5991,-3.5991,-3.5991,-3.5991,-3.5991,-3.5991,-3.5988,-3.5988,-3.5985,-3.5958,-3.5899,-3.5801,-3.5693,-3.5693,-3.5693,-3.5696,-3.5631,-3.56,-3.559,-3.5531,-3.5507,-3.5507,-3.5507,-3.5639,-3.5773,-3.5773,-3.5773,-3.5782,-3.5782,-3.5791,-3.5791,-3.5791,-3.5799,-3.5799,-3.5799,-3.5799,-3.5799,-3.5799,-3.5799,-3.5799,-3.5799,-3.5799,-3.5799,-3.5799,-3.5799,-3.5799,-3.5799,-3.5799,-3.5799,-3.5799,-3.5866,-3.5883,-3.5908,-3.5892,-3.5903,-3.5898,-3.5898,-3.5935,-3.5991,-3.5991,-3.5991,-3.5991,-3.5991,-3.5991,-3.5991,-3.5991,-3.5991,-3.5991,-3.5991,-3.5991,-3.5991,-3.5991,-3.5991,-3.5991,-3.5991,-3.6015,-3.6147,-3.5704,-3.5704,-3.5704,-3.5704,-3.5688,-3.5718,-3.5773,-3.585,-3.5892,-3.5897,-3.5903,-3.5908,-3.5908,-3.5895,-3.5892,-3.5892,-3.5948,-3.5976,-3.5996,-3.6009,-3.5999,-3.5999,-3.5994,-3.5996,-3.6005,-3.6001,-3.5999,-3.5999,-3.5994,-3.5991,-3.5991,-3.5991,-3.5991,-3.5991,-3.5991,-3.5991,-3.5991,-3.5991,-3.5991,-3.5991,-3.5991,-3.5991,-3.5991,-3.5991,-3.5974,-3.5924,-3.5924,-3.5858,-3.5767,-3.5753,-3.571,-3.5693,-3.5697,-3.5698,-3.5689,-3.562,-3.5599,-3.5588,-3.5577,-3.5574,-3.557,-3.557,-3.5562,-3.5574,-3.5574,-3.5574,-3.5596,-3.5698,-3.5708,-3.5728,-3.5782,-3.5799,-3.5799,-3.5799,-3.5799,-3.5799,-3.5799,-3.5799,-3.5799,-3.5799,-3.5799,-3.5799,-3.5799,-3.5799,-3.5799,-3.5799,-3.5799,-3.5799,-3.5799,-3.5815,-3.5852,-3.5908,-3.5899,-3.5908,-3.5903,-3.5903,-3.5937,-3.5991,-3.5991,-3.5991,-3.5991,-3.5991,-3.5991,-3.5991,-3.5991,-3.5991,-3.5991,-3.5991,-3.5991,-3.5991,-3.5991,-3.5991,-3.5991,-3.5991,-3.6386,-3.7133,-3.5704,-3.5704,-3.5695,-3.5697,-3.5708,-3.5736,-3.5842,-3.5884,-3.5905,-3.589,-3.5899,-3.5903,-3.5939,-3.5952,-3.5942,-3.595,-3.5976,-3.5993,-3.6007,-3.5999,-3.5991,-3.5991,-3.5991,-3.6189,-3.6618,-3.6208,-3.5991,-3.5991,-3.5991,-3.5991,-3.5991,-3.5991,-3.5991,-3.5991,-3.5991,-3.5991,-3.5991,-3.5991,-3.5991,-3.5991,-3.5991,-3.5991,-3.5991,-3.5955,-3.5934,-3.5883,-3.5833,-3.5729,-3.565,-3.565,-3.564,-3.5607,-3.5593,-3.5601,-3.5589,-3.5521,-3.5489,-3.5509,-3.5477,-3.547,-3.5463,-3.5463,-3.5416,-3.5378,-3.547,-3.5495,-3.5507,-3.5604,-3.5657,-3.5698,-3.5757,-3.5773,-3.5799,-3.5799,-3.5799,-3.5799,-3.5799,-3.5799,-3.5799,-3.5799,-3.5799,-3.5799,-3.5799,-3.5799,-3.5799,-3.5799,-3.5799,-3.5799,-3.5799,-3.5799,-3.5815,-3.5859,-3.584,-3.5872,-3.5908,-3.5908,-3.5916,-3.5957,-3.5954,-3.5966,-3.5991,-3.5991,-3.5991,-3.5991,-3.5991,-3.5991,-3.5991,-3.5991,-3.601,-3.6007,-3.6007,-3.6238,-3.6567,-3.6567,-3.7378,-3.8576,-3.5704,-3.5695,-3.5697,-3.5708,-3.5718,-3.5763,-3.5878,-3.5898,-3.5894,-3.5923,-3.5929,-3.5935,-3.5991,-3.5993,-3.5995,-3.5994,-3.5993,-3.6009,-3.5994,-3.5991,-3.5991,-3.5991,-3.5991,-3.6345,-3.7067,-3.6364,-3.6069,-3.6228,-3.6069,-3.5991,-3.5991,-3.5991,-3.5991,-3.5991,-3.5991,-3.5991,-3.5991,-3.5991,-3.5988,-3.5985,-3.5985,-3.5962,-3.5931,-3.5894,-3.5866,-3.5827,-3.5721,-3.5631,-3.5574,-3.5574,-3.554,-3.5493,-3.5493,-3.5493,-3.5493,-3.5427,-3.5412,-3.5412,-3.535,-3.5339,-3.5327,-3.5327,-3.5277,-3.527,-3.5418,-3.5457,-3.5445,-3.5489,-3.557,-3.5657,-3.5678,-3.5757,-3.5782,-3.5791,-3.5799,-3.5799,-3.5799,-3.5799,-3.5799,-3.5799,-3.5799,-3.5799,-3.5799,-3.5799,-3.5799,-3.5799,-3.5799,-3.5799,-3.5799,-3.5799,-3.5799,-3.5799,-3.5799,-3.5908,-3.6105,-3.595,-3.5963,-3.6124,-3.5972,-3.5936,-3.5979,-3.5994,-3.601,-3.6007,-3.6007,-3.6007,-3.6007,-3.6007,-3.6082,-3.6212,-3.6212,-3.6692,-3.7449,-3.7597,-3.8567,-3.9819,-3.5704,-3.5707,-3.5708,-3.5706,-3.5752,-3.5814,-3.5898,-3.5895,-3.5913,-3.5987,-3.5989,-3.5989,-3.5991,-3.5996,-3.5993,-3.5999,-3.5996,-3.5996,-3.5994,-3.5991,-3.5991,-3.5991,-3.5991,-3.6049,-3.6169,-3.6049,-3.6364,-3.7126,-3.6364,-3.5991,-3.5991,-3.5991,-3.5991,-3.5991,-3.5991,-3.5991,-3.5991,-3.5991,-3.5974,-3.5899,-3.5899,-3.5846,-3.5753,-3.5737,-3.5687,-3.563,-3.562,-3.557,-3.5515,-3.5515,-3.552,-3.5493,-3.5493,-3.5493,-3.5493,-3.5493,-3.5493,-3.5474,-3.5493,-3.5432,-3.5383,-3.5383,-3.5335,-3.5281,-3.5311,-3.5266,-3.527,-3.5393,-3.5422,-3.5489,-3.5657,-3.5718,-3.5728,-3.5782,-3.5799,-3.5799,-3.5799,-3.5799,-3.5799,-3.5799,-3.5799,-3.5799,-3.5799,-3.5799,-3.5799,-3.5799,-3.5799,-3.5799,-3.5799,-3.5799,-3.5799,-3.5799,-3.5799,-3.6168,-3.6923,-3.6184,-3.6223,-3.7024,-3.6253,-3.5897,-3.5915,-3.5977,-3.5997,-3.6009,-3.6009,-3.6009,-3.6009,-3.6009,-3.6415,-3.7039,-3.7039,-3.7566,-3.8428,-3.9177,-3.9609,-3.9898,-3.5704,-3.5706,-3.5708,-3.5743,-3.5774,-3.5849,-3.5939,-3.5929,-3.5923,-3.5995,-3.5996,-3.5996,-3.5994,-3.6009,-3.6003,-3.5994,-3.5991,-3.5991,-3.5991,-3.5991,-3.5991,-3.5991,-3.5991,-3.6228,-3.6716,-3.6247,-3.6423,-3.7301,-3.6423,-3.5991,-3.5991,-3.5991,-3.5991,-3.5991,-3.5991,-3.5991,-3.5991,-3.5951,-3.5929,-3.5889,-3.5827,-3.5753,-3.5693,-3.566,-3.563,-3.5596,-3.5565,-3.5541,-3.5493,-3.5493,-3.5493,-3.5493,-3.5493,-3.5493,-3.5493,-3.5493,-3.5493,-3.5493,-3.5493,-3.546,-3.5412,-3.5412,-3.5364,-3.5315,-3.5315,-3.5285,-3.527,-3.5339,-3.5379,-3.543,-3.5515,-3.5558,-3.5626,-3.5728,-3.5737,-3.5756,-3.5791,-3.5799,-3.5799,-3.5799,-3.5799,-3.5799,-3.5799,-3.5799,-3.5799,-3.5799,-3.5799,-3.5799,-3.5799,-3.5842,-3.5857,-3.5857,-3.5852,-3.6041,-3.643,-3.606,-3.606,-3.6475,-3.6082,-3.5915,-3.5951,-3.5988,-3.6009,-3.6005,-3.6005,-3.6005,-3.6025,-3.6473,-3.6879,-3.724,-3.7747,-3.8463,-3.9326,-4.0207,-4.0527,-4.0586]}]]